Darstellungsparameter: Aktuell verwendete Einstellungen:
Skalierung der Graphiken ... ?
xyx+y,   Skalierungsfaktor:      Skalierung: Modus: x, Faktor: 1
Darstellungszeitraum ... ?
Vom - - bis: - -   Zeitraum: 04.09.2020 - 03.03.2021
Min/Max/Avg-Anzeige ... ?
Zeige MMA aktuell
Zeige MMA Monat
Zeige MMA alles
Zeige --A aktuell
Zeige --A Monat
Zeige --A alles
Keine MMA-Anzeige
MMA:
Average (ber die Originaldaten)
MMA-Basis: 23.02.2003 - 03.08.2020
Quicknavigation für Darstellung... ?
Tage:      1T, 2T, 3T, 5T -1T -2T -3T -5T +1T +2T +3T +5T
Wochen: 1W, 2W, 3W -1W -2W -3W +1W +2W +3W
Monate: 1M, 3M, 6M -1M -3M -6M +1M +3M +6M
Jahre:    1J, 3J, 5J, 10J -1J -3J -5J -10J +1J +3J +5J +10J
Nutze für die Darstellung ... ?
Originaldaten oder ...
Mittelwerte Minima Maxima auf...
Stundenbasis Tagesbasis Wochenbasis
Monatsbasis Jahresbasis      Datenbasis: Mittelwerte auf Stundenbasis
Darstellen als:
Statistik (Auto) Statistik J:M      Darstellung:
Zur Graphik,    zurück zur Übersicht aller Sensoren.
 
Tabellarische Datenbersicht: ?
 
Sensor: Nr:Datum:Temp:Abs-Feuchte:Windchill:Wind:
Aussen-T/F 1 04-09-2020 00:00:00 15.825 C 12.67 g/m*3 15.83 C 0 km/h
2 04-09-2020 01:00:00 15.78333 C 12.64 g/m*3 15.78 C 0.4 km/h
3 04-09-2020 02:00:00 15.84167 C 12.54 g/m*3 15.84 C 1.06667 km/h
4 04-09-2020 03:00:00 16.46667 C 12.85 g/m*3 16.47 C 0.8 km/h
5 04-09-2020 04:00:00 16.7 C 12.81 g/m*3 16.7 C 0 km/h
6 04-09-2020 05:00:00 16.7 C 12.85 g/m*3 16.7 C 0 km/h
7 04-09-2020 06:00:00 16.58333 C 12.7 g/m*3 16.58 C 1.73333 km/h
8 04-09-2020 07:00:00 16.78333 C 12.7 g/m*3 16.78 C 0.8 km/h
9 04-09-2020 08:00:00 17.175 C 13 g/m*3 17.18 C 0.4 km/h
10 04-09-2020 09:00:00 18.35 C 13.41 g/m*3 18.35 C 1.2 km/h
11 04-09-2020 10:00:00 19.25833 C 13.68 g/m*3 19.26 C 0.13333 km/h
12 04-09-2020 11:00:00 20.375 C 13.81 g/m*3 20.38 C 1.86667 km/h
13 04-09-2020 12:00:00 22.45 C 14.06 g/m*3 22.45 C 10.49167 km/h
14 04-09-2020 13:00:00 24.5 C 14.62 g/m*3 24.5 C 14.23333 km/h
15 04-09-2020 14:00:00 25.675 C 14.66 g/m*3 25.68 C 10.20833 km/h
16 04-09-2020 15:00:00 25.71667 C 14.64 g/m*3 25.72 C 4.94167 km/h
17 04-09-2020 16:00:00 26.34167 C 14.62 g/m*3 26.34 C 2.93333 km/h
18 04-09-2020 17:00:00 28.15833 C 15.38 g/m*3 28.16 C 2.40833 km/h
19 04-09-2020 18:00:00 25.54167 C 15.78 g/m*3 25.54 C 7.80833 km/h
20 04-09-2020 19:00:00 23.40833 C 15.83 g/m*3 23.41 C 4.4 km/h
21 04-09-2020 20:00:00 21.325 C 15.4 g/m*3 21.33 C 1.475 km/h
22 04-09-2020 21:00:00 20.075 C 15.14 g/m*3 20.08 C 2.13333 km/h
23 04-09-2020 22:00:00 19.50833 C 14.64 g/m*3 19.51 C 0.53333 km/h
24 04-09-2020 23:00:00 18.725 C 14.47 g/m*3 18.73 C 0 km/h
25 05-09-2020 00:00:00 17.79167 C 13.8 g/m*3 17.79 C 2 km/h
Sensor: Nr:Datum:Temp:Abs-Feuchte:Windchill:Wind:
Aussen-T/F 26 05-09-2020 01:00:00 16.61667 C 13.06 g/m*3 16.62 C 0 km/h
27 05-09-2020 02:00:00 15.875 C 12.68 g/m*3 15.88 C 0 km/h
28 05-09-2020 03:00:00 16.04167 C 12.98 g/m*3 16.04 C 0 km/h
29 05-09-2020 04:00:00 16.50833 C 13.46 g/m*3 16.51 C 0.4 km/h
30 05-09-2020 05:00:00 16.7 C 13.58 g/m*3 16.7 C 0 km/h
31 05-09-2020 06:00:00 16.25833 C 12.62 g/m*3 16.26 C 6.04167 km/h
32 05-09-2020 07:00:00 15.81667 C 11.42 g/m*3 15.82 C 4.00833 km/h
33 05-09-2020 08:00:00 15.50833 C 11.31 g/m*3 15.51 C 2.26667 km/h
34 05-09-2020 09:00:00 15.875 C 11.35 g/m*3 15.88 C 3.475 km/h
35 05-09-2020 10:00:00 16.64167 C 11.42 g/m*3 16.64 C 6.84167 km/h
36 05-09-2020 11:00:00 17.79167 C 11.57 g/m*3 17.79 C 7.93333 km/h
37 05-09-2020 12:00:00 18.36667 C 11.37 g/m*3 18.37 C 11.15 km/h
38 05-09-2020 13:00:00 18.64167 C 11.31 g/m*3 18.64 C 11.025 km/h
39 05-09-2020 14:00:00 18.825 C 11.17 g/m*3 18.83 C 12.89167 km/h
40 05-09-2020 15:00:00 17.76667 C 11.07 g/m*3 17.77 C 11.3 km/h
41 05-09-2020 16:00:00 18.68333 C 10.68 g/m*3 18.68 C 9.69167 km/h
42 05-09-2020 17:00:00 19.44167 C 10.05 g/m*3 19.44 C 9.425 km/h
43 05-09-2020 18:00:00 20.2 C 9.08 g/m*3 20.2 C 7.91667 km/h
44 05-09-2020 19:00:00 18.6 C 9.23 g/m*3 18.6 C 1.74167 km/h
45 05-09-2020 20:00:00 16.40833 C 9.19 g/m*3 16.41 C 3.60833 km/h
46 05-09-2020 21:00:00 14.35833 C 9.35 g/m*3 14.36 C 3.06667 km/h
47 05-09-2020 22:00:00 13.725 C 9.27 g/m*3 13.73 C 3.6 km/h
48 05-09-2020 23:00:00 13.08333 C 9.22 g/m*3 13.08 C 4.53333 km/h
49 06-09-2020 00:00:00 12.55 C 9.19 g/m*3 12.55 C 2.8 km/h
50 06-09-2020 01:00:00 11.725 C 9.08 g/m*3 11.73 C 0 km/h
Sensor: Nr:Datum:Temp:Abs-Feuchte:Windchill:Wind:
Aussen-T/F 51 06-09-2020 02:00:00 10.51667 C 8.62 g/m*3 10.52 C 0.13333 km/h
52 06-09-2020 03:00:00 9.65 C 8.34 g/m*3 9.65 C 0.26667 km/h
53 06-09-2020 04:00:00 9.06667 C 8.17 g/m*3 9.07 C 0.13333 km/h
54 06-09-2020 05:00:00 8.60833 C 8.03 g/m*3 8.61 C 0.4 km/h
55 06-09-2020 06:00:00 8.175 C 7.85 g/m*3 8.18 C 0 km/h
56 06-09-2020 07:00:00 8.03333 C 7.85 g/m*3 8.03 C 0.13333 km/h
57 06-09-2020 08:00:00 8.125 C 7.92 g/m*3 8.13 C 0.53333 km/h
58 06-09-2020 09:00:00 8.96667 C 8.42 g/m*3 8.97 C 1.33333 km/h
59 06-09-2020 10:00:00 10.61667 C 9.31 g/m*3 10.62 C 0.4 km/h
60 06-09-2020 11:00:00 13.84167 C 9.64 g/m*3 13.84 C 0.53333 km/h
61 06-09-2020 12:00:00 16.43333 C 9.18 g/m*3 16.43 C 4.825 km/h
62 06-09-2020 13:00:00 17.45 C 8.83 g/m*3 17.45 C 4.03333 km/h
63 06-09-2020 14:00:00 18.61667 C 8.8 g/m*3 18.62 C 4.55 km/h
64 06-09-2020 15:00:00 19.04167 C 8.6 g/m*3 19.04 C 6.30833 km/h
65 06-09-2020 16:00:00 18.5 C 8.43 g/m*3 18.5 C 5.50833 km/h
66 06-09-2020 17:00:00 18.56667 C 8.68 g/m*3 18.57 C 7.53333 km/h
67 06-09-2020 18:00:00 19.11667 C 8.76 g/m*3 19.12 C 3.34167 km/h
68 06-09-2020 19:00:00 18.65 C 8.87 g/m*3 18.65 C 2.4 km/h
69 06-09-2020 20:00:00 14.71667 C 8.58 g/m*3 14.72 C 0 km/h
70 06-09-2020 21:00:00 12.83333 C 8.62 g/m*3 12.83 C 0 km/h
71 06-09-2020 22:00:00 12.35 C 8.89 g/m*3 12.35 C 0 km/h
72 06-09-2020 23:00:00 12.575 C 9.02 g/m*3 12.58 C 0.26667 km/h
73 07-09-2020 00:00:00 12.59167 C 9.03 g/m*3 12.59 C 0.13333 km/h
74 07-09-2020 01:00:00 12.19167 C 8.95 g/m*3 12.19 C 0 km/h
75 07-09-2020 02:00:00 10.725 C 8.44 g/m*3 10.73 C 0.13333 km/h
Sensor: Nr:Datum:Temp:Abs-Feuchte:Windchill:Wind:
Aussen-T/F 76 07-09-2020 03:00:00 9.475 C 8.1 g/m*3 9.48 C 0.13333 km/h
77 07-09-2020 04:00:00 8.80833 C 7.93 g/m*3 8.81 C 0.13333 km/h
78 07-09-2020 05:00:00 8.24167 C 7.76 g/m*3 8.24 C 0.4 km/h
79 07-09-2020 06:00:00 7.81667 C 7.62 g/m*3 7.82 C 0.53333 km/h
80 07-09-2020 07:00:00 7.6 C 7.57 g/m*3 7.6 C 0 km/h
81 07-09-2020 08:00:00 7.98333 C 7.85 g/m*3 7.98 C 0.26667 km/h
82 07-09-2020 09:00:00 8.95833 C 8.39 g/m*3 8.96 C 0.4 km/h
83 07-09-2020 10:00:00 10.56667 C 9.29 g/m*3 10.57 C 0.93333 km/h
84 07-09-2020 11:00:00 13.66667 C 10.23 g/m*3 13.67 C 1.73333 km/h
85 07-09-2020 12:00:00 16.475 C 10 g/m*3 16.48 C 3.34167 km/h
86 07-09-2020 13:00:00 18.13333 C 9.44 g/m*3 18.13 C 3.875 km/h
87 07-09-2020 14:00:00 19.43333 C 8.85 g/m*3 19.43 C 6.71667 km/h
88 07-09-2020 15:00:00 20.7 C 8.84 g/m*3 20.7 C 5.475 km/h
89 07-09-2020 16:00:00 21.69167 C 8.87 g/m*3 21.69 C 5.35 km/h
90 07-09-2020 17:00:00 22.85 C 9.02 g/m*3 22.85 C 3.74167 km/h
91 07-09-2020 18:00:00 22.425 C 10.01 g/m*3 22.43 C 0.66667 km/h
92 07-09-2020 19:00:00 20.85 C 10.05 g/m*3 20.85 C 2.53333 km/h
93 07-09-2020 20:00:00 16.58333 C 9.18 g/m*3 16.58 C 3.73333 km/h
94 07-09-2020 21:00:00 14.21667 C 9.18 g/m*3 14.22 C 0.53333 km/h
95 07-09-2020 22:00:00 12.7 C 8.95 g/m*3 12.7 C 0 km/h
96 07-09-2020 23:00:00 11.675 C 8.68 g/m*3 11.68 C 0 km/h
97 08-09-2020 00:00:00 10.875 C 8.49 g/m*3 10.88 C 0 km/h
98 08-09-2020 01:00:00 10.425 C 8.43 g/m*3 10.43 C 0.13333 km/h
99 08-09-2020 02:00:00 9.775 C 8.24 g/m*3 9.78 C 0 km/h
100 08-09-2020 03:00:00 9.25 C 8.1 g/m*3 9.25 C 0 km/h
Sensor: Nr:Datum:Temp:Abs-Feuchte:Windchill:Wind:
Aussen-T/F 101 08-09-2020 04:00:00 8.725 C 7.93 g/m*3 8.73 C 0 km/h
102 08-09-2020 05:00:00 8.41667 C 7.86 g/m*3 8.42 C 0 km/h
103 08-09-2020 06:00:00 8.05833 C 7.72 g/m*3 8.06 C 0 km/h
104 08-09-2020 07:00:00 8.125 C 7.83 g/m*3 8.13 C 0 km/h
105 08-09-2020 08:00:00 8.76667 C 8.17 g/m*3 8.77 C 0 km/h
106 08-09-2020 09:00:00 9.725 C 8.68 g/m*3 9.73 C 0.8 km/h
107 08-09-2020 10:00:00 12.20833 C 9.76 g/m*3 12.21 C 2.53333 km/h
108 08-09-2020 11:00:00 17.40833 C 10.33 g/m*3 17.41 C 6.99167 km/h
109 08-09-2020 12:00:00 20.70833 C 10.33 g/m*3 20.71 C 10.89167 km/h
110 08-09-2020 13:00:00 22.10833 C 10.22 g/m*3 22.11 C 10.48333 km/h
111 08-09-2020 14:00:00 23.06667 C 10.26 g/m*3 23.07 C 9.55833 km/h
112 08-09-2020 15:00:00 24.23333 C 10.27 g/m*3 24.23 C 10.74167 km/h
113 08-09-2020 16:00:00 25.63333 C 10.38 g/m*3 25.63 C 9.14167 km/h
114 08-09-2020 17:00:00 27.58333 C 10.63 g/m*3 27.58 C 9 km/h
115 08-09-2020 18:00:00 27.83333 C 11.18 g/m*3 27.83 C 6.43333 km/h
116 08-09-2020 19:00:00 25.13333 C 12.47 g/m*3 25.13 C 4.95 km/h
117 08-09-2020 20:00:00 20.625 C 12.44 g/m*3 20.63 C 1.46667 km/h
118 08-09-2020 21:00:00 18.66667 C 12.26 g/m*3 18.67 C 2.26667 km/h
119 08-09-2020 22:00:00 17.56667 C 12.04 g/m*3 17.57 C 2.66667 km/h
120 08-09-2020 23:00:00 16.24167 C 11.73 g/m*3 16.24 C 0 km/h
121 09-09-2020 00:00:00 15.15833 C 11.41 g/m*3 15.16 C 0 km/h
122 09-09-2020 01:00:00 14.46667 C 11.23 g/m*3 14.47 C 0 km/h
123 09-09-2020 02:00:00 13.90833 C 10.98 g/m*3 13.91 C 0 km/h
124 09-09-2020 03:00:00 13.35 C 10.76 g/m*3 13.35 C 0 km/h
125 09-09-2020 04:00:00 12.86667 C 10.49 g/m*3 12.87 C 0 km/h
Sensor: Nr:Datum:Temp:Abs-Feuchte:Windchill:Wind:
Aussen-T/F 126 09-09-2020 05:00:00 12.46667 C 10.32 g/m*3 12.47 C 0 km/h
127 09-09-2020 06:00:00 12.18333 C 10.2 g/m*3 12.18 C 0 km/h
128 09-09-2020 07:00:00 12.01667 C 10.14 g/m*3 12.02 C 0.13333 km/h
129 09-09-2020 08:00:00 12.41667 C 10.47 g/m*3 12.42 C 1.2 km/h
130 09-09-2020 09:00:00 13.48333 C 11.25 g/m*3 13.48 C 1.6 km/h
131 09-09-2020 10:00:00 16.26667 C 12.88 g/m*3 16.27 C 0.13333 km/h
132 09-09-2020 11:00:00 20.69167 C 13.52 g/m*3 20.69 C 0.53333 km/h
133 09-09-2020 12:00:00 22.36667 C 13.68 g/m*3 22.37 C 3.74167 km/h
134 09-09-2020 13:00:00 22.85 C 13.87 g/m*3 22.85 C 5.225 km/h
135 09-09-2020 14:00:00 23.69167 C 13.99 g/m*3 23.69 C 7.66667 km/h
136 09-09-2020 15:00:00 24.1 C 14.19 g/m*3 24.1 C 7.38333 km/h
137 09-09-2020 16:00:00 23.925 C 14.06 g/m*3 23.93 C 4.55 km/h
138 09-09-2020 17:00:00 24.525 C 14.16 g/m*3 24.53 C 4.54167 km/h
139 09-09-2020 18:00:00 24.46667 C 14.72 g/m*3 24.47 C 1.20833 km/h
140 09-09-2020 19:00:00 22.70833 C 14.54 g/m*3 22.71 C 0 km/h
141 09-09-2020 20:00:00 21.025 C 14.08 g/m*3 21.03 C 0.13333 km/h
142 09-09-2020 21:00:00 19.75 C 13.58 g/m*3 19.75 C 4.8 km/h
143 09-09-2020 22:00:00 19.65833 C 13.75 g/m*3 19.66 C 1.2 km/h
144 09-09-2020 23:00:00 20.05833 C 13.73 g/m*3 20.06 C 4.00833 km/h
145 10-09-2020 00:00:00 20.18333 C 14.59 g/m*3 20.18 C 10.89167 km/h
146 10-09-2020 01:00:00 18.69167 C 14.51 g/m*3 18.69 C 8.6 km/h
147 10-09-2020 02:00:00 17.675 C 13.63 g/m*3 17.68 C 4.55833 km/h
148 10-09-2020 03:00:00 17.175 C 13.05 g/m*3 17.18 C 2.00833 km/h
149 10-09-2020 04:00:00 16.85833 C 12.55 g/m*3 16.86 C 1.06667 km/h
150 10-09-2020 05:00:00 16.56667 C 11.82 g/m*3 16.57 C 2.13333 km/h
Sensor: Nr:Datum:Temp:Abs-Feuchte:Windchill:Wind:
Aussen-T/F 151 10-09-2020 06:00:00 16.08333 C 11.56 g/m*3 16.08 C 3.075 km/h
152 10-09-2020 07:00:00 15.475 C 11.38 g/m*3 15.48 C 5.1 km/h
153 10-09-2020 08:00:00 15.35833 C 11.29 g/m*3 15.36 C 2.4 km/h
154 10-09-2020 09:00:00 15.56667 C 11.39 g/m*3 15.57 C 3.875 km/h
155 10-09-2020 10:00:00 15.93333 C 10.87 g/m*3 15.93 C 6.71667 km/h
156 10-09-2020 11:00:00 16.7 C 10.67 g/m*3 16.7 C 5.36667 km/h
157 10-09-2020 12:00:00 17.83333 C 10.28 g/m*3 17.83 C 7.24167 km/h
158 10-09-2020 13:00:00 18.54167 C 9.52 g/m*3 18.54 C 5.9 km/h
159 10-09-2020 14:00:00 19.66667 C 9.96 g/m*3 19.67 C 5.5 km/h
160 10-09-2020 15:00:00 20.84167 C 10.16 g/m*3 20.84 C 7.11667 km/h
161 10-09-2020 16:00:00 22.06667 C 10.31 g/m*3 22.07 C 7.65833 km/h
162 10-09-2020 17:00:00 22.73333 C 10.27 g/m*3 22.73 C 8.61667 km/h
163 10-09-2020 18:00:00 22.45 C 10.24 g/m*3 22.45 C 5.225 km/h
164 10-09-2020 19:00:00 20.80833 C 9.8 g/m*3 20.81 C 2 km/h
165 10-09-2020 20:00:00 17.675 C 9.25 g/m*3 17.68 C 1.33333 km/h
166 10-09-2020 21:00:00 15.60833 C 8.98 g/m*3 15.61 C 3.2 km/h
167 10-09-2020 22:00:00 14.325 C 9.01 g/m*3 14.33 C 0.4 km/h
168 10-09-2020 23:00:00 12.7 C 8.75 g/m*3 12.7 C 0 km/h
169 11-09-2020 00:00:00 12.08333 C 8.78 g/m*3 12.08 C 0 km/h
170 11-09-2020 01:00:00 11.95 C 8.78 g/m*3 11.95 C 0 km/h
171 11-09-2020 02:00:00 11.05833 C 8.52 g/m*3 11.06 C 0 km/h
172 11-09-2020 03:00:00 10.23333 C 8.35 g/m*3 10.23 C 0 km/h
173 11-09-2020 04:00:00 9.59167 C 8.23 g/m*3 9.59 C 0 km/h
174 11-09-2020 05:00:00 8.95833 C 8.03 g/m*3 8.96 C 0 km/h
175 11-09-2020 06:00:00 8.43333 C 7.87 g/m*3 8.43 C 0 km/h
Sensor: Nr:Datum:Temp:Abs-Feuchte:Windchill:Wind:
Aussen-T/F 176 11-09-2020 07:00:00 8.26667 C 7.88 g/m*3 8.27 C 0 km/h
177 11-09-2020 08:00:00 8.625 C 8.13 g/m*3 8.63 C 0 km/h
178 11-09-2020 09:00:00 9.45833 C 8.62 g/m*3 9.46 C 0 km/h
179 11-09-2020 10:00:00 11.20833 C 9.55 g/m*3 11.21 C 0 km/h
180 11-09-2020 11:00:00 14.025 C 10.22 g/m*3 14.03 C 0.26667 km/h
181 11-09-2020 12:00:00 17.6 C 9.97 g/m*3 17.6 C 2.93333 km/h
182 11-09-2020 13:00:00 19.86667 C 9.7 g/m*3 19.87 C 5.35833 km/h
183 11-09-2020 14:00:00 21.15 C 10.06 g/m*3 21.15 C 5.09167 km/h
184 11-09-2020 15:00:00 22.44167 C 10.4 g/m*3 22.44 C 6.45833 km/h
185 11-09-2020 16:00:00 23.58333 C 10.59 g/m*3 23.58 C 8.6 km/h
186 11-09-2020 17:00:00 24.6 C 10.8 g/m*3 24.6 C 6.43333 km/h
187 11-09-2020 18:00:00 24.36667 C 11.27 g/m*3 24.37 C 3.075 km/h
188 11-09-2020 19:00:00 21.425 C 11.31 g/m*3 21.43 C 2.80833 km/h
189 11-09-2020 20:00:00 18.3 C 10.65 g/m*3 18.3 C 4.13333 km/h
190 11-09-2020 21:00:00 16.35833 C 10.47 g/m*3 16.36 C 0.53333 km/h
191 11-09-2020 22:00:00 15.04167 C 10.27 g/m*3 15.04 C 0 km/h
192 11-09-2020 23:00:00 13.93333 C 10.07 g/m*3 13.93 C 0 km/h
193 12-09-2020 00:00:00 13.05 C 9.85 g/m*3 13.05 C 0 km/h
194 12-09-2020 01:00:00 12.525 C 9.71 g/m*3 12.53 C 0 km/h
195 12-09-2020 02:00:00 11.975 C 9.53 g/m*3 11.98 C 0 km/h
196 12-09-2020 03:00:00 11.475 C 9.35 g/m*3 11.48 C 0 km/h
197 12-09-2020 04:00:00 10.975 C 9.17 g/m*3 10.98 C 0 km/h
198 12-09-2020 05:00:00 10.525 C 9.03 g/m*3 10.53 C 0 km/h
199 12-09-2020 06:00:00 10.225 C 8.9 g/m*3 10.23 C 0 km/h
200 12-09-2020 07:00:00 10.16667 C 8.94 g/m*3 10.17 C 0 km/h
Sensor: Nr:Datum:Temp:Abs-Feuchte:Windchill:Wind:
Aussen-T/F 201 12-09-2020 08:00:00 10.9 C 9.46 g/m*3 10.9 C 0 km/h
202 12-09-2020 09:00:00 12.625 C 10.36 g/m*3 12.63 C 0.26667 km/h
203 12-09-2020 10:00:00 14.675 C 10.94 g/m*3 14.68 C 0.13333 km/h
204 12-09-2020 11:00:00 17.25 C 11.71 g/m*3 17.25 C 0 km/h
205 12-09-2020 12:00:00 20.15833 C 12.27 g/m*3 20.16 C 2.80833 km/h
206 12-09-2020 13:00:00 24.425 C 11.76 g/m*3 24.43 C 11.15833 km/h
207 12-09-2020 14:00:00 24.90833 C 12.29 g/m*3 24.91 C 6.85 km/h
208 12-09-2020 15:00:00 25.61667 C 12.43 g/m*3 25.62 C 8.6 km/h
209 12-09-2020 16:00:00 25.75 C 12.36 g/m*3 25.75 C 10.475 km/h
210 12-09-2020 17:00:00 26.14167 C 12.76 g/m*3 26.14 C 10.76667 km/h
211 12-09-2020 18:00:00 25.28333 C 12.84 g/m*3 25.28 C 7.23333 km/h
212 12-09-2020 19:00:00 23.03333 C 12.66 g/m*3 23.03 C 1.46667 km/h
213 12-09-2020 20:00:00 19.79167 C 11.85 g/m*3 19.79 C 1.6 km/h
214 12-09-2020 21:00:00 18.49167 C 10.94 g/m*3 18.49 C 1.20833 km/h
215 12-09-2020 22:00:00 17.16667 C 10.49 g/m*3 17.17 C 0.66667 km/h
216 12-09-2020 23:00:00 15.81667 C 10.29 g/m*3 15.82 C 1.06667 km/h
217 13-09-2020 00:00:00 14.36667 C 9.98 g/m*3 14.37 C 0.26667 km/h
218 13-09-2020 01:00:00 13.05 C 9.73 g/m*3 13.05 C 0.13333 km/h
219 13-09-2020 02:00:00 12.375 C 9.55 g/m*3 12.38 C 0.26667 km/h
220 13-09-2020 03:00:00 11.73333 C 9.42 g/m*3 11.73 C 0 km/h
221 13-09-2020 04:00:00 11.35 C 9.32 g/m*3 11.35 C 0 km/h
222 13-09-2020 05:00:00 10.84167 C 9.12 g/m*3 10.84 C 0 km/h
223 13-09-2020 06:00:00 10.35 C 8.92 g/m*3 10.35 C 0 km/h
224 13-09-2020 07:00:00 10.15 C 8.91 g/m*3 10.15 C 0 km/h
225 13-09-2020 08:00:00 10.66667 C 9.31 g/m*3 10.67 C 0.26667 km/h
Sensor: Nr:Datum:Temp:Abs-Feuchte:Windchill:Wind:
Aussen-T/F 226 13-09-2020 09:00:00 11.60833 C 9.88 g/m*3 11.61 C 0 km/h
227 13-09-2020 10:00:00 13.1 C 10.67 g/m*3 13.1 C 0 km/h
228 13-09-2020 11:00:00 15.53333 C 11.27 g/m*3 15.53 C 0.4 km/h
229 13-09-2020 12:00:00 19.05833 C 11.98 g/m*3 19.06 C 2.26667 km/h
230 13-09-2020 13:00:00 21.825 C 11.99 g/m*3 21.83 C 0.53333 km/h
231 13-09-2020 14:00:00 23.725 C 11.78 g/m*3 23.73 C 2.81667 km/h
232 13-09-2020 15:00:00 25.85833 C 11.17 g/m*3 25.86 C 4.14167 km/h
233 13-09-2020 16:00:00 26.83333 C 11.13 g/m*3 26.83 C 5.1 km/h
234 13-09-2020 17:00:00 28.81667 C 11.8 g/m*3 28.82 C 3.86667 km/h
235 13-09-2020 18:00:00 27.46667 C 13.01 g/m*3 27.47 C 2.66667 km/h
236 13-09-2020 19:00:00 23.69167 C 11.87 g/m*3 23.69 C 3.2 km/h
237 13-09-2020 20:00:00 20.53333 C 11.32 g/m*3 20.53 C 1.86667 km/h
238 13-09-2020 21:00:00 18.25 C 10.95 g/m*3 18.25 C 0 km/h
239 13-09-2020 22:00:00 16.55833 C 10.63 g/m*3 16.56 C 0 km/h
240 13-09-2020 23:00:00 15.175 C 10.44 g/m*3 15.18 C 0 km/h
241 14-09-2020 00:00:00 14.325 C 10.28 g/m*3 14.33 C 0 km/h
242 14-09-2020 01:00:00 13.59167 C 10.02 g/m*3 13.59 C 0 km/h
243 14-09-2020 02:00:00 12.875 C 9.83 g/m*3 12.88 C 0 km/h
244 14-09-2020 03:00:00 12.33333 C 9.69 g/m*3 12.33 C 0 km/h
245 14-09-2020 04:00:00 11.64167 C 9.45 g/m*3 11.64 C 0 km/h
246 14-09-2020 05:00:00 11.25833 C 9.33 g/m*3 11.26 C 0 km/h
247 14-09-2020 06:00:00 10.83333 C 9.15 g/m*3 10.83 C 0 km/h
248 14-09-2020 07:00:00 10.725 C 9.19 g/m*3 10.73 C 0 km/h
249 14-09-2020 08:00:00 11.15833 C 9.54 g/m*3 11.16 C 0 km/h
250 14-09-2020 09:00:00 12.125 C 10.2 g/m*3 12.13 C 0 km/h
Sensor: Nr:Datum:Temp:Abs-Feuchte:Windchill:Wind:
Aussen-T/F 251 14-09-2020 10:00:00 13.875 C 11.28 g/m*3 13.88 C 0 km/h
252 14-09-2020 11:00:00 17.325 C 12.59 g/m*3 17.33 C 0 km/h
253 14-09-2020 12:00:00 21.75833 C 13.7 g/m*3 21.76 C 1.075 km/h
254 14-09-2020 13:00:00 25.95833 C 13.95 g/m*3 25.96 C 3.33333 km/h
255 14-09-2020 14:00:00 28.11667 C 13.34 g/m*3 28.12 C 4.01667 km/h
256 14-09-2020 15:00:00 29.625 C 11.66 g/m*3 29.63 C 7.11667 km/h
257 14-09-2020 16:00:00 29.875 C 12.2 g/m*3 29.88 C 4.675 km/h
258 14-09-2020 17:00:00 29.775 C 14.18 g/m*3 29.78 C 1.46667 km/h
259 14-09-2020 18:00:00 30.61667 C 13.35 g/m*3 30.62 C 3.06667 km/h
260 14-09-2020 19:00:00 25.86667 C 11.8 g/m*3 25.87 C 7.39167 km/h
261 14-09-2020 20:00:00 22.39167 C 11.7 g/m*3 22.39 C 2.54167 km/h
262 14-09-2020 21:00:00 19.975 C 12.17 g/m*3 19.98 C 0 km/h
263 14-09-2020 22:00:00 18.525 C 11.98 g/m*3 18.52 C 0 km/h
264 14-09-2020 23:00:00 17.08333 C 11.72 g/m*3 17.08 C 0 km/h
265 15-09-2020 00:00:00 16.23333 C 11.47 g/m*3 16.23 C 0 km/h
266 15-09-2020 01:00:00 15.45833 C 11.28 g/m*3 15.46 C 0 km/h
267 15-09-2020 02:00:00 14.9 C 11.08 g/m*3 14.9 C 0 km/h
268 15-09-2020 03:00:00 14.15833 C 10.84 g/m*3 14.16 C 0 km/h
269 15-09-2020 04:00:00 13.54167 C 10.59 g/m*3 13.54 C 0 km/h
270 15-09-2020 05:00:00 13.10833 C 10.5 g/m*3 13.11 C 0 km/h
271 15-09-2020 06:00:00 12.50833 C 10.19 g/m*3 12.51 C 0 km/h
272 15-09-2020 07:00:00 12.2 C 10.11 g/m*3 12.2 C 0 km/h
273 15-09-2020 08:00:00 12.53333 C 10.43 g/m*3 12.53 C 0 km/h
274 15-09-2020 09:00:00 13.69167 C 11.29 g/m*3 13.69 C 0 km/h
275 15-09-2020 10:00:00 15.39167 C 12.46 g/m*3 15.39 C 0 km/h
Sensor: Nr:Datum:Temp:Abs-Feuchte:Windchill:Wind:
Aussen-T/F 276 15-09-2020 11:00:00 18.00833 C 13.23 g/m*3 18.01 C 0 km/h
277 15-09-2020 12:00:00 21.76667 C 14.25 g/m*3 21.77 C 0 km/h
278 15-09-2020 13:00:00 25.79167 C 13.96 g/m*3 25.79 C 1.6 km/h
279 15-09-2020 14:00:00 29.24167 C 12.37 g/m*3 29.24 C 4.13333 km/h
280 15-09-2020 15:00:00 30.65833 C 10.87 g/m*3 30.66 C 5.225 km/h
281 15-09-2020 16:00:00 31.5 C 9.92 g/m*3 31.5 C 4.93333 km/h
282 15-09-2020 17:00:00 33.19167 C 10.43 g/m*3 33.19 C 4.53333 km/h
283 15-09-2020 18:00:00 31.875 C 12.58 g/m*3 31.88 C 3.73333 km/h
284 15-09-2020 19:00:00 27.65833 C 11.92 g/m*3 27.66 C 3.33333 km/h
285 15-09-2020 20:00:00 24.3 C 11.82 g/m*3 24.3 C 4.4 km/h
286 15-09-2020 21:00:00 22.05833 C 12.2 g/m*3 22.06 C 0.13333 km/h
287 15-09-2020 22:00:00 20.48333 C 12.41 g/m*3 20.48 C 0 km/h
288 15-09-2020 23:00:00 18.90833 C 12.33 g/m*3 18.91 C 0 km/h
289 16-09-2020 00:00:00 18.13333 C 12.04 g/m*3 18.13 C 0 km/h
290 16-09-2020 01:00:00 17.29167 C 11.8 g/m*3 17.29 C 0 km/h
291 16-09-2020 02:00:00 16.225 C 11.64 g/m*3 16.23 C 0 km/h
292 16-09-2020 03:00:00 15.49167 C 11.43 g/m*3 15.49 C 0 km/h
293 16-09-2020 04:00:00 14.95 C 11.31 g/m*3 14.95 C 0 km/h
294 16-09-2020 05:00:00 14.5 C 11.19 g/m*3 14.5 C 0.4 km/h
295 16-09-2020 06:00:00 14.25833 C 11.14 g/m*3 14.26 C 0 km/h
296 16-09-2020 07:00:00 14.1 C 11.15 g/m*3 14.1 C 0.26667 km/h
297 16-09-2020 08:00:00 14.51667 C 11.45 g/m*3 14.52 C 0 km/h
298 16-09-2020 09:00:00 15.54167 C 12.13 g/m*3 15.54 C 0 km/h
299 16-09-2020 10:00:00 18.19167 C 13.13 g/m*3 18.19 C 0.26667 km/h
300 16-09-2020 11:00:00 20.775 C 13.49 g/m*3 20.78 C 0.13333 km/h
Sensor: Nr:Datum:Temp:Abs-Feuchte:Windchill:Wind:
Aussen-T/F 301 16-09-2020 12:00:00 23.24167 C 14 g/m*3 23.24 C 0 km/h
302 16-09-2020 13:00:00 24.46667 C 14.33 g/m*3 24.47 C 0.13333 km/h
303 16-09-2020 14:00:00 26.5 C 14.56 g/m*3 26.5 C 1.6 km/h
304 16-09-2020 15:00:00 28.38333 C 14.58 g/m*3 28.38 C 1.46667 km/h
305 16-09-2020 16:00:00 30.15 C 12.08 g/m*3 30.15 C 12.35833 km/h
306 16-09-2020 17:00:00 28.55833 C 14.56 g/m*3 28.56 C 13.96667 km/h
307 16-09-2020 18:00:00 26.775 C 15.19 g/m*3 26.78 C 13.56667 km/h
308 16-09-2020 19:00:00 25.28333 C 15.03 g/m*3 25.28 C 5.63333 km/h
309 16-09-2020 20:00:00 22.91667 C 14.49 g/m*3 22.92 C 2.53333 km/h
310 16-09-2020 21:00:00 22.29167 C 14.31 g/m*3 22.29 C 4.69167 km/h
311 16-09-2020 22:00:00 22.30833 C 14.01 g/m*3 22.31 C 7.66667 km/h
312 16-09-2020 23:00:00 21.24167 C 13.41 g/m*3 21.24 C 3.75 km/h
313 17-09-2020 00:00:00 20.75 C 13.12 g/m*3 20.75 C 8.05833 km/h
314 17-09-2020 01:00:00 20.09167 C 12.51 g/m*3 20.09 C 6.71667 km/h
315 17-09-2020 02:00:00 18.75 C 12.07 g/m*3 18.75 C 5.23333 km/h
316 17-09-2020 03:00:00 17.31667 C 11.82 g/m*3 17.32 C 2.8 km/h
317 17-09-2020 04:00:00 17.36667 C 11.98 g/m*3 17.37 C 8.74167 km/h
318 17-09-2020 05:00:00 17.125 C 11.71 g/m*3 17.13 C 7.375 km/h
319 17-09-2020 06:00:00 16.86667 C 11.44 g/m*3 16.87 C 6.15833 km/h
320 17-09-2020 07:00:00 16.63333 C 11.36 g/m*3 16.63 C 5.89167 km/h
321 17-09-2020 08:00:00 16.08333 C 10.89 g/m*3 16.08 C 9.425 km/h
322 17-09-2020 09:00:00 15.66667 C 10.46 g/m*3 15.67 C 8.06667 km/h
323 17-09-2020 10:00:00 16.05 C 9.52 g/m*3 16.05 C 6.71667 km/h
324 17-09-2020 11:00:00 16.4 C 9.11 g/m*3 16.4 C 10.48333 km/h
325 17-09-2020 12:00:00 17.575 C 9.16 g/m*3 17.58 C 12.76667 km/h
Sensor: Nr:Datum:Temp:Abs-Feuchte:Windchill:Wind:
Aussen-T/F 326 17-09-2020 13:00:00 18.81667 C 8.75 g/m*3 18.82 C 14.23333 km/h
327 17-09-2020 14:00:00 20.15833 C 7.94 g/m*3 20.16 C 13.29167 km/h
328 17-09-2020 15:00:00 20.91667 C 7.64 g/m*3 20.92 C 12.5 km/h
329 17-09-2020 16:00:00 21.61667 C 7.28 g/m*3 21.62 C 14.63333 km/h
330 17-09-2020 17:00:00 22.10833 C 7.36 g/m*3 22.11 C 15.3 km/h
331 17-09-2020 18:00:00 21.83333 C 7.63 g/m*3 21.83 C 10.33333 km/h
332 17-09-2020 19:00:00 19.575 C 8.01 g/m*3 19.58 C 2.40833 km/h
333 17-09-2020 20:00:00 15.91667 C 8.08 g/m*3 15.92 C 1.34167 km/h
334 17-09-2020 21:00:00 14.69167 C 8.1 g/m*3 14.69 C 1.6 km/h
335 17-09-2020 22:00:00 14.66667 C 8.24 g/m*3 14.67 C 2.00833 km/h
336 17-09-2020 23:00:00 13.575 C 8.15 g/m*3 13.58 C 1.475 km/h
337 18-09-2020 00:00:00 12.5 C 8.11 g/m*3 12.5 C 0.53333 km/h
338 18-09-2020 01:00:00 12.25833 C 8.1 g/m*3 12.26 C 2.41667 km/h
339 18-09-2020 02:00:00 12.55833 C 7.99 g/m*3 12.56 C 3.46667 km/h
340 18-09-2020 03:00:00 10.925 C 7.75 g/m*3 10.93 C 3.46667 km/h
341 18-09-2020 04:00:00 10.14167 C 7.61 g/m*3 10.14 C 4.13333 km/h
342 18-09-2020 05:00:00 9.55833 C 7.49 g/m*3 9.56 C 1.33333 km/h
343 18-09-2020 06:00:00 9.28333 C 7.45 g/m*3 9.28 C 0.53333 km/h
344 18-09-2020 07:00:00 9.18333 C 7.51 g/m*3 9.18 C 1.86667 km/h
345 18-09-2020 08:00:00 10.18333 C 7.93 g/m*3 10.18 C 0 km/h
346 18-09-2020 09:00:00 11.2 C 8.2 g/m*3 11.2 C 1.86667 km/h
347 18-09-2020 10:00:00 13.375 C 8.41 g/m*3 13.38 C 5.21667 km/h
348 18-09-2020 11:00:00 16.19167 C 8.82 g/m*3 16.19 C 8.33333 km/h
349 18-09-2020 12:00:00 18.7 C 9.38 g/m*3 18.7 C 8.6 km/h
350 18-09-2020 13:00:00 21.04167 C 10.18 g/m*3 21.04 C 12.36667 km/h
Sensor: Nr:Datum:Temp:Abs-Feuchte:Windchill:Wind:
Aussen-T/F 351 18-09-2020 14:00:00 22.58333 C 10.24 g/m*3 22.58 C 13.83333 km/h
352 18-09-2020 15:00:00 23.04167 C 9.98 g/m*3 23.04 C 13.83333 km/h
353 18-09-2020 16:00:00 23.66667 C 9.91 g/m*3 23.67 C 12.1 km/h
354 18-09-2020 17:00:00 24.73333 C 9.77 g/m*3 24.73 C 8.46667 km/h
355 18-09-2020 18:00:00 24.55 C 9.5 g/m*3 24.55 C 6.58333 km/h
356 18-09-2020 19:00:00 21.19167 C 9.55 g/m*3 21.19 C 4.40833 km/h
357 18-09-2020 20:00:00 16.91667 C 9.06 g/m*3 16.92 C 3.86667 km/h
358 18-09-2020 21:00:00 15.46667 C 8.63 g/m*3 15.47 C 5.06667 km/h
359 18-09-2020 22:00:00 14.61667 C 8.02 g/m*3 14.62 C 0.66667 km/h
360 18-09-2020 23:00:00 14.05833 C 7.91 g/m*3 14.06 C 2.8 km/h
361 19-09-2020 00:00:00 13.54167 C 7.74 g/m*3 13.54 C 2.53333 km/h
362 19-09-2020 01:00:00 12.625 C 7.61 g/m*3 12.63 C 4 km/h
363 19-09-2020 02:00:00 11.63333 C 7.47 g/m*3 11.63 C 1.6 km/h
364 19-09-2020 03:00:00 10.375 C 7.31 g/m*3 10.38 C 0.93333 km/h
365 19-09-2020 04:00:00 9.625 C 7.21 g/m*3 9.63 C 0 km/h
366 19-09-2020 05:00:00 8.825 C 7.08 g/m*3 8.82 C 0 km/h
367 19-09-2020 06:00:00 8.175 C 7.04 g/m*3 8.18 C 0 km/h
368 19-09-2020 07:00:00 7.68333 C 7.04 g/m*3 7.68 C 0 km/h
369 19-09-2020 08:00:00 7.94167 C 7.32 g/m*3 7.94 C 0 km/h
370 19-09-2020 09:00:00 8.91667 C 7.76 g/m*3 8.92 C 0 km/h
371 19-09-2020 10:00:00 11.41667 C 8.33 g/m*3 11.42 C 0.8 km/h
372 19-09-2020 11:00:00 15.09167 C 8.6 g/m*3 15.09 C 2.53333 km/h
373 19-09-2020 12:00:00 19.15 C 8.7 g/m*3 19.15 C 7.93333 km/h
374 19-09-2020 13:00:00 21.125 C 8.61 g/m*3 21.13 C 6.16667 km/h
375 19-09-2020 14:00:00 23.24167 C 8.63 g/m*3 23.24 C 8.46667 km/h
Sensor: Nr:Datum:Temp:Abs-Feuchte:Windchill:Wind:
Aussen-T/F 376 19-09-2020 15:00:00 24.33333 C 8.48 g/m*3 24.33 C 8.31667 km/h
377 19-09-2020 16:00:00 25.29167 C 8.19 g/m*3 25.29 C 9.41667 km/h
378 19-09-2020 17:00:00 26.2 C 8.17 g/m*3 26.2 C 8.34167 km/h
379 19-09-2020 18:00:00 26.39167 C 8.38 g/m*3 26.39 C 3.2 km/h
380 19-09-2020 19:00:00 21.7 C 8.12 g/m*3 21.7 C 2.13333 km/h
381 19-09-2020 20:00:00 17.99167 C 7.84 g/m*3 17.99 C 4.4 km/h
382 19-09-2020 21:00:00 16.35833 C 7.92 g/m*3 16.36 C 4.93333 km/h
383 19-09-2020 22:00:00 15.54167 C 8.16 g/m*3 15.54 C 1.86667 km/h
384 19-09-2020 23:00:00 14.425 C 8.17 g/m*3 14.43 C 0 km/h
385 20-09-2020 00:00:00 13.7 C 8.25 g/m*3 13.7 C 0.13333 km/h
386 20-09-2020 01:00:00 12.70833 C 8.27 g/m*3 12.71 C 0 km/h
387 20-09-2020 02:00:00 11.76667 C 7.98 g/m*3 11.77 C 0 km/h
388 20-09-2020 03:00:00 10.6 C 7.73 g/m*3 10.6 C 0 km/h
389 20-09-2020 04:00:00 9.84167 C 7.5 g/m*3 9.84 C 0 km/h
390 20-09-2020 05:00:00 9.49167 C 7.6 g/m*3 9.49 C 0 km/h
391 20-09-2020 06:00:00 8.96667 C 7.46 g/m*3 8.97 C 0 km/h
392 20-09-2020 07:00:00 8.3 C 7.32 g/m*3 8.3 C 0 km/h
393 20-09-2020 08:00:00 8.71667 C 7.73 g/m*3 8.72 C 0 km/h
394 20-09-2020 09:00:00 9.625 C 8.21 g/m*3 9.63 C 0 km/h
395 20-09-2020 10:00:00 11.55833 C 9 g/m*3 11.56 C 0 km/h
396 20-09-2020 11:00:00 14.05833 C 9.46 g/m*3 14.06 C 0 km/h
397 20-09-2020 12:00:00 18.15833 C 9.75 g/m*3 18.16 C 1.06667 km/h
398 20-09-2020 13:00:00 21.14167 C 9.27 g/m*3 21.14 C 4.53333 km/h
399 20-09-2020 14:00:00 22.81667 C 8.88 g/m*3 22.82 C 3.6 km/h
400 20-09-2020 15:00:00 22.975 C 9.78 g/m*3 22.98 C 1.33333 km/h
Sensor: Nr:Datum:Temp:Abs-Feuchte:Windchill:Wind:
Aussen-T/F 401 20-09-2020 16:00:00 22.65 C 9.75 g/m*3 22.65 C 1.06667 km/h
402 20-09-2020 17:00:00 23.95833 C 9.93 g/m*3 23.96 C 1.86667 km/h
403 20-09-2020 18:00:00 21.43333 C 9.47 g/m*3 21.43 C 5.06667 km/h
404 20-09-2020 19:00:00 18.625 C 8.91 g/m*3 18.63 C 3.6 km/h
405 20-09-2020 20:00:00 15.78333 C 8.29 g/m*3 15.78 C 1.33333 km/h
406 20-09-2020 21:00:00 14.3 C 8.13 g/m*3 14.3 C 0 km/h
407 20-09-2020 22:00:00 13.075 C 8.3 g/m*3 13.08 C 0 km/h
408 20-09-2020 23:00:00 11.68333 C 8.05 g/m*3 11.68 C 0 km/h
409 21-09-2020 00:00:00 10.94167 C 7.88 g/m*3 10.94 C 0 km/h
410 21-09-2020 01:00:00 10.25833 C 7.8 g/m*3 10.26 C 0 km/h
411 21-09-2020 02:00:00 9.54167 C 7.67 g/m*3 9.54 C 0 km/h
412 21-09-2020 03:00:00 9.03333 C 7.62 g/m*3 9.03 C 0 km/h
413 21-09-2020 04:00:00 8.55 C 7.54 g/m*3 8.55 C 0 km/h
414 21-09-2020 05:00:00 8.15 C 7.44 g/m*3 8.15 C 0 km/h
415 21-09-2020 06:00:00 7.79167 C 7.35 g/m*3 7.79 C 0 km/h
416 21-09-2020 07:00:00 7.34167 C 7.22 g/m*3 7.34 C 0 km/h
417 21-09-2020 08:00:00 7.525 C 7.4 g/m*3 7.53 C 0 km/h
418 21-09-2020 09:00:00 8.475 C 7.84 g/m*3 8.48 C 0 km/h
419 21-09-2020 10:00:00 10.075 C 8.54 g/m*3 10.07 C 0 km/h
420 21-09-2020 11:00:00 13.05833 C 9.27 g/m*3 13.06 C 0 km/h
421 21-09-2020 12:00:00 17.375 C 10.1 g/m*3 17.38 C 0 km/h
422 21-09-2020 13:00:00 20.58333 C 9.88 g/m*3 20.58 C 1.73333 km/h
423 21-09-2020 14:00:00 23.44167 C 9.01 g/m*3 23.44 C 7.78333 km/h
424 21-09-2020 15:00:00 24.26667 C 8.56 g/m*3 24.27 C 5.21667 km/h
425 21-09-2020 16:00:00 24.63333 C 8.44 g/m*3 24.63 C 5.9 km/h
Sensor: Nr:Datum:Temp:Abs-Feuchte:Windchill:Wind:
Aussen-T/F 426 21-09-2020 17:00:00 26.25833 C 8.64 g/m*3 26.26 C 2.93333 km/h
427 21-09-2020 18:00:00 25.7 C 9.36 g/m*3 25.7 C 3.06667 km/h
428 21-09-2020 19:00:00 21.13333 C 8.71 g/m*3 21.13 C 5.73333 km/h
429 21-09-2020 20:00:00 17.55833 C 8.53 g/m*3 17.56 C 0.93333 km/h
430 21-09-2020 21:00:00 15.46667 C 8.53 g/m*3 15.47 C 0 km/h
431 21-09-2020 22:00:00 13.98333 C 8.46 g/m*3 13.98 C 0 km/h
432 21-09-2020 23:00:00 12.9 C 8.51 g/m*3 12.9 C 0 km/h
433 22-09-2020 00:00:00 11.80833 C 8.37 g/m*3 11.81 C 0 km/h
434 22-09-2020 01:00:00 11.33333 C 8.3 g/m*3 11.33 C 0 km/h
435 22-09-2020 02:00:00 10.66667 C 8.11 g/m*3 10.67 C 0 km/h
436 22-09-2020 03:00:00 9.80833 C 7.97 g/m*3 9.81 C 0 km/h
437 22-09-2020 04:00:00 9.34167 C 7.89 g/m*3 9.34 C 0 km/h
438 22-09-2020 05:00:00 8.98333 C 7.85 g/m*3 8.98 C 0 km/h
439 22-09-2020 06:00:00 8.51667 C 7.72 g/m*3 8.52 C 0 km/h
440 22-09-2020 07:00:00 8.2 C 7.65 g/m*3 8.2 C 0 km/h
441 22-09-2020 08:00:00 8.54167 C 7.93 g/m*3 8.54 C 0 km/h
442 22-09-2020 09:00:00 9.45833 C 8.44 g/m*3 9.46 C 0 km/h
443 22-09-2020 10:00:00 11.10833 C 9.2 g/m*3 11.11 C 0 km/h
444 22-09-2020 11:00:00 14.18333 C 10.12 g/m*3 14.18 C 0 km/h
445 22-09-2020 12:00:00 18.30833 C 11.09 g/m*3 18.31 C 0.13333 km/h
446 22-09-2020 13:00:00 22.025 C 10.46 g/m*3 22.03 C 4.29167 km/h
447 22-09-2020 14:00:00 25.39167 C 9.49 g/m*3 25.39 C 11.15833 km/h
448 22-09-2020 15:00:00 26.09167 C 9.07 g/m*3 26.09 C 11.025 km/h
449 22-09-2020 16:00:00 26.51667 C 8.75 g/m*3 26.52 C 11.3 km/h
450 22-09-2020 17:00:00 27.45833 C 9.39 g/m*3 27.46 C 8.85833 km/h
Sensor: Nr:Datum:Temp:Abs-Feuchte:Windchill:Wind:
Aussen-T/F 451 22-09-2020 18:00:00 27.34167 C 10.25 g/m*3 27.34 C 4.54167 km/h
452 22-09-2020 19:00:00 22.64167 C 10.15 g/m*3 22.64 C 6.14167 km/h
453 22-09-2020 20:00:00 19.275 C 9.9 g/m*3 19.27 C 4.26667 km/h
454 22-09-2020 21:00:00 17.68333 C 9.7 g/m*3 17.68 C 0.66667 km/h
455 22-09-2020 22:00:00 16.43333 C 9.49 g/m*3 16.43 C 0.66667 km/h
456 22-09-2020 23:00:00 15.40833 C 9.31 g/m*3 15.41 C 0.66667 km/h
457 23-09-2020 00:00:00 14.45833 C 9.15 g/m*3 14.46 C 0.13333 km/h
458 23-09-2020 01:00:00 14.04167 C 9.23 g/m*3 14.04 C 0.53333 km/h
459 23-09-2020 02:00:00 14.49167 C 9.4 g/m*3 14.49 C 0.93333 km/h
460 23-09-2020 03:00:00 13.925 C 9.36 g/m*3 13.93 C 0 km/h
461 23-09-2020 04:00:00 14.06667 C 9.45 g/m*3 14.07 C 0 km/h
462 23-09-2020 05:00:00 12.775 C 8.94 g/m*3 12.78 C 0.13333 km/h
463 23-09-2020 06:00:00 12.125 C 8.85 g/m*3 12.13 C 0.4 km/h
464 23-09-2020 07:00:00 13.225 C 9.12 g/m*3 13.23 C 1.46667 km/h
465 23-09-2020 08:00:00 14.025 C 9.27 g/m*3 14.03 C 1.33333 km/h
466 23-09-2020 09:00:00 14.29167 C 9.33 g/m*3 14.29 C 3.89167 km/h
467 23-09-2020 10:00:00 17.35833 C 9.01 g/m*3 17.36 C 11.16667 km/h
468 23-09-2020 11:00:00 19.13333 C 9.62 g/m*3 19.13 C 10.35833 km/h
469 23-09-2020 12:00:00 20.29167 C 10.55 g/m*3 20.29 C 14.1 km/h
470 23-09-2020 13:00:00 21.65 C 10.84 g/m*3 21.65 C 11.41667 km/h
471 23-09-2020 14:00:00 23.03333 C 11.07 g/m*3 23.03 C 12.1 km/h
472 23-09-2020 15:00:00 23.40833 C 11.2 g/m*3 23.41 C 11.56667 km/h
473 23-09-2020 16:00:00 23.63333 C 11.24 g/m*3 23.63 C 11.29167 km/h
474 23-09-2020 17:00:00 23.78333 C 11.28 g/m*3 23.78 C 9.93333 km/h
475 23-09-2020 18:00:00 22.60833 C 11.1 g/m*3 22.61 C 5.225 km/h
Sensor: Nr:Datum:Temp:Abs-Feuchte:Windchill:Wind:
Aussen-T/F 476 23-09-2020 19:00:00 19.48333 C 11.16 g/m*3 19.48 C 1.46667 km/h
477 23-09-2020 20:00:00 17.35833 C 11.11 g/m*3 17.36 C 1.33333 km/h
478 23-09-2020 21:00:00 17.51667 C 11.47 g/m*3 17.52 C 2.54167 km/h
479 23-09-2020 22:00:00 17.64167 C 11.64 g/m*3 17.64 C 0.53333 km/h
480 23-09-2020 23:00:00 17.50833 C 11.75 g/m*3 17.51 C 1.6 km/h
481 24-09-2020 00:00:00 17.73333 C 11.75 g/m*3 17.73 C 4.15833 km/h
482 24-09-2020 01:00:00 18.28333 C 11.99 g/m*3 18.28 C 4.825 km/h
483 24-09-2020 02:00:00 17.56667 C 12.81 g/m*3 17.57 C 4.825 km/h
484 24-09-2020 03:00:00 16.18333 C 12.66 g/m*3 16.18 C 1.2 km/h
485 24-09-2020 04:00:00 16.03333 C 12.81 g/m*3 16.03 C 1.86667 km/h
486 24-09-2020 05:00:00 15.95 C 12.75 g/m*3 15.95 C 6.975 km/h
487 24-09-2020 06:00:00 14.54167 C 10.71 g/m*3 14.54 C 10.08333 km/h
488 24-09-2020 07:00:00 12.025 C 9.55 g/m*3 12.03 C 6.56667 km/h
489 24-09-2020 08:00:00 12.25 C 9.62 g/m*3 12.25 C 8.05833 km/h
490 24-09-2020 09:00:00 12.63333 C 9.51 g/m*3 12.63 C 10.88333 km/h
491 24-09-2020 10:00:00 13.7 C 9.32 g/m*3 13.7 C 12.23333 km/h
492 24-09-2020 11:00:00 14.74167 C 9.1 g/m*3 14.74 C 12.63333 km/h
493 24-09-2020 12:00:00 16.88333 C 9.21 g/m*3 16.88 C 11.16667 km/h
494 24-09-2020 13:00:00 17.73333 C 9.06 g/m*3 17.73 C 15.16667 km/h
495 24-09-2020 14:00:00 18.99167 C 9.08 g/m*3 18.99 C 14.36667 km/h
496 24-09-2020 15:00:00 19.575 C 9.29 g/m*3 19.58 C 9.80833 km/h
497 24-09-2020 16:00:00 19.71667 C 9.49 g/m*3 19.72 C 7.25833 km/h
498 24-09-2020 17:00:00 19.775 C 9.88 g/m*3 19.77 C 4.53333 km/h
499 24-09-2020 18:00:00 18.85833 C 10.63 g/m*3 18.86 C 2.14167 km/h
500 24-09-2020 19:00:00 17.05 C 11.02 g/m*3 17.05 C 2.26667 km/h
Sensor: Nr:Datum:Temp:Abs-Feuchte:Windchill:Wind:
Aussen-T/F 501 24-09-2020 20:00:00 16.075 C 10.86 g/m*3 16.08 C 2.26667 km/h
502 24-09-2020 21:00:00 15.05 C 10.64 g/m*3 15.05 C 1.2 km/h
503 24-09-2020 22:00:00 14.40833 C 10.66 g/m*3 14.41 C 0.93333 km/h
504 24-09-2020 23:00:00 13.76667 C 10.49 g/m*3 13.77 C 0.93333 km/h
505 25-09-2020 00:00:00 13.675 C 10.62 g/m*3 13.68 C 0.13333 km/h
506 25-09-2020 01:00:00 13.925 C 10.79 g/m*3 13.93 C 0.93333 km/h
507 25-09-2020 02:00:00 13.73333 C 10.52 g/m*3 13.73 C 10.05 km/h
508 25-09-2020 03:00:00 12.15 C 9.83 g/m*3 12.15 C 8.59167 km/h
509 25-09-2020 04:00:00 11.275 C 9.42 g/m*3 11.28 C 3.46667 km/h
510 25-09-2020 05:00:00 10.76667 C 9.2 g/m*3 10.77 C 4.40833 km/h
511 25-09-2020 06:00:00 10.50833 C 8.98 g/m*3 10.16 C 5.61667 km/h
512 25-09-2020 07:00:00 9.875 C 8.53 g/m*3 9.88 C 4.55833 km/h
513 25-09-2020 08:00:00 9.525 C 8.33 g/m*3 9.53 C 2.40833 km/h
514 25-09-2020 09:00:00 10.25833 C 8.22 g/m*3 10.26 C 2.8 km/h
515 25-09-2020 10:00:00 11.35 C 8.39 g/m*3 11.35 C 3.875 km/h
516 25-09-2020 11:00:00 12.40833 C 8.49 g/m*3 12.41 C 8.6 km/h
517 25-09-2020 12:00:00 13.21667 C 8.35 g/m*3 13.22 C 11.96667 km/h
518 25-09-2020 13:00:00 13.54167 C 8.25 g/m*3 13.54 C 10.88333 km/h
519 25-09-2020 14:00:00 13.03333 C 8.97 g/m*3 13.03 C 3.61667 km/h
520 25-09-2020 15:00:00 13.65 C 9.26 g/m*3 13.65 C 3.6 km/h
521 25-09-2020 16:00:00 14.23333 C 9.1 g/m*3 14.23 C 7.125 km/h
522 25-09-2020 17:00:00 14.25 C 8.79 g/m*3 14.25 C 7.525 km/h
523 25-09-2020 18:00:00 12.89167 C 8.7 g/m*3 12.89 C 9.93333 km/h
524 25-09-2020 19:00:00 11.88333 C 8.54 g/m*3 11.88 C 6.3 km/h
525 25-09-2020 20:00:00 11.75833 C 8.49 g/m*3 11.76 C 6.7 km/h
Sensor: Nr:Datum:Temp:Abs-Feuchte:Windchill:Wind:
Aussen-T/F 526 25-09-2020 21:00:00 11.53333 C 8.06 g/m*3 11.53 C 7.50833 km/h
527 25-09-2020 22:00:00 11.425 C 8.07 g/m*3 11.43 C 8.74167 km/h
528 25-09-2020 23:00:00 11.20833 C 8.14 g/m*3 11.21 C 10.35833 km/h
529 26-09-2020 00:00:00 10.7 C 8.06 g/m*3 8.94 C 13.7 km/h
530 26-09-2020 01:00:00 10.61667 C 7.93 g/m*3 9.05 C 12.1 km/h
531 26-09-2020 02:00:00 10.5 C 7.9 g/m*3 9.04 C 11.15833 km/h
532 26-09-2020 03:00:00 10.05 C 7.82 g/m*3 7.8 C 16.5 km/h
533 26-09-2020 04:00:00 9.81667 C 7.59 g/m*3 7.28 C 18.63333 km/h
534 26-09-2020 05:00:00 9.73333 C 7.39 g/m*3 7.07 C 19.7 km/h
535 26-09-2020 06:00:00 9.65833 C 7.53 g/m*3 6.92 C 20.23333 km/h
536 26-09-2020 07:00:00 9.425 C 7.79 g/m*3 7.37 C 13.7 km/h
537 26-09-2020 08:00:00 9.31667 C 8.14 g/m*3 7.78 C 10.20833 km/h
538 26-09-2020 09:00:00 9.9 C 8.56 g/m*3 8.79 C 8.46667 km/h
539 26-09-2020 10:00:00 10.91667 C 8.9 g/m*3 9.85 C 9.275 km/h
540 26-09-2020 11:00:00 11.58333 C 9.14 g/m*3 11.58 C 7.38333 km/h
541 26-09-2020 12:00:00 12.04167 C 9.06 g/m*3 12.04 C 11.55 km/h
542 26-09-2020 13:00:00 11.48333 C 9.45 g/m*3 11.48 C 5.35833 km/h
543 26-09-2020 14:00:00 11.69167 C 9.47 g/m*3 11.69 C 10.74167 km/h
544 26-09-2020 15:00:00 11.375 C 9.32 g/m*3 11.38 C 11.69167 km/h
545 26-09-2020 16:00:00 10.94167 C 9.01 g/m*3 9.5 C 11.68333 km/h
546 26-09-2020 17:00:00 10.9 C 8.97 g/m*3 9.85 C 9.15833 km/h
547 26-09-2020 18:00:00 10.81667 C 9.08 g/m*3 10.55 C 5.48333 km/h
548 26-09-2020 19:00:00 10.68333 C 9.04 g/m*3 10.68 C 4.95833 km/h
549 26-09-2020 20:00:00 10.36667 C 8.98 g/m*3 10.37 C 4.54167 km/h
550 26-09-2020 21:00:00 10.2 C 8.99 g/m*3 10.2 C 2.26667 km/h
Sensor: Nr:Datum:Temp:Abs-Feuchte:Windchill:Wind:
Aussen-T/F 551 26-09-2020 22:00:00 10.075 C 8.97 g/m*3 10.07 C 2.275 km/h
552 26-09-2020 23:00:00 9.85 C 8.84 g/m*3 9.85 C 3.2 km/h
553 27-09-2020 00:00:00 9.375 C 8.58 g/m*3 9.38 C 4.66667 km/h
554 27-09-2020 01:00:00 8.88333 C 8.35 g/m*3 7.77 C 7.65 km/h
555 27-09-2020 02:00:00 8.91667 C 8.42 g/m*3 7.55 C 8.85833 km/h
556 27-09-2020 03:00:00 9.325 C 8.64 g/m*3 8.92 C 5.225 km/h
557 27-09-2020 04:00:00 9.50833 C 8.74 g/m*3 9.51 C 1.74167 km/h
558 27-09-2020 05:00:00 9.6 C 8.79 g/m*3 9.6 C 0.8 km/h
559 27-09-2020 06:00:00 9.6 C 8.79 g/m*3 9.6 C 0.26667 km/h
560 27-09-2020 07:00:00 9.6 C 8.79 g/m*3 9.6 C 0.26667 km/h
561 27-09-2020 08:00:00 9.8 C 8.96 g/m*3 9.8 C 1.46667 km/h
562 27-09-2020 09:00:00 10.59167 C 9.43 g/m*3 10.59 C 2.13333 km/h
563 27-09-2020 10:00:00 11.24167 C 9.75 g/m*3 11.24 C 2 km/h
564 27-09-2020 11:00:00 12.025 C 9.89 g/m*3 12.03 C 5.075 km/h
565 27-09-2020 12:00:00 12.61667 C 9.85 g/m*3 12.62 C 5.48333 km/h
566 27-09-2020 13:00:00 13.30833 C 10 g/m*3 13.31 C 6.71667 km/h
567 27-09-2020 14:00:00 13.69167 C 9.59 g/m*3 13.69 C 6.41667 km/h
568 27-09-2020 15:00:00 13.39167 C 9.35 g/m*3 13.39 C 3.2 km/h
569 27-09-2020 16:00:00 13.13333 C 9.5 g/m*3 13.13 C 1.6 km/h
570 27-09-2020 17:00:00 13.1 C 9.8 g/m*3 13.1 C 0 km/h
571 27-09-2020 18:00:00 12.39167 C 9.7 g/m*3 12.39 C 2.13333 km/h
572 27-09-2020 19:00:00 11.33333 C 9.22 g/m*3 11.33 C 2.4 km/h
573 27-09-2020 20:00:00 10.89167 C 9.12 g/m*3 10.89 C 2 km/h
574 27-09-2020 21:00:00 10.74167 C 9.14 g/m*3 10.74 C 1.46667 km/h
575 27-09-2020 22:00:00 10.65833 C 9.11 g/m*3 10.66 C 0.26667 km/h
Sensor: Nr:Datum:Temp:Abs-Feuchte:Windchill:Wind:
Aussen-T/F 576 27-09-2020 23:00:00 10.44167 C 9.06 g/m*3 10.44 C 1.46667 km/h
577 28-09-2020 00:00:00 10.40833 C 9.06 g/m*3 10.41 C 1.33333 km/h
578 28-09-2020 01:00:00 10.5 C 9.12 g/m*3 10.5 C 0.66667 km/h
579 28-09-2020 02:00:00 10.39167 C 9.05 g/m*3 10.39 C 1.33333 km/h
580 28-09-2020 03:00:00 10.20833 C 8.97 g/m*3 10.21 C 0 km/h
581 28-09-2020 04:00:00 10.15833 C 8.98 g/m*3 10.16 C 0.4 km/h
582 28-09-2020 05:00:00 10.11667 C 8.94 g/m*3 10.12 C 0.4 km/h
583 28-09-2020 06:00:00 10.125 C 8.93 g/m*3 10.13 C 0.66667 km/h
584 28-09-2020 07:00:00 10.075 C 8.86 g/m*3 10.07 C 0.26667 km/h
585 28-09-2020 08:00:00 10.29167 C 9 g/m*3 10.29 C 0 km/h
586 28-09-2020 09:00:00 10.79167 C 9.07 g/m*3 10.79 C 0.4 km/h
587 28-09-2020 10:00:00 11.89167 C 9.08 g/m*3 11.89 C 2.66667 km/h
588 28-09-2020 11:00:00 12.98333 C 9.14 g/m*3 12.98 C 4.95 km/h
589 28-09-2020 12:00:00 13.725 C 9.11 g/m*3 13.73 C 4.41667 km/h
590 28-09-2020 13:00:00 13.81667 C 9.36 g/m*3 13.82 C 5.775 km/h
591 28-09-2020 14:00:00 14.01667 C 9.42 g/m*3 14.02 C 4.025 km/h
592 28-09-2020 15:00:00 14.24167 C 9.13 g/m*3 14.24 C 4.95833 km/h
593 28-09-2020 16:00:00 14 C 9.14 g/m*3 14 C 6.7 km/h
594 28-09-2020 17:00:00 13.55833 C 9.11 g/m*3 13.56 C 6.025 km/h
595 28-09-2020 18:00:00 13.25 C 9.24 g/m*3 13.25 C 2 km/h
596 28-09-2020 19:00:00 12.45833 C 9.3 g/m*3 12.46 C 1.6 km/h
597 28-09-2020 20:00:00 11.85833 C 9.08 g/m*3 11.86 C 0.8 km/h
598 28-09-2020 21:00:00 10.86667 C 8.74 g/m*3 10.87 C 0.53333 km/h
599 28-09-2020 22:00:00 10.80833 C 8.99 g/m*3 10.81 C 0 km/h
600 28-09-2020 23:00:00 10.95 C 9.15 g/m*3 10.95 C 0.13333 km/h
Sensor: Nr:Datum:Temp:Abs-Feuchte:Windchill:Wind:
Aussen-T/F 601 29-09-2020 00:00:00 10.975 C 9.19 g/m*3 10.98 C 0.26667 km/h
602 29-09-2020 01:00:00 11.025 C 9.22 g/m*3 11.03 C 0.4 km/h
603 29-09-2020 02:00:00 11.09167 C 9.26 g/m*3 11.09 C 0 km/h
604 29-09-2020 03:00:00 11.13333 C 9.29 g/m*3 11.13 C 0 km/h
605 29-09-2020 04:00:00 11.2 C 9.36 g/m*3 11.2 C 0 km/h
606 29-09-2020 05:00:00 11.3 C 9.49 g/m*3 11.3 C 0 km/h
607 29-09-2020 06:00:00 11.4 C 9.55 g/m*3 11.4 C 0 km/h
608 29-09-2020 07:00:00 11.59167 C 9.74 g/m*3 11.59 C 0 km/h
609 29-09-2020 08:00:00 11.81667 C 9.96 g/m*3 11.82 C 0 km/h
610 29-09-2020 09:00:00 12.2 C 10.28 g/m*3 12.2 C 1.6 km/h
611 29-09-2020 10:00:00 12.65 C 10.61 g/m*3 12.65 C 3.46667 km/h
612 29-09-2020 11:00:00 13.18333 C 10.92 g/m*3 13.18 C 3.2 km/h
613 29-09-2020 12:00:00 13.725 C 11.23 g/m*3 13.73 C 5.06667 km/h
614 29-09-2020 13:00:00 14.1 C 11.38 g/m*3 14.1 C 6.01667 km/h
615 29-09-2020 14:00:00 14.30833 C 11.62 g/m*3 14.31 C 6.43333 km/h
616 29-09-2020 15:00:00 14.26667 C 11.54 g/m*3 14.27 C 7.93333 km/h
617 29-09-2020 16:00:00 13.43333 C 10.98 g/m*3 13.43 C 5.21667 km/h
618 29-09-2020 17:00:00 13.15833 C 10.88 g/m*3 13.16 C 2.14167 km/h
619 29-09-2020 18:00:00 13.21667 C 10.92 g/m*3 13.22 C 1.86667 km/h
620 29-09-2020 19:00:00 12.425 C 10.4 g/m*3 12.43 C 4.54167 km/h
621 29-09-2020 20:00:00 11.55 C 9.84 g/m*3 11.55 C 0.13333 km/h
622 29-09-2020 21:00:00 10.70833 C 9.34 g/m*3 10.71 C 0 km/h
623 29-09-2020 22:00:00 10.24167 C 9.15 g/m*3 10.24 C 0 km/h
624 29-09-2020 23:00:00 10.5 C 9.34 g/m*3 10.5 C 0 km/h
625 30-09-2020 00:00:00 10.88333 C 9.64 g/m*3 10.88 C 0 km/h
Sensor: Nr:Datum:Temp:Abs-Feuchte:Windchill:Wind:
Aussen-T/F 626 30-09-2020 01:00:00 11.05833 C 9.74 g/m*3 11.06 C 0 km/h
627 30-09-2020 02:00:00 11.2 C 9.83 g/m*3 11.2 C 0 km/h
628 30-09-2020 03:00:00 11.49167 C 10.01 g/m*3 11.49 C 0 km/h
629 30-09-2020 04:00:00 11.75833 C 10.18 g/m*3 11.76 C 0 km/h
630 30-09-2020 05:00:00 11.90833 C 10.28 g/m*3 11.91 C 0 km/h
631 30-09-2020 06:00:00 12.11667 C 10.41 g/m*3 12.12 C 0 km/h
632 30-09-2020 07:00:00 12.23333 C 10.49 g/m*3 12.23 C 0 km/h
633 30-09-2020 08:00:00 12.65 C 10.76 g/m*3 12.65 C 0 km/h
634 30-09-2020 09:00:00 13.59167 C 11.44 g/m*3 13.59 C 0 km/h
635 30-09-2020 10:00:00 14.675 C 12.26 g/m*3 14.68 C 2.13333 km/h
636 30-09-2020 11:00:00 15.65833 C 12.76 g/m*3 15.66 C 4.81667 km/h
637 30-09-2020 12:00:00 16.64167 C 12.95 g/m*3 16.64 C 3.21667 km/h
638 30-09-2020 13:00:00 16.89167 C 12.81 g/m*3 16.89 C 1.6 km/h
639 30-09-2020 14:00:00 17.64167 C 12.94 g/m*3 17.64 C 3.46667 km/h
640 30-09-2020 15:00:00 18.15 C 12.88 g/m*3 18.15 C 4.66667 km/h
641 30-09-2020 16:00:00 17.9 C 12.66 g/m*3 17.9 C 3.86667 km/h
642 30-09-2020 17:00:00 18.00833 C 12.6 g/m*3 18.01 C 3.46667 km/h
643 30-09-2020 18:00:00 17.05 C 12.31 g/m*3 17.05 C 1.73333 km/h
644 30-09-2020 19:00:00 15.55833 C 12.03 g/m*3 15.56 C 0.13333 km/h
645 30-09-2020 20:00:00 14.54167 C 11.43 g/m*3 14.54 C 1.6 km/h
646 30-09-2020 21:00:00 13.25833 C 10.69 g/m*3 13.26 C 1.2 km/h
647 30-09-2020 22:00:00 12.175 C 10.12 g/m*3 12.18 C 2.13333 km/h
648 30-09-2020 23:00:00 11.55 C 9.84 g/m*3 11.55 C 1.73333 km/h
649 01-10-2020 00:00:00 11.06667 C 9.57 g/m*3 11.07 C 0.26667 km/h
650 01-10-2020 01:00:00 10.68333 C 9.4 g/m*3 10.68 C 0.13333 km/h
Sensor: Nr:Datum:Temp:Abs-Feuchte:Windchill:Wind:
Aussen-T/F 651 01-10-2020 02:00:00 10.15833 C 9.11 g/m*3 10.16 C 0.4 km/h
652 01-10-2020 03:00:00 9.85833 C 8.94 g/m*3 9.86 C 0.13333 km/h
653 01-10-2020 04:00:00 9.91667 C 9 g/m*3 9.92 C 0 km/h
654 01-10-2020 05:00:00 10.48333 C 9.39 g/m*3 10.48 C 0 km/h
655 01-10-2020 06:00:00 9.81667 C 8.98 g/m*3 9.82 C 0.26667 km/h
656 01-10-2020 07:00:00 9.51667 C 8.81 g/m*3 9.52 C 0 km/h
657 01-10-2020 08:00:00 10.05833 C 9.15 g/m*3 10.06 C 0 km/h
658 01-10-2020 09:00:00 10.80833 C 9.59 g/m*3 10.81 C 0 km/h
659 01-10-2020 10:00:00 12.25 C 10.57 g/m*3 12.25 C 2.94167 km/h
660 01-10-2020 11:00:00 14.08333 C 11.38 g/m*3 14.08 C 2.8 km/h
661 01-10-2020 12:00:00 16.04167 C 11.72 g/m*3 16.04 C 4.26667 km/h
662 01-10-2020 13:00:00 16.95833 C 11.68 g/m*3 16.96 C 5.35 km/h
663 01-10-2020 14:00:00 16.90833 C 11.52 g/m*3 16.91 C 2.13333 km/h
664 01-10-2020 15:00:00 15.9 C 11.92 g/m*3 15.9 C 1.6 km/h
665 01-10-2020 16:00:00 15.275 C 11.89 g/m*3 15.28 C 1.33333 km/h
666 01-10-2020 17:00:00 15.23333 C 12.06 g/m*3 15.23 C 0.66667 km/h
667 01-10-2020 18:00:00 16.05 C 12.38 g/m*3 16.05 C 2.94167 km/h
668 01-10-2020 19:00:00 13.75 C 10.77 g/m*3 13.75 C 4.26667 km/h
669 01-10-2020 20:00:00 12.34167 C 10.18 g/m*3 12.34 C 3.46667 km/h
670 01-10-2020 21:00:00 12.33333 C 10.35 g/m*3 12.33 C 4.01667 km/h
671 01-10-2020 22:00:00 11.475 C 9.8 g/m*3 11.48 C 1.6 km/h
672 01-10-2020 23:00:00 10.825 C 9.48 g/m*3 10.83 C 4.41667 km/h
673 02-10-2020 00:00:00 10.5 C 9.29 g/m*3 10.5 C 2.13333 km/h
674 02-10-2020 01:00:00 9.85833 C 8.94 g/m*3 9.86 C 0 km/h
675 02-10-2020 02:00:00 9.21667 C 8.58 g/m*3 9.22 C 0 km/h
Sensor: Nr:Datum:Temp:Abs-Feuchte:Windchill:Wind:
Aussen-T/F 676 02-10-2020 03:00:00 8.675 C 8.29 g/m*3 8.68 C 0 km/h
677 02-10-2020 04:00:00 8 C 7.94 g/m*3 8 C 0 km/h
678 02-10-2020 05:00:00 7.8 C 7.86 g/m*3 7.8 C 0 km/h
679 02-10-2020 06:00:00 8.13333 C 8.09 g/m*3 8.13 C 0 km/h
680 02-10-2020 07:00:00 8.46667 C 8.26 g/m*3 8.47 C 0 km/h
681 02-10-2020 08:00:00 9.19167 C 8.66 g/m*3 9.19 C 0 km/h
682 02-10-2020 09:00:00 10.56667 C 9.51 g/m*3 10.57 C 3.20833 km/h
683 02-10-2020 10:00:00 11.975 C 10.37 g/m*3 11.98 C 1.46667 km/h
684 02-10-2020 11:00:00 12.54167 C 10.69 g/m*3 12.54 C 3.34167 km/h
685 02-10-2020 12:00:00 14.15833 C 11.22 g/m*3 14.16 C 10.35833 km/h
686 02-10-2020 13:00:00 16.11667 C 11.62 g/m*3 16.12 C 7.125 km/h
687 02-10-2020 14:00:00 17.65 C 12.01 g/m*3 17.65 C 8.325 km/h
688 02-10-2020 15:00:00 18.44167 C 12.31 g/m*3 18.44 C 5.08333 km/h
689 02-10-2020 16:00:00 18.85 C 12.4 g/m*3 18.85 C 6.45 km/h
690 02-10-2020 17:00:00 18.54167 C 12.15 g/m*3 18.54 C 6.70833 km/h
691 02-10-2020 18:00:00 17.40833 C 12.01 g/m*3 17.41 C 6.98333 km/h
692 02-10-2020 19:00:00 17.44167 C 11.96 g/m*3 17.44 C 6.3 km/h
693 02-10-2020 20:00:00 17.15833 C 11.83 g/m*3 17.16 C 8.45 km/h
694 02-10-2020 21:00:00 17.43333 C 11.78 g/m*3 17.43 C 4.55 km/h
695 02-10-2020 22:00:00 16.725 C 11.56 g/m*3 16.73 C 4.40833 km/h
696 02-10-2020 23:00:00 17.10833 C 11.29 g/m*3 17.11 C 10.875 km/h
697 03-10-2020 00:00:00 17.35833 C 11.19 g/m*3 17.36 C 7.65833 km/h
698 03-10-2020 01:00:00 17.16667 C 11.11 g/m*3 17.17 C 8.2 km/h
699 03-10-2020 02:00:00 15.73333 C 10.9 g/m*3 15.73 C 3.33333 km/h
700 03-10-2020 03:00:00 14.275 C 10.92 g/m*3 14.28 C 2.66667 km/h
Sensor: Nr:Datum:Temp:Abs-Feuchte:Windchill:Wind:
Aussen-T/F 701 03-10-2020 04:00:00 14.19167 C 11.04 g/m*3 14.19 C 0 km/h
702 03-10-2020 05:00:00 13.73333 C 10.79 g/m*3 13.73 C 0 km/h
703 03-10-2020 06:00:00 13.3 C 10.69 g/m*3 13.3 C 0 km/h
704 03-10-2020 07:00:00 13.45 C 10.91 g/m*3 13.45 C 2.675 km/h
705 03-10-2020 08:00:00 13.85 C 11.19 g/m*3 13.85 C 5.61667 km/h
706 03-10-2020 09:00:00 13.83333 C 11 g/m*3 13.83 C 7.78333 km/h
707 03-10-2020 10:00:00 13.69167 C 10.6 g/m*3 13.69 C 11.7 km/h
708 03-10-2020 11:00:00 13.53333 C 10.34 g/m*3 13.53 C 12.49167 km/h
709 03-10-2020 12:00:00 13.08333 C 9.95 g/m*3 13.08 C 13.425 km/h
710 03-10-2020 13:00:00 12.95833 C 9.74 g/m*3 12.96 C 10.85833 km/h
711 03-10-2020 14:00:00 12.025 C 9.72 g/m*3 12.03 C 3.475 km/h
712 03-10-2020 15:00:00 11.94167 C 9.8 g/m*3 11.94 C 1.73333 km/h
713 03-10-2020 16:00:00 12.38333 C 9.75 g/m*3 12.38 C 1.86667 km/h
714 03-10-2020 17:00:00 14.28333 C 10.3 g/m*3 14.28 C 2.8 km/h
715 03-10-2020 18:00:00 14.45 C 10.22 g/m*3 14.45 C 3.86667 km/h
716 03-10-2020 19:00:00 11.88333 C 9.51 g/m*3 11.88 C 2 km/h
717 03-10-2020 20:00:00 11.4 C 9.23 g/m*3 11.4 C 2.26667 km/h
718 03-10-2020 21:00:00 10.81667 C 9.13 g/m*3 10.82 C 0.8 km/h
719 03-10-2020 22:00:00 10.35833 C 8.99 g/m*3 10.36 C 2.66667 km/h
720 03-10-2020 23:00:00 11.19167 C 9.28 g/m*3 11.19 C 4.95 km/h
721 04-10-2020 00:00:00 10.66667 C 8.95 g/m*3 10.67 C 2.66667 km/h
722 04-10-2020 01:00:00 10.63333 C 9.13 g/m*3 10.63 C 1.2 km/h
723 04-10-2020 02:00:00 10.38333 C 9.05 g/m*3 10.38 C 2.26667 km/h
724 04-10-2020 03:00:00 9.925 C 8.83 g/m*3 9.93 C 1.6 km/h
725 04-10-2020 04:00:00 9.96667 C 8.99 g/m*3 9.97 C 2.66667 km/h
Sensor: Nr:Datum:Temp:Abs-Feuchte:Windchill:Wind:
Aussen-T/F 726 04-10-2020 05:00:00 10.38333 C 9.19 g/m*3 10.38 C 4.95 km/h
727 04-10-2020 06:00:00 10.70833 C 9.34 g/m*3 10.71 C 4.95 km/h
728 04-10-2020 07:00:00 10.53333 C 9.19 g/m*3 10.53 C 4.14167 km/h
729 04-10-2020 08:00:00 10.43333 C 9.2 g/m*3 10.43 C 2 km/h
730 04-10-2020 09:00:00 10.93333 C 9.33 g/m*3 10.79 C 5.075 km/h
731 04-10-2020 10:00:00 11.56667 C 9.27 g/m*3 11.57 C 6.575 km/h
732 04-10-2020 11:00:00 12.54167 C 8.98 g/m*3 12.54 C 16.9 km/h
733 04-10-2020 12:00:00 13.175 C 8.75 g/m*3 13.18 C 12.63333 km/h
734 04-10-2020 13:00:00 13.49167 C 8.29 g/m*3 13.49 C 12.36667 km/h
735 04-10-2020 14:00:00 14.15 C 8.51 g/m*3 14.15 C 12.1 km/h
736 04-10-2020 15:00:00 14.96667 C 8.66 g/m*3 14.97 C 8.86667 km/h
737 04-10-2020 16:00:00 15.38333 C 8.65 g/m*3 15.38 C 6.85 km/h
738 04-10-2020 17:00:00 15.00833 C 9.16 g/m*3 15.01 C 2.26667 km/h
739 04-10-2020 18:00:00 14.2 C 9.61 g/m*3 14.2 C 1.86667 km/h
740 04-10-2020 19:00:00 12.56667 C 9.45 g/m*3 12.57 C 4.69167 km/h
741 04-10-2020 20:00:00 11.63333 C 9.5 g/m*3 11.63 C 0.93333 km/h
742 04-10-2020 21:00:00 11.05 C 9.39 g/m*3 11.05 C 2.00833 km/h
743 04-10-2020 22:00:00 9.9 C 8.77 g/m*3 9.9 C 1.33333 km/h
744 04-10-2020 23:00:00 8.96667 C 8.34 g/m*3 8.97 C 0 km/h
745 05-10-2020 00:00:00 8.61667 C 8.2 g/m*3 8.62 C 3.21667 km/h
746 05-10-2020 01:00:00 8.59167 C 8.23 g/m*3 8.59 C 2.53333 km/h
747 05-10-2020 02:00:00 9.175 C 8.58 g/m*3 9.18 C 3.06667 km/h
748 05-10-2020 03:00:00 9.11667 C 8.56 g/m*3 9.12 C 1.33333 km/h
749 05-10-2020 04:00:00 8.94167 C 8.48 g/m*3 8.94 C 2.66667 km/h
750 05-10-2020 05:00:00 8.59167 C 8.28 g/m*3 8.59 C 3.33333 km/h
Sensor: Nr:Datum:Temp:Abs-Feuchte:Windchill:Wind:
Aussen-T/F 751 05-10-2020 06:00:00 8.51667 C 8.29 g/m*3 8.52 C 3.33333 km/h
752 05-10-2020 07:00:00 8.76667 C 8.42 g/m*3 8.77 C 1.86667 km/h
753 05-10-2020 08:00:00 9.23333 C 8.68 g/m*3 9.23 C 2.8 km/h
754 05-10-2020 09:00:00 10.125 C 9.19 g/m*3 10.13 C 2.93333 km/h
755 05-10-2020 10:00:00 10.275 C 9.15 g/m*3 10.04 C 5.09167 km/h
756 05-10-2020 11:00:00 11.60833 C 9.15 g/m*3 11.61 C 8.46667 km/h
757 05-10-2020 12:00:00 12.90833 C 9.27 g/m*3 12.91 C 8.325 km/h
758 05-10-2020 13:00:00 12.875 C 9.49 g/m*3 12.88 C 6.16667 km/h
759 05-10-2020 14:00:00 13.1 C 10.07 g/m*3 13.1 C 4.29167 km/h
760 05-10-2020 15:00:00 14.04167 C 10.13 g/m*3 14.04 C 9.54167 km/h
761 05-10-2020 16:00:00 14.275 C 9.97 g/m*3 14.28 C 10.09167 km/h
762 05-10-2020 17:00:00 13.65833 C 9.73 g/m*3 13.66 C 10.20833 km/h
763 05-10-2020 18:00:00 13.375 C 9.75 g/m*3 13.38 C 3.34167 km/h
764 05-10-2020 19:00:00 12.825 C 9.76 g/m*3 12.83 C 1.46667 km/h
765 05-10-2020 20:00:00 12.09167 C 9.61 g/m*3 12.09 C 3.475 km/h
766 05-10-2020 21:00:00 11.90833 C 9.74 g/m*3 11.91 C 0.8 km/h
767 05-10-2020 22:00:00 11.59167 C 9.68 g/m*3 11.59 C 0.53333 km/h
768 05-10-2020 23:00:00 11.53333 C 9.82 g/m*3 11.53 C 1.46667 km/h
769 06-10-2020 00:00:00 11.79167 C 10.04 g/m*3 11.79 C 0.66667 km/h
770 06-10-2020 01:00:00 11.8 C 10.1 g/m*3 11.8 C 2.14167 km/h
771 06-10-2020 02:00:00 11.8 C 10.1 g/m*3 11.8 C 2.68333 km/h
772 06-10-2020 03:00:00 11.93333 C 10.21 g/m*3 11.93 C 4.825 km/h
773 06-10-2020 04:00:00 12.275 C 10.32 g/m*3 12.28 C 16.23333 km/h
774 06-10-2020 05:00:00 12.11667 C 9.89 g/m*3 12.12 C 22.8 km/h
775 06-10-2020 06:00:00 11.8 C 9.39 g/m*3 11.8 C 16.63333 km/h
Sensor: Nr:Datum:Temp:Abs-Feuchte:Windchill:Wind:
Aussen-T/F 776 06-10-2020 07:00:00 11.70833 C 9.24 g/m*3 11.71 C 11.55833 km/h
777 06-10-2020 08:00:00 11.95 C 9.26 g/m*3 11.95 C 8.73333 km/h
778 06-10-2020 09:00:00 12.60833 C 9.52 g/m*3 12.61 C 5.075 km/h
779 06-10-2020 10:00:00 13.3 C 9.8 g/m*3 13.3 C 6.99167 km/h
780 06-10-2020 11:00:00 13.88333 C 10.12 g/m*3 13.88 C 11.3 km/h
781 06-10-2020 12:00:00 14.80833 C 10.6 g/m*3 14.81 C 11.41667 km/h
782 06-10-2020 13:00:00 15.05 C 10.65 g/m*3 15.05 C 8.06667 km/h
783 06-10-2020 14:00:00 15.05 C 11.18 g/m*3 15.05 C 9.8 km/h
784 06-10-2020 15:00:00 15.35833 C 10.91 g/m*3 15.36 C 14.76667 km/h
785 06-10-2020 16:00:00 15.425 C 10.74 g/m*3 15.43 C 12.09167 km/h
786 06-10-2020 17:00:00 14.78333 C 10.68 g/m*3 14.78 C 10.225 km/h
787 06-10-2020 18:00:00 13.36667 C 10.46 g/m*3 13.37 C 8.88333 km/h
788 06-10-2020 19:00:00 12.94167 C 10.1 g/m*3 12.94 C 9.525 km/h
789 06-10-2020 20:00:00 12.86667 C 9.99 g/m*3 12.87 C 7.375 km/h
790 06-10-2020 21:00:00 12.675 C 9.86 g/m*3 12.68 C 6.575 km/h
791 06-10-2020 22:00:00 12.775 C 9.81 g/m*3 12.78 C 12.5 km/h
792 06-10-2020 23:00:00 12.66667 C 9.66 g/m*3 12.67 C 12.5 km/h
793 07-10-2020 00:00:00 12.25 C 9.53 g/m*3 12.25 C 9.40833 km/h
794 07-10-2020 01:00:00 12.325 C 9.62 g/m*3 12.33 C 9.4 km/h
795 07-10-2020 02:00:00 11.90833 C 9.62 g/m*3 11.91 C 11.825 km/h
796 07-10-2020 03:00:00 11.85 C 9.54 g/m*3 11.85 C 11.83333 km/h
797 07-10-2020 04:00:00 12.2 C 9.48 g/m*3 12.2 C 11.95833 km/h
798 07-10-2020 05:00:00 12.15 C 9.43 g/m*3 12.15 C 10.23333 km/h
799 07-10-2020 06:00:00 11.99167 C 9.43 g/m*3 11.99 C 12.225 km/h
800 07-10-2020 07:00:00 12.10833 C 9.51 g/m*3 12.11 C 13.025 km/h
Sensor: Nr:Datum:Temp:Abs-Feuchte:Windchill:Wind:
Aussen-T/F 801 07-10-2020 08:00:00 12.50833 C 9.5 g/m*3 12.51 C 12.63333 km/h
802 07-10-2020 09:00:00 12.76667 C 9.57 g/m*3 12.77 C 11.025 km/h
803 07-10-2020 10:00:00 13.24167 C 9.65 g/m*3 13.24 C 12.76667 km/h
804 07-10-2020 11:00:00 13.8 C 9.33 g/m*3 13.8 C 13.29167 km/h
805 07-10-2020 12:00:00 14.725 C 9.39 g/m*3 14.73 C 15.3 km/h
806 07-10-2020 13:00:00 15.09167 C 9.57 g/m*3 15.09 C 13.69167 km/h
807 07-10-2020 14:00:00 15.075 C 9.75 g/m*3 15.08 C 13.825 km/h
808 07-10-2020 15:00:00 14.225 C 9.97 g/m*3 14.23 C 11.55833 km/h
809 07-10-2020 16:00:00 14.81667 C 10.01 g/m*3 14.82 C 8.98333 km/h
810 07-10-2020 17:00:00 14.86667 C 9.6 g/m*3 14.87 C 9.53333 km/h
811 07-10-2020 18:00:00 14.50833 C 9.35 g/m*3 14.51 C 7.65833 km/h
812 07-10-2020 19:00:00 14 C 8.63 g/m*3 14 C 11.03333 km/h
813 07-10-2020 20:00:00 13.55 C 8.63 g/m*3 13.55 C 8.46667 km/h
814 07-10-2020 21:00:00 12.85 C 8.81 g/m*3 12.85 C 5.76667 km/h
815 07-10-2020 22:00:00 12.24167 C 8.92 g/m*3 12.24 C 4.66667 km/h
816 07-10-2020 23:00:00 11.61667 C 8.84 g/m*3 11.62 C 2.53333 km/h
817 08-10-2020 00:00:00 10.375 C 8.49 g/m*3 10.38 C 3.74167 km/h
818 08-10-2020 01:00:00 9.44167 C 8.23 g/m*3 9.44 C 1.6 km/h
819 08-10-2020 02:00:00 8.89167 C 8.07 g/m*3 8.89 C 0.53333 km/h
820 08-10-2020 03:00:00 8.325 C 7.88 g/m*3 8.32 C 0.53333 km/h
821 08-10-2020 04:00:00 8.46667 C 8.07 g/m*3 8.47 C 0 km/h
822 08-10-2020 05:00:00 9.06667 C 8.42 g/m*3 9.07 C 0.26667 km/h
823 08-10-2020 06:00:00 9.66667 C 8.82 g/m*3 9.67 C 0 km/h
824 08-10-2020 07:00:00 10.01667 C 9.03 g/m*3 10.02 C 0 km/h
825 08-10-2020 08:00:00 10.76667 C 9.52 g/m*3 10.77 C 0.8 km/h
Sensor: Nr:Datum:Temp:Abs-Feuchte:Windchill:Wind:
Aussen-T/F 826 08-10-2020 09:00:00 11.83333 C 10.23 g/m*3 11.83 C 4.29167 km/h
827 08-10-2020 10:00:00 12.59167 C 10.7 g/m*3 12.59 C 3.49167 km/h
828 08-10-2020 11:00:00 13.85 C 11.23 g/m*3 13.85 C 9.13333 km/h
829 08-10-2020 12:00:00 15.33333 C 11.28 g/m*3 15.33 C 19.05 km/h
830 08-10-2020 13:00:00 15.825 C 11.28 g/m*3 15.83 C 25.075 km/h
831 08-10-2020 14:00:00 16.15 C 11.38 g/m*3 16.15 C 17.7 km/h
832 08-10-2020 15:00:00 16.425 C 11.37 g/m*3 16.43 C 18.23333 km/h
833 08-10-2020 16:00:00 16.39167 C 11.49 g/m*3 16.39 C 17.43333 km/h
834 08-10-2020 17:00:00 16.53333 C 11.47 g/m*3 16.53 C 11.80833 km/h
835 08-10-2020 18:00:00 16.525 C 11.45 g/m*3 16.52 C 11.55 km/h
836 08-10-2020 19:00:00 16.30833 C 11.41 g/m*3 16.31 C 16.775 km/h
837 08-10-2020 20:00:00 16.29167 C 11.57 g/m*3 16.29 C 20.1 km/h
838 08-10-2020 21:00:00 16.23333 C 11.72 g/m*3 16.23 C 17.43333 km/h
839 08-10-2020 22:00:00 16.46667 C 11.78 g/m*3 16.47 C 19.96667 km/h
840 08-10-2020 23:00:00 16.28333 C 11.82 g/m*3 16.28 C 18.775 km/h
841 09-10-2020 00:00:00 16.18333 C 11.76 g/m*3 16.18 C 19.84167 km/h
842 09-10-2020 01:00:00 15.38333 C 11.41 g/m*3 15.38 C 11.55833 km/h
843 09-10-2020 02:00:00 13.83333 C 10.99 g/m*3 13.83 C 1.86667 km/h
844 09-10-2020 03:00:00 13.35 C 10.89 g/m*3 13.35 C 1.06667 km/h
845 09-10-2020 04:00:00 12.825 C 10.63 g/m*3 12.83 C 2.13333 km/h
846 09-10-2020 05:00:00 12.66667 C 10.55 g/m*3 12.67 C 0 km/h
847 09-10-2020 06:00:00 12.6 C 10.55 g/m*3 12.6 C 0 km/h
848 09-10-2020 07:00:00 12.58333 C 10.61 g/m*3 12.58 C 0 km/h
849 09-10-2020 08:00:00 12.65833 C 10.66 g/m*3 12.66 C 0 km/h
850 09-10-2020 09:00:00 12.875 C 10.8 g/m*3 12.88 C 1.6 km/h
Sensor: Nr:Datum:Temp:Abs-Feuchte:Windchill:Wind:
Aussen-T/F 851 09-10-2020 10:00:00 12.96667 C 10.94 g/m*3 12.97 C 0.8 km/h
852 09-10-2020 11:00:00 13.375 C 11.26 g/m*3 13.38 C 0 km/h
853 09-10-2020 12:00:00 14.125 C 11.79 g/m*3 14.13 C 1.46667 km/h
854 09-10-2020 13:00:00 14.775 C 12.26 g/m*3 14.78 C 4.425 km/h
855 09-10-2020 14:00:00 14.9 C 12.18 g/m*3 14.9 C 7.24167 km/h
856 09-10-2020 15:00:00 14.69167 C 11.93 g/m*3 14.69 C 5.48333 km/h
857 09-10-2020 16:00:00 13.64167 C 11.17 g/m*3 13.64 C 2.14167 km/h
858 09-10-2020 17:00:00 13.1 C 10.89 g/m*3 13.1 C 4.825 km/h
859 09-10-2020 18:00:00 12.20833 C 10.26 g/m*3 12.21 C 4.26667 km/h
860 09-10-2020 19:00:00 11.14167 C 9.61 g/m*3 11.14 C 4.28333 km/h
861 09-10-2020 20:00:00 10.31667 C 9.18 g/m*3 10.32 C 0 km/h
862 09-10-2020 21:00:00 10.425 C 9.27 g/m*3 10.43 C 0 km/h
863 09-10-2020 22:00:00 10.275 C 9.22 g/m*3 10.28 C 0 km/h
864 09-10-2020 23:00:00 10.875 C 9.63 g/m*3 10.88 C 0 km/h
865 10-10-2020 00:00:00 10.89167 C 9.64 g/m*3 10.89 C 0.53333 km/h
866 10-10-2020 01:00:00 10 C 9.08 g/m*3 10 C 4.275 km/h
867 10-10-2020 02:00:00 9.60833 C 8.89 g/m*3 9.61 C 2.26667 km/h
868 10-10-2020 03:00:00 9.61667 C 8.9 g/m*3 9.62 C 2.8 km/h
869 10-10-2020 04:00:00 9.86667 C 9.04 g/m*3 9.87 C 2.93333 km/h
870 10-10-2020 05:00:00 9.81667 C 9.01 g/m*3 9.82 C 0.53333 km/h
871 10-10-2020 06:00:00 9.51667 C 8.84 g/m*3 9.52 C 0.13333 km/h
872 10-10-2020 07:00:00 8.925 C 8.51 g/m*3 8.93 C 3.06667 km/h
873 10-10-2020 08:00:00 8.375 C 8.22 g/m*3 8.38 C 3.2 km/h
874 10-10-2020 09:00:00 8.275 C 8.16 g/m*3 8.28 C 1.73333 km/h
875 10-10-2020 10:00:00 8.18333 C 8.11 g/m*3 8.18 C 4.675 km/h
Sensor: Nr:Datum:Temp:Abs-Feuchte:Windchill:Wind:
Aussen-T/F 876 10-10-2020 11:00:00 9.075 C 8.42 g/m*3 8.16 C 6.96667 km/h
877 10-10-2020 12:00:00 10.99167 C 7.93 g/m*3 9.43 C 12.625 km/h
878 10-10-2020 13:00:00 12.24167 C 7.51 g/m*3 12.24 C 12.89167 km/h
879 10-10-2020 14:00:00 12.5 C 7.31 g/m*3 12.5 C 9.825 km/h
880 10-10-2020 15:00:00 12.65 C 7.23 g/m*3 12.65 C 9.95 km/h
881 10-10-2020 16:00:00 12.675 C 7.24 g/m*3 12.68 C 9.675 km/h
882 10-10-2020 17:00:00 12.44167 C 7.47 g/m*3 12.44 C 6.98333 km/h
883 10-10-2020 18:00:00 11.80833 C 7.84 g/m*3 11.81 C 5.86667 km/h
884 10-10-2020 19:00:00 8.66667 C 7.17 g/m*3 7.78 C 6.56667 km/h
885 10-10-2020 20:00:00 7.39167 C 6.89 g/m*3 6.76 C 5.09167 km/h
886 10-10-2020 21:00:00 6.65 C 6.86 g/m*3 6.65 C 3.475 km/h
887 10-10-2020 22:00:00 8.26667 C 7.31 g/m*3 7.22 C 6.96667 km/h
888 10-10-2020 23:00:00 9.64167 C 7.37 g/m*3 8.54 C 8.2 km/h
889 11-10-2020 00:00:00 9.45 C 7.39 g/m*3 8.26 C 8.475 km/h
890 11-10-2020 01:00:00 9.64167 C 7.55 g/m*3 8.63 C 7.775 km/h
891 11-10-2020 02:00:00 9.425 C 7.64 g/m*3 9.04 C 5.20833 km/h
892 11-10-2020 03:00:00 9.35 C 7.76 g/m*3 9.35 C 3.2 km/h
893 11-10-2020 04:00:00 9.15833 C 7.81 g/m*3 9.16 C 3.88333 km/h
894 11-10-2020 05:00:00 8.96667 C 7.83 g/m*3 8.97 C 2.26667 km/h
895 11-10-2020 06:00:00 8.76667 C 7.8 g/m*3 8.77 C 0 km/h
896 11-10-2020 07:00:00 8.60833 C 7.9 g/m*3 8.61 C 1.6 km/h
897 11-10-2020 08:00:00 8.20833 C 7.82 g/m*3 8.21 C 1.33333 km/h
898 11-10-2020 09:00:00 8.54167 C 8.05 g/m*3 8.54 C 2.13333 km/h
899 11-10-2020 10:00:00 9.21667 C 8.22 g/m*3 9.22 C 1.86667 km/h
900 11-10-2020 11:00:00 9.475 C 8.13 g/m*3 9.48 C 0.93333 km/h
Sensor: Nr:Datum:Temp:Abs-Feuchte:Windchill:Wind:
Aussen-T/F 901 11-10-2020 12:00:00 10.50833 C 8.26 g/m*3 10.51 C 4.15 km/h
902 11-10-2020 13:00:00 11.54167 C 8.03 g/m*3 11.54 C 3.75 km/h
903 11-10-2020 14:00:00 12.44167 C 7.57 g/m*3 12.44 C 4.69167 km/h
904 11-10-2020 15:00:00 13.09167 C 7.2 g/m*3 13.09 C 8.19167 km/h
905 11-10-2020 16:00:00 12.90833 C 7.3 g/m*3 12.91 C 9.41667 km/h
906 11-10-2020 17:00:00 12.575 C 7.63 g/m*3 12.58 C 3.075 km/h
907 11-10-2020 18:00:00 11.86667 C 8.34 g/m*3 11.87 C 2.4 km/h
908 11-10-2020 19:00:00 9.91667 C 7.73 g/m*3 9.92 C 3.46667 km/h
909 11-10-2020 20:00:00 10.20833 C 8.01 g/m*3 9.81 C 5.63333 km/h
910 11-10-2020 21:00:00 9.51667 C 8.19 g/m*3 9.52 C 4.54167 km/h
911 11-10-2020 22:00:00 9.14167 C 8.24 g/m*3 9.14 C 1.46667 km/h
912 11-10-2020 23:00:00 9.14167 C 8.33 g/m*3 9.14 C 1.6 km/h
913 12-10-2020 00:00:00 9.13333 C 8.36 g/m*3 9.13 C 2 km/h
914 12-10-2020 01:00:00 9.01667 C 8.33 g/m*3 9.02 C 1.86667 km/h
915 12-10-2020 02:00:00 9.08333 C 8.42 g/m*3 9.08 C 0.4 km/h
916 12-10-2020 03:00:00 8.95 C 8.35 g/m*3 8.95 C 0.13333 km/h
917 12-10-2020 04:00:00 8.9 C 8.32 g/m*3 8.9 C 0.26667 km/h
918 12-10-2020 05:00:00 8.89167 C 8.32 g/m*3 8.89 C 0.8 km/h
919 12-10-2020 06:00:00 8.69167 C 8.21 g/m*3 8.69 C 1.6 km/h
920 12-10-2020 07:00:00 8.71667 C 8.25 g/m*3 8.72 C 1.06667 km/h
921 12-10-2020 08:00:00 8.80833 C 8.28 g/m*3 8.81 C 0.66667 km/h
922 12-10-2020 09:00:00 9.16667 C 8.49 g/m*3 9.17 C 0.8 km/h
923 12-10-2020 10:00:00 9.64167 C 8.69 g/m*3 9.64 C 4.53333 km/h
924 12-10-2020 11:00:00 10.68333 C 8.95 g/m*3 10.68 C 3.06667 km/h
925 12-10-2020 12:00:00 11.63333 C 8.99 g/m*3 11.63 C 3.33333 km/h
Sensor: Nr:Datum:Temp:Abs-Feuchte:Windchill:Wind:
Aussen-T/F 926 12-10-2020 13:00:00 12.28333 C 8.9 g/m*3 12.28 C 6.30833 km/h
927 12-10-2020 14:00:00 12.24167 C 8.99 g/m*3 12.24 C 6.575 km/h
928 12-10-2020 15:00:00 12.19167 C 8.83 g/m*3 12.19 C 8.31667 km/h
929 12-10-2020 16:00:00 11.06667 C 9 g/m*3 11.07 C 2.53333 km/h
930 12-10-2020 17:00:00 11.79167 C 9.1 g/m*3 11.79 C 1.6 km/h
931 12-10-2020 18:00:00 10.66667 C 8.43 g/m*3 10.67 C 4.54167 km/h
932 12-10-2020 19:00:00 8.3 C 7.55 g/m*3 8.3 C 2 km/h
933 12-10-2020 20:00:00 7.10833 C 7.19 g/m*3 7.11 C 0 km/h
934 12-10-2020 21:00:00 6.55 C 7.05 g/m*3 6.55 C 0.53333 km/h
935 12-10-2020 22:00:00 6.33333 C 7.02 g/m*3 6.33 C 0.13333 km/h
936 12-10-2020 23:00:00 5.94167 C 6.86 g/m*3 5.94 C 0 km/h
937 13-10-2020 00:00:00 5.3 C 6.58 g/m*3 5.3 C 0 km/h
938 13-10-2020 01:00:00 5.075 C 6.52 g/m*3 5.08 C 0 km/h
939 13-10-2020 02:00:00 5.70833 C 6.84 g/m*3 5.71 C 0.13333 km/h
940 13-10-2020 03:00:00 6.2 C 7.06 g/m*3 6.2 C 0.4 km/h
941 13-10-2020 04:00:00 6.15833 C 7.04 g/m*3 6.16 C 0 km/h
942 13-10-2020 05:00:00 6.25833 C 7.09 g/m*3 6.26 C 0 km/h
943 13-10-2020 06:00:00 6.35 C 7.2 g/m*3 6.35 C 0 km/h
944 13-10-2020 07:00:00 6.325 C 7.19 g/m*3 6.33 C 0 km/h
945 13-10-2020 08:00:00 6.61667 C 7.33 g/m*3 6.62 C 0.13333 km/h
946 13-10-2020 09:00:00 7.05833 C 7.54 g/m*3 7.06 C 0.13333 km/h
947 13-10-2020 10:00:00 7.41667 C 7.65 g/m*3 6.7 C 5.35833 km/h
948 13-10-2020 11:00:00 8.08333 C 7.8 g/m*3 8.08 C 4.275 km/h
949 13-10-2020 12:00:00 9.225 C 8.09 g/m*3 9.23 C 4.00833 km/h
950 13-10-2020 13:00:00 10.16667 C 8.17 g/m*3 10.17 C 4.14167 km/h
Sensor: Nr:Datum:Temp:Abs-Feuchte:Windchill:Wind:
Aussen-T/F 951 13-10-2020 14:00:00 10.6 C 8.17 g/m*3 10.2 C 5.86667 km/h
952 13-10-2020 15:00:00 10.91667 C 8.12 g/m*3 10.92 C 3.88333 km/h
953 13-10-2020 16:00:00 10.59167 C 8.12 g/m*3 10.59 C 1.73333 km/h
954 13-10-2020 17:00:00 10.325 C 8.25 g/m*3 10.33 C 0.93333 km/h
955 13-10-2020 18:00:00 8.75 C 7.65 g/m*3 8.75 C 2.8 km/h
956 13-10-2020 19:00:00 7.19167 C 7.18 g/m*3 7.19 C 1.2 km/h
957 13-10-2020 20:00:00 6.40833 C 6.98 g/m*3 6.41 C 0.66667 km/h
958 13-10-2020 21:00:00 5.89167 C 6.8 g/m*3 5.89 C 1.73333 km/h
959 13-10-2020 22:00:00 5.36667 C 6.61 g/m*3 5.37 C 2.66667 km/h
960 13-10-2020 23:00:00 4.98333 C 6.45 g/m*3 4.98 C 0.13333 km/h
961 14-10-2020 00:00:00 5.275 C 6.64 g/m*3 5.28 C 0 km/h
962 14-10-2020 01:00:00 5.03333 C 6.53 g/m*3 5.03 C 0 km/h
963 14-10-2020 02:00:00 4.83333 C 6.45 g/m*3 4.83 C 0 km/h
964 14-10-2020 03:00:00 4.25 C 6.21 g/m*3 4.25 C 0 km/h
965 14-10-2020 04:00:00 3.675 C 5.97 g/m*3 3.68 C 0 km/h
966 14-10-2020 05:00:00 4.25 C 6.21 g/m*3 4.25 C 0 km/h
967 14-10-2020 06:00:00 4.56667 C 6.4 g/m*3 4.57 C 0 km/h
968 14-10-2020 07:00:00 4.8 C 6.5 g/m*3 4.8 C 0.13333 km/h
969 14-10-2020 08:00:00 4.95833 C 6.57 g/m*3 4.96 C 0 km/h
970 14-10-2020 09:00:00 5.925 C 7.01 g/m*3 5.93 C 0.13333 km/h
971 14-10-2020 10:00:00 7.06667 C 7.55 g/m*3 7.07 C 0.53333 km/h
972 14-10-2020 11:00:00 8.1 C 8.03 g/m*3 8.1 C 0.93333 km/h
973 14-10-2020 12:00:00 9.13333 C 8.22 g/m*3 9.13 C 4.14167 km/h
974 14-10-2020 13:00:00 10.51667 C 8.46 g/m*3 10.52 C 4.95 km/h
975 14-10-2020 14:00:00 11.51667 C 8.52 g/m*3 11.52 C 8.325 km/h
Sensor: Nr:Datum:Temp:Abs-Feuchte:Windchill:Wind:
Aussen-T/F 976 14-10-2020 15:00:00 11.80833 C 8.12 g/m*3 11.81 C 9.95833 km/h
977 14-10-2020 16:00:00 11.70833 C 7.58 g/m*3 11.71 C 10.225 km/h
978 14-10-2020 17:00:00 11.26667 C 7.79 g/m*3 11.27 C 8.875 km/h
979 14-10-2020 18:00:00 10.80833 C 7.7 g/m*3 9.74 C 9.14167 km/h
980 14-10-2020 19:00:00 10.35 C 7.75 g/m*3 10.35 C 4.675 km/h
981 14-10-2020 20:00:00 9.84167 C 7.65 g/m*3 8.78 C 8.2 km/h
982 14-10-2020 21:00:00 9.225 C 7.74 g/m*3 9.23 C 4.28333 km/h
983 14-10-2020 22:00:00 8.825 C 7.74 g/m*3 8.82 C 3.475 km/h
984 14-10-2020 23:00:00 8.40833 C 7.8 g/m*3 8.41 C 0.93333 km/h
985 15-10-2020 00:00:00 8.15833 C 7.83 g/m*3 8.16 C 0.8 km/h
986 15-10-2020 01:00:00 8.08333 C 7.86 g/m*3 8.08 C 1.2 km/h
987 15-10-2020 02:00:00 7.975 C 7.84 g/m*3 7.98 C 0.93333 km/h
988 15-10-2020 03:00:00 7.94167 C 7.84 g/m*3 7.94 C 1.2 km/h
989 15-10-2020 04:00:00 7.91667 C 7.89 g/m*3 7.92 C 0.93333 km/h
990 15-10-2020 05:00:00 7.9 C 7.89 g/m*3 7.9 C 0.93333 km/h
991 15-10-2020 06:00:00 7.81667 C 7.84 g/m*3 7.82 C 1.06667 km/h
992 15-10-2020 07:00:00 7.83333 C 7.85 g/m*3 7.83 C 0.8 km/h
993 15-10-2020 08:00:00 7.90833 C 7.89 g/m*3 7.91 C 0.53333 km/h
994 15-10-2020 09:00:00 8.15 C 8.03 g/m*3 8.15 C 0.26667 km/h
995 15-10-2020 10:00:00 8.4 C 8.21 g/m*3 8.4 C 0.26667 km/h
996 15-10-2020 11:00:00 8.7 C 8.32 g/m*3 8.7 C 1.33333 km/h
997 15-10-2020 12:00:00 9.24167 C 8.51 g/m*3 9.24 C 3.21667 km/h
998 15-10-2020 13:00:00 9.96667 C 8.52 g/m*3 9.01 C 7.79167 km/h
999 15-10-2020 14:00:00 10.375 C 8.48 g/m*3 9.25 C 9.03333 km/h
1000 15-10-2020 15:00:00 10.61667 C 8.44 g/m*3 9.03 C 12.225 km/h
Sensor: Nr:Datum:Temp:Abs-Feuchte:Windchill:Wind:
Aussen-T/F 1001 15-10-2020 16:00:00 10.7 C 8.42 g/m*3 9.71 C 8.61667 km/h
1002 15-10-2020 17:00:00 10.71667 C 8.45 g/m*3 10 C 7.25 km/h
1003 15-10-2020 18:00:00 10.625 C 8.45 g/m*3 10.63 C 4.14167 km/h
1004 15-10-2020 19:00:00 10.075 C 8.51 g/m*3 10.07 C 0.93333 km/h
1005 15-10-2020 20:00:00 9.93333 C 8.29 g/m*3 9.93 C 2.94167 km/h
1006 15-10-2020 21:00:00 9.86667 C 8.27 g/m*3 9.87 C 2.13333 km/h
1007 15-10-2020 22:00:00 9.78333 C 8.29 g/m*3 9.78 C 0.66667 km/h
1008 15-10-2020 23:00:00 9.58333 C 8.36 g/m*3 9.58 C 0.13333 km/h
1009 16-10-2020 00:00:00 9.34167 C 8.33 g/m*3 9.34 C 0.26667 km/h
1010 16-10-2020 01:00:00 9.3 C 8.36 g/m*3 9.3 C 0.53333 km/h
1011 16-10-2020 02:00:00 9.30833 C 8.32 g/m*3 9.31 C 0.53333 km/h
1012 16-10-2020 03:00:00 9.325 C 8.22 g/m*3 9.32 C 1.86667 km/h
1013 16-10-2020 04:00:00 9.24167 C 8.16 g/m*3 9.24 C 1.875 km/h
1014 16-10-2020 05:00:00 8.925 C 8.12 g/m*3 8.93 C 0.4 km/h
1015 16-10-2020 06:00:00 8.63333 C 8.03 g/m*3 8.63 C 1.2 km/h
1016 16-10-2020 07:00:00 8.425 C 7.99 g/m*3 8.43 C 0.8 km/h
1017 16-10-2020 08:00:00 8.4 C 7.97 g/m*3 8.4 C 0 km/h
1018 16-10-2020 09:00:00 8.49167 C 8.07 g/m*3 8.49 C 1.46667 km/h
1019 16-10-2020 10:00:00 8.86667 C 8.26 g/m*3 8.87 C 0.13333 km/h
1020 16-10-2020 11:00:00 9.24167 C 8.41 g/m*3 9.24 C 0 km/h
1021 16-10-2020 12:00:00 9.725 C 8.49 g/m*3 9.73 C 0.4 km/h
1022 16-10-2020 13:00:00 10.24167 C 8.68 g/m*3 10.24 C 0.66667 km/h
1023 16-10-2020 14:00:00 10.60833 C 8.69 g/m*3 10.61 C 3.75833 km/h
1024 16-10-2020 15:00:00 11.04167 C 8.79 g/m*3 11.04 C 2.53333 km/h
1025 16-10-2020 16:00:00 11 C 8.63 g/m*3 11 C 4.68333 km/h
Sensor: Nr:Datum:Temp:Abs-Feuchte:Windchill:Wind:
Aussen-T/F 1026 16-10-2020 17:00:00 10.69167 C 8.7 g/m*3 10.69 C 3.86667 km/h
1027 16-10-2020 18:00:00 10.06667 C 8.59 g/m*3 10.07 C 4.95 km/h
1028 16-10-2020 19:00:00 9.275 C 8.37 g/m*3 9.28 C 1.73333 km/h
1029 16-10-2020 20:00:00 8.81667 C 8.21 g/m*3 8.82 C 0.66667 km/h
1030 16-10-2020 21:00:00 8.29167 C 8 g/m*3 8.29 C 4.8 km/h
1031 16-10-2020 22:00:00 7.93333 C 7.84 g/m*3 7.93 C 3.06667 km/h
1032 16-10-2020 23:00:00 7.05 C 7.39 g/m*3 7.05 C 3.6 km/h
1033 17-10-2020 00:00:00 6.06667 C 6.93 g/m*3 6.07 C 2.53333 km/h
1034 17-10-2020 01:00:00 5.34167 C 6.61 g/m*3 5.34 C 0.4 km/h
1035 17-10-2020 02:00:00 4.51667 C 6.28 g/m*3 4.52 C 0 km/h
1036 17-10-2020 03:00:00 4.18333 C 6.18 g/m*3 4.18 C 0 km/h
1037 17-10-2020 04:00:00 3.575 C 5.93 g/m*3 3.58 C 0 km/h
1038 17-10-2020 05:00:00 3.125 C 5.76 g/m*3 3.13 C 0 km/h
1039 17-10-2020 06:00:00 3.23333 C 5.8 g/m*3 3.23 C 0 km/h
1040 17-10-2020 07:00:00 3.34167 C 5.86 g/m*3 3.34 C 0 km/h
1041 17-10-2020 08:00:00 3.80833 C 6.09 g/m*3 3.81 C 0.13333 km/h
1042 17-10-2020 09:00:00 4.825 C 6.52 g/m*3 4.83 C 2.4 km/h
1043 17-10-2020 10:00:00 5.68333 C 6.9 g/m*3 5.68 C 0.93333 km/h
1044 17-10-2020 11:00:00 6.275 C 7.17 g/m*3 6.28 C 0 km/h
1045 17-10-2020 12:00:00 7.025 C 7.53 g/m*3 7.03 C 0 km/h
1046 17-10-2020 13:00:00 7.54167 C 7.74 g/m*3 7.54 C 0.4 km/h
1047 17-10-2020 14:00:00 8.65833 C 7.99 g/m*3 8.66 C 0.13333 km/h
1048 17-10-2020 15:00:00 9.66667 C 7.91 g/m*3 9.67 C 1.33333 km/h
1049 17-10-2020 16:00:00 9.725 C 7.46 g/m*3 9.73 C 3.48333 km/h
1050 17-10-2020 17:00:00 9.36667 C 7.57 g/m*3 9.37 C 0.53333 km/h
Sensor: Nr:Datum:Temp:Abs-Feuchte:Windchill:Wind:
Aussen-T/F 1051 17-10-2020 18:00:00 8.68333 C 7.62 g/m*3 8.68 C 1.46667 km/h
1052 17-10-2020 19:00:00 7.84167 C 7.41 g/m*3 7.84 C 1.86667 km/h
1053 17-10-2020 20:00:00 7.39167 C 7.29 g/m*3 7.39 C 2.4 km/h
1054 17-10-2020 21:00:00 6.61667 C 6.98 g/m*3 6.62 C 2 km/h
1055 17-10-2020 22:00:00 6.30833 C 6.96 g/m*3 6.31 C 0 km/h
1056 17-10-2020 23:00:00 5.90833 C 6.82 g/m*3 5.91 C 0 km/h
1057 18-10-2020 00:00:00 5.975 C 6.88 g/m*3 5.98 C 0 km/h
1058 18-10-2020 01:00:00 6.15 C 7.01 g/m*3 6.15 C 0.26667 km/h
1059 18-10-2020 02:00:00 6.24167 C 7.08 g/m*3 6.24 C 1.86667 km/h
1060 18-10-2020 03:00:00 6.31667 C 7.11 g/m*3 6.32 C 2.13333 km/h
1061 18-10-2020 04:00:00 6.4 C 7.12 g/m*3 6.4 C 2 km/h
1062 18-10-2020 05:00:00 6.29167 C 7.07 g/m*3 6.29 C 1.06667 km/h
1063 18-10-2020 06:00:00 6.375 C 7.14 g/m*3 6.38 C 0.8 km/h
1064 18-10-2020 07:00:00 6.43333 C 7.17 g/m*3 6.43 C 0.8 km/h
1065 18-10-2020 08:00:00 6.48333 C 7.19 g/m*3 6.48 C 1.2 km/h
1066 18-10-2020 09:00:00 6.93333 C 7.31 g/m*3 6.93 C 4.93333 km/h
1067 18-10-2020 10:00:00 7.49167 C 7.43 g/m*3 6.62 C 5.88333 km/h
1068 18-10-2020 11:00:00 7.95833 C 7.44 g/m*3 6.89 C 6.84167 km/h
1069 18-10-2020 12:00:00 8.89167 C 7.73 g/m*3 8.01 C 6.71667 km/h
1070 18-10-2020 13:00:00 10.125 C 8 g/m*3 9.28 C 7.39167 km/h
1071 18-10-2020 14:00:00 10.475 C 7.94 g/m*3 9.58 C 7.925 km/h
1072 18-10-2020 15:00:00 10.79167 C 8.01 g/m*3 10.31 C 6.29167 km/h
1073 18-10-2020 16:00:00 10.79167 C 8.08 g/m*3 10.79 C 4.01667 km/h
1074 18-10-2020 17:00:00 10.68333 C 8.15 g/m*3 10.68 C 2.55 km/h
1075 18-10-2020 18:00:00 9.91667 C 8.04 g/m*3 9.92 C 2.93333 km/h
Sensor: Nr:Datum:Temp:Abs-Feuchte:Windchill:Wind:
Aussen-T/F 1076 18-10-2020 19:00:00 9.28333 C 7.91 g/m*3 9.28 C 2 km/h
1077 18-10-2020 20:00:00 9.20833 C 7.95 g/m*3 9.21 C 2.26667 km/h
1078 18-10-2020 21:00:00 9.225 C 7.97 g/m*3 9.23 C 1.2 km/h
1079 18-10-2020 22:00:00 9.05 C 8.01 g/m*3 9.05 C 1.06667 km/h
1080 18-10-2020 23:00:00 9.05833 C 8 g/m*3 9.06 C 1.73333 km/h
1081 19-10-2020 00:00:00 8.875 C 7.99 g/m*3 8.88 C 0.13333 km/h
1082 19-10-2020 01:00:00 8.66667 C 7.96 g/m*3 8.67 C 0.93333 km/h
1083 19-10-2020 02:00:00 8.65833 C 7.96 g/m*3 8.66 C 0.4 km/h
1084 19-10-2020 03:00:00 8.34167 C 7.86 g/m*3 8.34 C 0.26667 km/h
1085 19-10-2020 04:00:00 8.23333 C 7.89 g/m*3 8.23 C 0.93333 km/h
1086 19-10-2020 05:00:00 8.18333 C 7.86 g/m*3 8.18 C 0.8 km/h
1087 19-10-2020 06:00:00 7.70833 C 7.63 g/m*3 7.71 C 1.2 km/h
1088 19-10-2020 07:00:00 7.40833 C 7.54 g/m*3 7.41 C 0 km/h
1089 19-10-2020 08:00:00 7.45833 C 7.6 g/m*3 7.46 C 0 km/h
1090 19-10-2020 09:00:00 8.09167 C 7.96 g/m*3 8.09 C 0 km/h
1091 19-10-2020 10:00:00 7.83333 C 7.77 g/m*3 7.83 C 1.33333 km/h
1092 19-10-2020 11:00:00 8.6 C 8.23 g/m*3 8.6 C 2.26667 km/h
1093 19-10-2020 12:00:00 9.83333 C 8.86 g/m*3 9.83 C 0 km/h
1094 19-10-2020 13:00:00 10.53333 C 9.14 g/m*3 10.53 C 1.33333 km/h
1095 19-10-2020 14:00:00 11.93333 C 9.61 g/m*3 11.93 C 0 km/h
1096 19-10-2020 15:00:00 12.95833 C 9.05 g/m*3 12.96 C 0.53333 km/h
1097 19-10-2020 16:00:00 12.53333 C 9.06 g/m*3 12.53 C 3.6 km/h
1098 19-10-2020 17:00:00 10.94167 C 8.24 g/m*3 10.55 C 6.00833 km/h
1099 19-10-2020 18:00:00 8.60833 C 7.52 g/m*3 8.61 C 4.93333 km/h
1100 19-10-2020 19:00:00 7.38333 C 7.2 g/m*3 6.72 C 5.2 km/h
Sensor: Nr:Datum:Temp:Abs-Feuchte:Windchill:Wind:
Aussen-T/F 1101 19-10-2020 20:00:00 6.75 C 6.96 g/m*3 5.73 C 6.00833 km/h
1102 19-10-2020 21:00:00 6.44167 C 6.87 g/m*3 5.69 C 5.06667 km/h
1103 19-10-2020 22:00:00 5.76667 C 6.62 g/m*3 5.77 C 0.26667 km/h
1104 19-10-2020 23:00:00 5.28333 C 6.49 g/m*3 5.28 C 1.46667 km/h
1105 20-10-2020 00:00:00 5.20833 C 6.52 g/m*3 5.21 C 2.93333 km/h
1106 20-10-2020 01:00:00 5.15833 C 6.48 g/m*3 5.16 C 3.06667 km/h
1107 20-10-2020 02:00:00 5.14167 C 6.41 g/m*3 5.14 C 2.26667 km/h
1108 20-10-2020 03:00:00 4.9 C 6.37 g/m*3 4.9 C 2.66667 km/h
1109 20-10-2020 04:00:00 4.63333 C 6.29 g/m*3 4.63 C 2.93333 km/h
1110 20-10-2020 05:00:00 4.98333 C 6.49 g/m*3 4.98 C 1.2 km/h
1111 20-10-2020 06:00:00 5.6 C 6.78 g/m*3 5.6 C 0.87273 km/h
1112 20-10-2020 07:00:00 5.825 C 6.87 g/m*3 5.83 C 0.4 km/h
1113 20-10-2020 08:00:00 5.93333 C 6.89 g/m*3 5.93 C 0.53333 km/h
1114 20-10-2020 09:00:00 6.66667 C 7.28 g/m*3 6.67 C 0.8 km/h
1115 20-10-2020 10:00:00 8.1 C 7.93 g/m*3 8.1 C 0.93333 km/h
1116 20-10-2020 11:00:00 9.83333 C 8.72 g/m*3 9.83 C 0.13333 km/h
1117 20-10-2020 12:00:00 11.45 C 9.45 g/m*3 11.45 C 0 km/h
1118 20-10-2020 13:00:00 11.775 C 9.65 g/m*3 11.78 C 0.4 km/h
1119 20-10-2020 14:00:00 11.89167 C 9.74 g/m*3 11.89 C 0.4 km/h
1120 20-10-2020 15:00:00 12.55833 C 10.03 g/m*3 12.56 C 0.13333 km/h
1121 20-10-2020 16:00:00 12.44167 C 9.98 g/m*3 12.44 C 0.4 km/h
1122 20-10-2020 17:00:00 12.075 C 9.84 g/m*3 12.08 C 0.8 km/h
1123 20-10-2020 18:00:00 11.76667 C 9.74 g/m*3 11.77 C 0.93333 km/h
1124 20-10-2020 19:00:00 11.7 C 9.81 g/m*3 11.7 C 2.66667 km/h
1125 20-10-2020 20:00:00 11.9 C 9.92 g/m*3 11.9 C 2 km/h
Sensor: Nr:Datum:Temp:Abs-Feuchte:Windchill:Wind:
Aussen-T/F 1126 20-10-2020 21:00:00 11.76667 C 9.74 g/m*3 11.77 C 1.33333 km/h
1127 20-10-2020 22:00:00 11.6 C 9.67 g/m*3 11.6 C 1.86667 km/h
1128 20-10-2020 23:00:00 11.78333 C 9.78 g/m*3 11.78 C 0.8 km/h
1129 21-10-2020 00:00:00 11.84167 C 9.84 g/m*3 11.84 C 0 km/h
1130 21-10-2020 01:00:00 11.69167 C 9.87 g/m*3 11.69 C 0 km/h
1131 21-10-2020 02:00:00 11.40833 C 9.76 g/m*3 11.41 C 1.73333 km/h
1132 21-10-2020 03:00:00 11.3 C 9.69 g/m*3 11.3 C 2.53333 km/h
1133 21-10-2020 04:00:00 11.36667 C 9.72 g/m*3 11.37 C 2.66667 km/h
1134 21-10-2020 05:00:00 11.79167 C 9.79 g/m*3 11.79 C 2.93333 km/h
1135 21-10-2020 06:00:00 11.95833 C 9.85 g/m*3 11.96 C 3.6 km/h
1136 21-10-2020 07:00:00 12.10833 C 9.88 g/m*3 12.11 C 2 km/h
1137 21-10-2020 08:00:00 12.11667 C 10.06 g/m*3 12.12 C 1.86667 km/h
1138 21-10-2020 09:00:00 12.125 C 10.15 g/m*3 12.13 C 0 km/h
1139 21-10-2020 10:00:00 12.59167 C 10.45 g/m*3 12.59 C 0 km/h
1140 21-10-2020 11:00:00 14.15833 C 10.68 g/m*3 14.16 C 0.93333 km/h
1141 21-10-2020 12:00:00 16.85833 C 10.63 g/m*3 16.86 C 2.81667 km/h
1142 21-10-2020 13:00:00 18.94167 C 9.78 g/m*3 18.94 C 5.08333 km/h
1143 21-10-2020 14:00:00 19.85833 C 10.7 g/m*3 19.86 C 5.35833 km/h
1144 21-10-2020 15:00:00 21.1 C 10.32 g/m*3 21.1 C 11.13333 km/h
1145 21-10-2020 16:00:00 20.99167 C 10.41 g/m*3 20.99 C 9.54167 km/h
1146 21-10-2020 17:00:00 20.175 C 10.97 g/m*3 20.18 C 5.21667 km/h
1147 21-10-2020 18:00:00 18.21667 C 11.1 g/m*3 18.22 C 4.15 km/h
1148 21-10-2020 19:00:00 16.75 C 10.88 g/m*3 16.75 C 4.95 km/h
1149 21-10-2020 20:00:00 17.23333 C 11.31 g/m*3 17.23 C 5.89167 km/h
1150 21-10-2020 21:00:00 16.08333 C 11.33 g/m*3 16.08 C 3.6 km/h
Sensor: Nr:Datum:Temp:Abs-Feuchte:Windchill:Wind:
Aussen-T/F 1151 21-10-2020 22:00:00 15.63333 C 11.58 g/m*3 15.63 C 3.73333 km/h
1152 21-10-2020 23:00:00 15.76667 C 11.55 g/m*3 15.77 C 2.8 km/h
1153 22-10-2020 00:00:00 15.55 C 11.52 g/m*3 15.55 C 0.4 km/h
1154 22-10-2020 01:00:00 14.975 C 11.41 g/m*3 14.98 C 0.4 km/h
1155 22-10-2020 02:00:00 14.6 C 11.32 g/m*3 14.6 C 0 km/h
1156 22-10-2020 03:00:00 14.275 C 11.3 g/m*3 14.28 C 0.13333 km/h
1157 22-10-2020 04:00:00 14.3 C 11.43 g/m*3 14.3 C 1.73333 km/h
1158 22-10-2020 05:00:00 14.33333 C 11.44 g/m*3 14.33 C 0.93333 km/h
1159 22-10-2020 06:00:00 14.30833 C 11.35 g/m*3 14.31 C 1.46667 km/h
1160 22-10-2020 07:00:00 14.14167 C 11.32 g/m*3 14.14 C 0.4 km/h
1161 22-10-2020 08:00:00 13.95833 C 11.17 g/m*3 13.96 C 0.66667 km/h
1162 22-10-2020 09:00:00 14.85833 C 11.71 g/m*3 14.86 C 0.66667 km/h
1163 22-10-2020 10:00:00 15.275 C 11.84 g/m*3 15.28 C 0.93333 km/h
1164 22-10-2020 11:00:00 16.60833 C 11.93 g/m*3 16.61 C 7.24167 km/h
1165 22-10-2020 12:00:00 17.36667 C 11.93 g/m*3 17.37 C 6.31667 km/h
1166 22-10-2020 13:00:00 18.7 C 11.94 g/m*3 18.7 C 9.25833 km/h
1167 22-10-2020 14:00:00 19.69167 C 12.01 g/m*3 19.69 C 10.74167 km/h
1168 22-10-2020 15:00:00 20.15 C 12.22 g/m*3 20.15 C 10.225 km/h
1169 22-10-2020 16:00:00 20.34167 C 12.64 g/m*3 20.34 C 6.3 km/h
1170 22-10-2020 17:00:00 19.05833 C 12.85 g/m*3 19.06 C 4.13333 km/h
1171 22-10-2020 18:00:00 17.45833 C 12.42 g/m*3 17.46 C 4.53333 km/h
1172 22-10-2020 19:00:00 16.05833 C 11.96 g/m*3 16.06 C 4.26667 km/h
1173 22-10-2020 20:00:00 15.66667 C 11.84 g/m*3 15.67 C 4.26667 km/h
1174 22-10-2020 21:00:00 15.60833 C 11.85 g/m*3 15.61 C 1.33333 km/h
1175 22-10-2020 22:00:00 15.6 C 11.97 g/m*3 15.6 C 1.2 km/h
Sensor: Nr:Datum:Temp:Abs-Feuchte:Windchill:Wind:
Aussen-T/F 1176 22-10-2020 23:00:00 15.6 C 12.04 g/m*3 15.6 C 0 km/h
1177 23-10-2020 00:00:00 15.38333 C 11.95 g/m*3 15.38 C 0 km/h
1178 23-10-2020 01:00:00 15.35833 C 11.98 g/m*3 15.36 C 0.13333 km/h
1179 23-10-2020 02:00:00 15.525 C 12.03 g/m*3 15.53 C 0.26667 km/h
1180 23-10-2020 03:00:00 15.6 C 12.1 g/m*3 15.6 C 0.53333 km/h
1181 23-10-2020 04:00:00 15.80833 C 12.03 g/m*3 15.81 C 2.26667 km/h
1182 23-10-2020 05:00:00 16.05833 C 12.03 g/m*3 16.06 C 2.00833 km/h
1183 23-10-2020 06:00:00 15.78333 C 11.89 g/m*3 15.78 C 0.66667 km/h
1184 23-10-2020 07:00:00 15.11667 C 11.84 g/m*3 15.12 C 0.8 km/h
1185 23-10-2020 08:00:00 14.76667 C 11.84 g/m*3 14.77 C 0 km/h
1186 23-10-2020 09:00:00 14.65 C 11.89 g/m*3 14.65 C 0 km/h
1187 23-10-2020 10:00:00 14.75833 C 12.02 g/m*3 14.76 C 0 km/h
1188 23-10-2020 11:00:00 15.25833 C 12.5 g/m*3 15.26 C 0 km/h
1189 23-10-2020 12:00:00 15.49167 C 12.67 g/m*3 15.49 C 0.66667 km/h
1190 23-10-2020 13:00:00 15.85 C 12.85 g/m*3 15.85 C 1.06667 km/h
1191 23-10-2020 14:00:00 16.23333 C 12.99 g/m*3 16.23 C 1.46667 km/h
1192 23-10-2020 15:00:00 16.58333 C 12.81 g/m*3 16.58 C 3.06667 km/h
1193 23-10-2020 16:00:00 16.55833 C 12.67 g/m*3 16.56 C 2.14167 km/h
1194 23-10-2020 17:00:00 15.79167 C 12.36 g/m*3 15.79 C 2.80833 km/h
1195 23-10-2020 18:00:00 15.09167 C 11.96 g/m*3 15.09 C 3.06667 km/h
1196 23-10-2020 19:00:00 14.19167 C 11.35 g/m*3 14.19 C 4.40833 km/h
1197 23-10-2020 20:00:00 13.38333 C 10.92 g/m*3 13.38 C 2.13333 km/h
1198 23-10-2020 21:00:00 12.83333 C 10.66 g/m*3 12.83 C 3.08333 km/h
1199 23-10-2020 22:00:00 13.175 C 10.96 g/m*3 13.18 C 3.21667 km/h
1200 23-10-2020 23:00:00 12.40833 C 10.44 g/m*3 12.41 C 3.89167 km/h
Sensor: Nr:Datum:Temp:Abs-Feuchte:Windchill:Wind:
Aussen-T/F 1201 24-10-2020 00:00:00 12.76667 C 10.7 g/m*3 12.77 C 8.06667 km/h
1202 24-10-2020 01:00:00 12.65833 C 10.52 g/m*3 12.66 C 6.96667 km/h
1203 24-10-2020 02:00:00 12.375 C 10.25 g/m*3 12.38 C 1.6 km/h
1204 24-10-2020 03:00:00 11.5 C 9.78 g/m*3 11.5 C 0.53333 km/h
1205 24-10-2020 04:00:00 11.04167 C 9.59 g/m*3 11.04 C 0 km/h
1206 24-10-2020 05:00:00 11.03333 C 9.63 g/m*3 11.03 C 1.06667 km/h
1207 24-10-2020 06:00:00 11.14167 C 9.7 g/m*3 11.14 C 1.33333 km/h
1208 24-10-2020 07:00:00 11.65833 C 10.12 g/m*3 11.66 C 2.28333 km/h
1209 24-10-2020 08:00:00 11.96667 C 10.2 g/m*3 11.97 C 9 km/h
1210 24-10-2020 09:00:00 13 C 10.14 g/m*3 13 C 18.64167 km/h
1211 24-10-2020 10:00:00 13.44167 C 9.98 g/m*3 13.44 C 14.9 km/h
1212 24-10-2020 11:00:00 13.36667 C 9.08 g/m*3 13.37 C 18.23333 km/h
1213 24-10-2020 12:00:00 14.45 C 9.54 g/m*3 14.45 C 10.075 km/h
1214 24-10-2020 13:00:00 15.28333 C 9.87 g/m*3 15.28 C 7.925 km/h
1215 24-10-2020 14:00:00 15.28333 C 10.03 g/m*3 15.28 C 7.23333 km/h
1216 24-10-2020 15:00:00 15.45833 C 10.15 g/m*3 15.46 C 6.56667 km/h
1217 24-10-2020 16:00:00 15.275 C 10.26 g/m*3 15.28 C 4.14167 km/h
1218 24-10-2020 17:00:00 15.025 C 10.32 g/m*3 15.03 C 2.94167 km/h
1219 24-10-2020 18:00:00 14.575 C 10.27 g/m*3 14.58 C 3.06667 km/h
1220 24-10-2020 19:00:00 14.26667 C 10.31 g/m*3 14.27 C 3.20833 km/h
1221 24-10-2020 20:00:00 14.26667 C 10.36 g/m*3 14.27 C 5.08333 km/h
1222 24-10-2020 21:00:00 14.10833 C 10.43 g/m*3 14.11 C 3.06667 km/h
1223 24-10-2020 22:00:00 13.94167 C 10.43 g/m*3 13.94 C 3.75 km/h
1224 24-10-2020 23:00:00 13.90833 C 10.4 g/m*3 13.91 C 3.88333 km/h
1225 25-10-2020 00:00:00 14.18333 C 10.4 g/m*3 14.18 C 4.54167 km/h
Sensor: Nr:Datum:Temp:Abs-Feuchte:Windchill:Wind:
Aussen-T/F 1226 25-10-2020 01:00:00 14.3 C 10.34 g/m*3 14.3 C 2.53333 km/h
1227 25-10-2020 02:00:00 14.43333 C 10.17 g/m*3 14.43 C 4.15 km/h
1228 25-10-2020 04:00:00 13.42174 C 9.68 g/m*3 13.42 C 4.19565 km/h
1229 25-10-2020 05:00:00 12.83077 C 9.47 g/m*3 12.83 C 2.09231 km/h
1230 25-10-2020 06:00:00 11.9 C 9.24 g/m*3 11.9 C 0.66667 km/h
1231 25-10-2020 07:00:00 11.76667 C 9.29 g/m*3 11.77 C 2.80833 km/h
1232 25-10-2020 08:00:00 13.05 C 9.43 g/m*3 13.05 C 2.66667 km/h
1233 25-10-2020 09:00:00 13.775 C 9.61 g/m*3 13.78 C 2.66667 km/h
1234 25-10-2020 10:00:00 14.6 C 9.69 g/m*3 14.6 C 4.13333 km/h
1235 25-10-2020 11:00:00 15.275 C 9.84 g/m*3 15.28 C 4.14167 km/h
1236 25-10-2020 12:00:00 15.55833 C 10.1 g/m*3 15.56 C 3.06667 km/h
1237 25-10-2020 13:00:00 15.95 C 10.32 g/m*3 15.95 C 5.49167 km/h
1238 25-10-2020 14:00:00 15.7 C 10.63 g/m*3 15.7 C 3.48333 km/h
1239 25-10-2020 15:00:00 14.025 C 10.84 g/m*3 14.03 C 0.4 km/h
1240 25-10-2020 16:00:00 13.275 C 10.67 g/m*3 13.28 C 1.2 km/h
1241 25-10-2020 17:00:00 12.40833 C 10.21 g/m*3 12.41 C 2.8 km/h
1242 25-10-2020 18:00:00 11.725 C 9.85 g/m*3 11.73 C 3.075 km/h
1243 25-10-2020 19:00:00 11.30833 C 9.59 g/m*3 11.31 C 3.35833 km/h
1244 25-10-2020 20:00:00 11.03333 C 9.5 g/m*3 11.03 C 2.66667 km/h
1245 25-10-2020 21:00:00 10.76667 C 9.37 g/m*3 10.77 C 0.93333 km/h
1246 25-10-2020 22:00:00 10.61667 C 9.32 g/m*3 10.62 C 0.53333 km/h
1247 25-10-2020 23:00:00 10.675 C 9.41 g/m*3 10.68 C 0.4 km/h
1248 26-10-2020 00:00:00 10.7 C 9.43 g/m*3 10.7 C 1.2 km/h
1249 26-10-2020 01:00:00 10.66667 C 9.41 g/m*3 10.67 C 0.26667 km/h
1250 26-10-2020 02:00:00 10.65833 C 9.34 g/m*3 10.66 C 1.33333 km/h
Sensor: Nr:Datum:Temp:Abs-Feuchte:Windchill:Wind:
Aussen-T/F 1251 26-10-2020 03:00:00 10.65833 C 9.31 g/m*3 10.66 C 0.8 km/h
1252 26-10-2020 04:00:00 10.63333 C 9.35 g/m*3 10.63 C 0.26667 km/h
1253 26-10-2020 05:00:00 10.675 C 9.41 g/m*3 10.68 C 0.53333 km/h
1254 26-10-2020 06:00:00 10.41667 C 9.26 g/m*3 10.42 C 0.93333 km/h
1255 26-10-2020 07:00:00 9.99167 C 9.02 g/m*3 9.99 C 4.55 km/h
1256 26-10-2020 08:00:00 9.8 C 8.89 g/m*3 9.8 C 4.40833 km/h
1257 26-10-2020 09:00:00 10.01667 C 8.82 g/m*3 10.02 C 4.29167 km/h
1258 26-10-2020 10:00:00 10.86667 C 8.76 g/m*3 10.15 C 7.39167 km/h
1259 26-10-2020 11:00:00 11.60833 C 8.7 g/m*3 11.61 C 6.98333 km/h
1260 26-10-2020 12:00:00 11.76667 C 8.42 g/m*3 11.77 C 9.94167 km/h
1261 26-10-2020 13:00:00 12.00833 C 8.16 g/m*3 12.01 C 9.28333 km/h
1262 26-10-2020 14:00:00 12.18333 C 7.96 g/m*3 12.18 C 7.4 km/h
1263 26-10-2020 15:00:00 12.23333 C 7.89 g/m*3 12.23 C 5.625 km/h
1264 26-10-2020 16:00:00 12.05 C 8.09 g/m*3 12.05 C 3.875 km/h
1265 26-10-2020 17:00:00 10.44167 C 7.9 g/m*3 10.44 C 2.4 km/h
1266 26-10-2020 18:00:00 8.625 C 7.45 g/m*3 8.63 C 4.13333 km/h
1267 26-10-2020 19:00:00 7.68333 C 7.29 g/m*3 7.68 C 2.26667 km/h
1268 26-10-2020 20:00:00 7.625 C 7.33 g/m*3 7.63 C 2 km/h
1269 26-10-2020 21:00:00 8.125 C 7.4 g/m*3 8.13 C 3.075 km/h
1270 26-10-2020 22:00:00 7.775 C 7.35 g/m*3 7.78 C 2 km/h
1271 26-10-2020 23:00:00 7.66667 C 7.38 g/m*3 7.67 C 2.54167 km/h
1272 27-10-2020 00:00:00 7.83333 C 7.48 g/m*3 7.83 C 4.01667 km/h
1273 27-10-2020 01:00:00 8.39167 C 7.73 g/m*3 8.39 C 2.40833 km/h
1274 27-10-2020 02:00:00 9.33333 C 7.87 g/m*3 9.33 C 3.46667 km/h
1275 27-10-2020 03:00:00 8.90833 C 7.8 g/m*3 8.91 C 3.475 km/h
Sensor: Nr:Datum:Temp:Abs-Feuchte:Windchill:Wind:
Aussen-T/F 1276 27-10-2020 04:00:00 8.84167 C 7.85 g/m*3 8.84 C 2.4 km/h
1277 27-10-2020 05:00:00 8.64167 C 7.83 g/m*3 8.64 C 2.4 km/h
1278 27-10-2020 06:00:00 7.81667 C 7.51 g/m*3 7.82 C 2.13333 km/h
1279 27-10-2020 07:00:00 7.75 C 7.61 g/m*3 7.75 C 1.06667 km/h
1280 27-10-2020 08:00:00 9.04167 C 8.2 g/m*3 9.04 C 1.6 km/h
1281 27-10-2020 09:00:00 10.38333 C 8.42 g/m*3 10.38 C 2.26667 km/h
1282 27-10-2020 10:00:00 11.39167 C 8.56 g/m*3 11.39 C 9.00833 km/h
1283 27-10-2020 11:00:00 11.89167 C 8.49 g/m*3 11.89 C 11.675 km/h
1284 27-10-2020 12:00:00 12.25 C 8.36 g/m*3 12.25 C 13.15833 km/h
1285 27-10-2020 13:00:00 12.625 C 8.29 g/m*3 12.63 C 11.7 km/h
1286 27-10-2020 14:00:00 12.85833 C 8.16 g/m*3 12.86 C 9.675 km/h
1287 27-10-2020 15:00:00 12.675 C 7.85 g/m*3 12.68 C 9.15 km/h
1288 27-10-2020 16:00:00 12.21667 C 7.85 g/m*3 12.22 C 5.49167 km/h
1289 27-10-2020 17:00:00 11.21667 C 7.86 g/m*3 11.22 C 1.6 km/h
1290 27-10-2020 18:00:00 10.66667 C 7.78 g/m*3 10.67 C 2.675 km/h
1291 27-10-2020 19:00:00 11.25833 C 7.78 g/m*3 11.26 C 5.625 km/h
1292 27-10-2020 20:00:00 11.3 C 7.91 g/m*3 11.3 C 5.36667 km/h
1293 27-10-2020 21:00:00 11.05 C 8.07 g/m*3 11.05 C 2.4 km/h
1294 27-10-2020 22:00:00 11.05833 C 8.23 g/m*3 11.06 C 1.46667 km/h
1295 27-10-2020 23:00:00 11.28333 C 8.48 g/m*3 11.28 C 1.6 km/h
1296 28-10-2020 00:00:00 11.61667 C 8.74 g/m*3 11.62 C 3.06667 km/h
1297 28-10-2020 01:00:00 11.7 C 8.91 g/m*3 11.7 C 2.66667 km/h
1298 28-10-2020 02:00:00 11.81667 C 9.11 g/m*3 11.82 C 2.4 km/h
1299 28-10-2020 03:00:00 11.84167 C 9.34 g/m*3 11.84 C 0.53333 km/h
1300 28-10-2020 04:00:00 11.75833 C 9.5 g/m*3 11.76 C 0.53333 km/h
Sensor: Nr:Datum:Temp:Abs-Feuchte:Windchill:Wind:
Aussen-T/F 1301 28-10-2020 05:00:00 11.7 C 9.71 g/m*3 11.7 C 0 km/h
1302 28-10-2020 06:00:00 11.51667 C 9.72 g/m*3 11.52 C 0.8 km/h
1303 28-10-2020 07:00:00 11.26667 C 9.63 g/m*3 11.27 C 1.33333 km/h
1304 28-10-2020 08:00:00 11.51667 C 9.87 g/m*3 11.52 C 0.26667 km/h
1305 28-10-2020 09:00:00 12.30833 C 10.39 g/m*3 12.31 C 0.26667 km/h
1306 28-10-2020 10:00:00 12.64167 C 10.47 g/m*3 12.64 C 2.8 km/h
1307 28-10-2020 11:00:00 13.325 C 10.63 g/m*3 13.33 C 8.18333 km/h
1308 28-10-2020 12:00:00 14.25833 C 10.08 g/m*3 14.26 C 12.76667 km/h
1309 28-10-2020 13:00:00 14.11667 C 8.96 g/m*3 14.12 C 17.03333 km/h
1310 28-10-2020 14:00:00 13.99167 C 8.57 g/m*3 13.99 C 16.76667 km/h
1311 28-10-2020 15:00:00 13.50833 C 8.34 g/m*3 13.51 C 11.41667 km/h
1312 28-10-2020 16:00:00 13.43333 C 8.48 g/m*3 13.43 C 11.55 km/h
1313 28-10-2020 17:00:00 12.94167 C 8.48 g/m*3 12.94 C 6.56667 km/h
1314 28-10-2020 18:00:00 12.61667 C 8.44 g/m*3 12.62 C 5.61667 km/h
1315 28-10-2020 19:00:00 12.65 C 8.42 g/m*3 12.65 C 7.10833 km/h
1316 28-10-2020 20:00:00 13.08333 C 8.54 g/m*3 13.08 C 10.60833 km/h
1317 28-10-2020 21:00:00 12.94167 C 8.7 g/m*3 12.94 C 8.05833 km/h
1318 28-10-2020 22:00:00 12.825 C 8.91 g/m*3 12.83 C 8.70833 km/h
1319 28-10-2020 23:00:00 12.99167 C 9.11 g/m*3 12.99 C 17.44167 km/h
1320 29-10-2020 00:00:00 12.46667 C 9.24 g/m*3 12.47 C 15.03333 km/h
1321 29-10-2020 01:00:00 10.63333 C 8.8 g/m*3 8.92 C 13.15 km/h
1322 29-10-2020 02:00:00 9.80833 C 8.58 g/m*3 9.07 C 6.71667 km/h
1323 29-10-2020 03:00:00 10.175 C 8.84 g/m*3 8.97 C 9.275 km/h
1324 29-10-2020 04:00:00 10.05833 C 8.72 g/m*3 8.9 C 8.86667 km/h
1325 29-10-2020 05:00:00 9.88333 C 8.57 g/m*3 8.5 C 9.94167 km/h
Sensor: Nr:Datum:Temp:Abs-Feuchte:Windchill:Wind:
Aussen-T/F 1326 29-10-2020 06:00:00 9.95833 C 8.4 g/m*3 8.61 C 9.80833 km/h
1327 29-10-2020 07:00:00 9.24167 C 7.92 g/m*3 8.48 C 6.43333 km/h
1328 29-10-2020 08:00:00 9.05833 C 7.89 g/m*3 8.04 C 7.375 km/h
1329 29-10-2020 09:00:00 9.75833 C 8.11 g/m*3 9.15 C 6.16667 km/h
1330 29-10-2020 10:00:00 11.16667 C 8.62 g/m*3 11.17 C 6.175 km/h
1331 29-10-2020 11:00:00 11.58333 C 8.77 g/m*3 11.58 C 6.96667 km/h
1332 29-10-2020 12:00:00 10.7 C 8.87 g/m*3 10.27 C 6.01667 km/h
1333 29-10-2020 13:00:00 10.94167 C 9.31 g/m*3 10.94 C 3.475 km/h
1334 29-10-2020 14:00:00 11.61667 C 9.76 g/m*3 11.62 C 5.61667 km/h
1335 29-10-2020 15:00:00 11.33333 C 9.64 g/m*3 11.33 C 4.94167 km/h
1336 29-10-2020 16:00:00 11.15 C 9.57 g/m*3 11.15 C 6.575 km/h
1337 29-10-2020 17:00:00 10.76667 C 9.37 g/m*3 10.77 C 4.55 km/h
1338 29-10-2020 18:00:00 10.59167 C 9.27 g/m*3 10.59 C 0.66667 km/h
1339 29-10-2020 19:00:00 10.475 C 9.29 g/m*3 10.48 C 0.13333 km/h
1340 29-10-2020 20:00:00 10.64167 C 9.39 g/m*3 10.64 C 4.7 km/h
1341 29-10-2020 21:00:00 10.88333 C 9.54 g/m*3 10.32 C 6.70833 km/h
1342 29-10-2020 22:00:00 11.225 C 9.75 g/m*3 11.23 C 7.10833 km/h
1343 29-10-2020 23:00:00 11.56667 C 9.96 g/m*3 11.57 C 5.90833 km/h
1344 30-10-2020 00:00:00 11.89167 C 10.16 g/m*3 11.89 C 4.81667 km/h
1345 30-10-2020 01:00:00 12.16667 C 10.34 g/m*3 12.17 C 5.35 km/h
1346 30-10-2020 02:00:00 12.39167 C 10.5 g/m*3 12.39 C 5.63333 km/h
1347 30-10-2020 03:00:00 12.75 C 10.68 g/m*3 12.75 C 7.375 km/h
1348 30-10-2020 04:00:00 12.74167 C 10.63 g/m*3 12.74 C 3.48333 km/h
1349 30-10-2020 05:00:00 12.68333 C 10.65 g/m*3 12.68 C 4.14167 km/h
1350 30-10-2020 06:00:00 12.9 C 10.71 g/m*3 12.9 C 3.74167 km/h
Sensor: Nr:Datum:Temp:Abs-Feuchte:Windchill:Wind:
Aussen-T/F 1351 30-10-2020 07:00:00 13.10833 C 10.67 g/m*3 13.11 C 7.11667 km/h
1352 30-10-2020 08:00:00 13.3 C 10.71 g/m*3 13.3 C 4.83333 km/h
1353 30-10-2020 09:00:00 13.79167 C 10.86 g/m*3 13.79 C 9.01667 km/h
1354 30-10-2020 10:00:00 14.525 C 11.09 g/m*3 14.53 C 13.03333 km/h
1355 30-10-2020 11:00:00 15.03333 C 11.21 g/m*3 15.03 C 16.23333 km/h
1356 30-10-2020 12:00:00 15.14167 C 11.25 g/m*3 15.14 C 13.3 km/h
1357 30-10-2020 13:00:00 15.33333 C 11.34 g/m*3 15.33 C 13.03333 km/h
1358 30-10-2020 14:00:00 15.30833 C 11.28 g/m*3 15.31 C 6.43333 km/h
1359 30-10-2020 15:00:00 15.35833 C 11.15 g/m*3 15.36 C 9 km/h
1360 30-10-2020 16:00:00 14.94167 C 11.04 g/m*3 14.94 C 8.05833 km/h
1361 30-10-2020 17:00:00 14.29167 C 11.01 g/m*3 14.29 C 5.21667 km/h
1362 30-10-2020 18:00:00 13.98333 C 10.97 g/m*3 13.98 C 2 km/h
1363 30-10-2020 19:00:00 14.05833 C 10.83 g/m*3 14.06 C 5.76667 km/h
1364 30-10-2020 20:00:00 14.26667 C 10.72 g/m*3 14.27 C 10.625 km/h
1365 30-10-2020 21:00:00 14.175 C 10.65 g/m*3 14.18 C 9.95833 km/h
1366 30-10-2020 22:00:00 13.76667 C 10.42 g/m*3 13.77 C 9.68333 km/h
1367 30-10-2020 23:00:00 13.69167 C 10.34 g/m*3 13.69 C 10.21667 km/h
1368 31-10-2020 00:00:00 13.70833 C 10.2 g/m*3 13.71 C 9.69167 km/h
1369 31-10-2020 01:00:00 13.625 C 10.22 g/m*3 13.63 C 6.69167 km/h
1370 31-10-2020 02:00:00 13.58333 C 10.17 g/m*3 13.58 C 6.03333 km/h
1371 31-10-2020 03:00:00 13.43333 C 10.13 g/m*3 13.43 C 1.6 km/h
1372 31-10-2020 04:00:00 12.75833 C 10.03 g/m*3 12.76 C 0.13333 km/h
1373 31-10-2020 05:00:00 12.375 C 9.95 g/m*3 12.38 C 0 km/h
1374 31-10-2020 06:00:00 12.15833 C 9.9 g/m*3 12.16 C 0 km/h
1375 31-10-2020 07:00:00 12.04167 C 9.88 g/m*3 12.04 C 0 km/h
Sensor: Nr:Datum:Temp:Abs-Feuchte:Windchill:Wind:
Aussen-T/F 1376 31-10-2020 08:00:00 12.31667 C 10.08 g/m*3 12.32 C 0.4 km/h
1377 31-10-2020 09:00:00 13.25833 C 9.79 g/m*3 13.26 C 3.075 km/h
1378 31-10-2020 10:00:00 13.79167 C 9.48 g/m*3 13.79 C 4.69167 km/h
1379 31-10-2020 11:00:00 13.66667 C 9.66 g/m*3 13.67 C 3.60833 km/h
1380 31-10-2020 12:00:00 14.28333 C 9.8 g/m*3 14.28 C 5.61667 km/h
1381 31-10-2020 13:00:00 15.39167 C 10.01 g/m*3 15.39 C 4.68333 km/h
1382 31-10-2020 14:00:00 15.73333 C 10.32 g/m*3 15.73 C 4.54167 km/h
1383 31-10-2020 15:00:00 14.64167 C 10.29 g/m*3 14.64 C 4.675 km/h
1384 31-10-2020 16:00:00 13.46667 C 10.08 g/m*3 13.47 C 4.40833 km/h
1385 31-10-2020 17:00:00 12.26667 C 9.59 g/m*3 12.27 C 4.93333 km/h
1386 31-10-2020 18:00:00 11.28333 C 9.3 g/m*3 11.28 C 4.26667 km/h
1387 31-10-2020 19:00:00 11.4 C 9.44 g/m*3 11.4 C 3.2 km/h
1388 31-10-2020 20:00:00 11.98333 C 9.71 g/m*3 11.98 C 1.6 km/h
1389 31-10-2020 21:00:00 12.51667 C 9.96 g/m*3 12.52 C 1.2 km/h
1390 31-10-2020 22:00:00 12.7 C 10.34 g/m*3 12.7 C 1.73333 km/h
1391 31-10-2020 23:00:00 13.05833 C 10.72 g/m*3 13.06 C 6.025 km/h
1392 01-11-2020 00:00:00 13.1 C 10.84 g/m*3 13.1 C 2.26667 km/h
1393 01-11-2020 01:00:00 13.13333 C 10.91 g/m*3 13.13 C 0.93333 km/h
1394 01-11-2020 02:00:00 13.175 C 11.01 g/m*3 13.18 C 1.2 km/h
1395 01-11-2020 03:00:00 13.1 C 10.95 g/m*3 13.1 C 0 km/h
1396 01-11-2020 04:00:00 13.04167 C 10.92 g/m*3 13.04 C 0 km/h
1397 01-11-2020 05:00:00 12.76667 C 10.73 g/m*3 12.77 C 0 km/h
1398 01-11-2020 06:00:00 12.51667 C 10.61 g/m*3 12.52 C 0 km/h
1399 01-11-2020 07:00:00 12.55 C 10.69 g/m*3 12.55 C 0 km/h
1400 01-11-2020 08:00:00 13.10833 C 11.07 g/m*3 13.11 C 0 km/h
Sensor: Nr:Datum:Temp:Abs-Feuchte:Windchill:Wind:
Aussen-T/F 1401 01-11-2020 09:00:00 13.875 C 11.62 g/m*3 13.88 C 2.275 km/h
1402 01-11-2020 10:00:00 15.05 C 12.19 g/m*3 15.05 C 10.75833 km/h
1403 01-11-2020 11:00:00 16.35 C 12.38 g/m*3 16.35 C 4.55833 km/h
1404 01-11-2020 12:00:00 16.775 C 12.44 g/m*3 16.77 C 3.48333 km/h
1405 01-11-2020 13:00:00 16.94167 C 12.6 g/m*3 16.94 C 8.6 km/h
1406 01-11-2020 14:00:00 16.83333 C 12.68 g/m*3 16.83 C 12.23333 km/h
1407 01-11-2020 15:00:00 16.71667 C 12.48 g/m*3 16.72 C 16.76667 km/h
1408 01-11-2020 16:00:00 16.74167 C 12.48 g/m*3 16.74 C 14.36667 km/h
1409 01-11-2020 17:00:00 16.6 C 12.51 g/m*3 16.6 C 10.49167 km/h
1410 01-11-2020 18:00:00 16.71667 C 12.6 g/m*3 16.72 C 9.00833 km/h
1411 01-11-2020 19:00:00 16.86667 C 12.63 g/m*3 16.87 C 11.025 km/h
1412 01-11-2020 20:00:00 16.975 C 12.71 g/m*3 16.98 C 12.48333 km/h
1413 01-11-2020 21:00:00 17.125 C 12.77 g/m*3 17.13 C 12.89167 km/h
1414 01-11-2020 22:00:00 17.175 C 12.86 g/m*3 17.18 C 8.06667 km/h
1415 01-11-2020 23:00:00 17.25833 C 12.93 g/m*3 17.26 C 4.68333 km/h
1416 02-11-2020 00:00:00 17.56667 C 13.16 g/m*3 17.57 C 7.65833 km/h
1417 02-11-2020 01:00:00 17.90833 C 13.35 g/m*3 17.91 C 13.15833 km/h
1418 02-11-2020 02:00:00 18.19167 C 13.45 g/m*3 18.19 C 14.76667 km/h
1419 02-11-2020 03:00:00 18.575 C 13.36 g/m*3 18.58 C 13.16667 km/h
1420 02-11-2020 04:00:00 18.7 C 13.42 g/m*3 18.7 C 9.95 km/h
1421 02-11-2020 05:00:00 18.38333 C 13.6 g/m*3 18.38 C 10.89167 km/h
1422 02-11-2020 06:00:00 18.60833 C 13.46 g/m*3 18.61 C 14.23333 km/h
1423 02-11-2020 07:00:00 19.01667 C 13.25 g/m*3 19.02 C 18.90833 km/h
1424 02-11-2020 08:00:00 19.21667 C 13.14 g/m*3 19.22 C 20.24167 km/h
1425 02-11-2020 09:00:00 19.46667 C 13.05 g/m*3 19.47 C 21.04167 km/h
Sensor: Nr:Datum:Temp:Abs-Feuchte:Windchill:Wind:
Aussen-T/F 1426 02-11-2020 10:00:00 19.35 C 13.06 g/m*3 19.35 C 14.5 km/h
1427 02-11-2020 11:00:00 19.59167 C 13.02 g/m*3 19.59 C 11.83333 km/h
1428 02-11-2020 12:00:00 20.23333 C 13.05 g/m*3 20.23 C 13.7 km/h
1429 02-11-2020 13:00:00 20.46667 C 12.93 g/m*3 20.47 C 14.9 km/h
1430 02-11-2020 14:00:00 20.7 C 12.89 g/m*3 20.7 C 15.96667 km/h
1431 02-11-2020 15:00:00 20.93333 C 12.86 g/m*3 20.93 C 15.96667 km/h
1432 02-11-2020 16:00:00 20.69167 C 12.7 g/m*3 20.69 C 17.43333 km/h
1433 02-11-2020 17:00:00 19.75 C 12.69 g/m*3 19.75 C 12.48333 km/h
1434 02-11-2020 18:00:00 19.625 C 12.82 g/m*3 19.63 C 12.35 km/h
1435 02-11-2020 19:00:00 19.70833 C 12.91 g/m*3 19.71 C 16.91667 km/h
1436 02-11-2020 20:00:00 18.83333 C 12.8 g/m*3 18.83 C 13.55833 km/h
1437 02-11-2020 21:00:00 14.275 C 11.17 g/m*3 14.28 C 4.56667 km/h
1438 02-11-2020 22:00:00 13.01667 C 10.49 g/m*3 13.02 C 5.9 km/h
1439 02-11-2020 23:00:00 11.94167 C 9.89 g/m*3 11.94 C 4.80833 km/h
1440 03-11-2020 00:00:00 11.48333 C 9.53 g/m*3 11.48 C 6.43333 km/h
1441 03-11-2020 01:00:00 11.38333 C 8.97 g/m*3 11.38 C 6.56667 km/h
1442 03-11-2020 02:00:00 11.275 C 8.83 g/m*3 11.28 C 4.68333 km/h
1443 03-11-2020 03:00:00 11.48333 C 8.75 g/m*3 11.48 C 6.30833 km/h
1444 03-11-2020 04:00:00 11.31667 C 8.71 g/m*3 11.32 C 6.15833 km/h
1445 03-11-2020 05:00:00 11 C 8.59 g/m*3 11 C 3.475 km/h
1446 03-11-2020 06:00:00 10.71667 C 8.41 g/m*3 10.72 C 3.46667 km/h
1447 03-11-2020 07:00:00 10.24167 C 8.25 g/m*3 9.74 C 6.025 km/h
1448 03-11-2020 08:00:00 9.46667 C 8.1 g/m*3 9.47 C 2.8 km/h
1449 03-11-2020 09:00:00 9.13333 C 8.14 g/m*3 9.13 C 2.26667 km/h
1450 03-11-2020 10:00:00 9.56667 C 8.38 g/m*3 9.57 C 4.68333 km/h
Sensor: Nr:Datum:Temp:Abs-Feuchte:Windchill:Wind:
Aussen-T/F 1451 03-11-2020 11:00:00 11.00833 C 8.55 g/m*3 11.01 C 8.19167 km/h
1452 03-11-2020 12:00:00 12.09167 C 8.54 g/m*3 12.09 C 11.16667 km/h
1453 03-11-2020 13:00:00 12.61667 C 8.42 g/m*3 12.62 C 8.74167 km/h
1454 03-11-2020 14:00:00 12.65833 C 8.18 g/m*3 12.66 C 6.71667 km/h
1455 03-11-2020 15:00:00 12.78333 C 8.08 g/m*3 12.78 C 8.73333 km/h
1456 03-11-2020 16:00:00 12.33333 C 7.95 g/m*3 12.33 C 4.01667 km/h
1457 03-11-2020 17:00:00 11.59167 C 8.12 g/m*3 11.59 C 4.14167 km/h
1458 03-11-2020 18:00:00 10.71667 C 8.47 g/m*3 10.33 C 5.88333 km/h
1459 03-11-2020 19:00:00 9.01667 C 8 g/m*3 9.02 C 4.7 km/h
1460 03-11-2020 20:00:00 7.69167 C 7.5 g/m*3 7.69 C 2.53333 km/h
1461 03-11-2020 21:00:00 6.85 C 7.19 g/m*3 6.85 C 2.66667 km/h
1462 03-11-2020 22:00:00 6.24167 C 6.95 g/m*3 6.24 C 2.26667 km/h
1463 03-11-2020 23:00:00 5.875 C 6.84 g/m*3 5.88 C 1.06667 km/h
1464 04-11-2020 00:00:00 5.08333 C 6.49 g/m*3 5.08 C 1.46667 km/h
1465 04-11-2020 01:00:00 5.03333 C 6.5 g/m*3 5.03 C 1.46667 km/h
1466 04-11-2020 02:00:00 4.99167 C 6.48 g/m*3 4.99 C 2.4 km/h
1467 04-11-2020 03:00:00 4.325 C 6.2 g/m*3 4.33 C 1.33333 km/h
1468 04-11-2020 04:00:00 3.74167 C 5.98 g/m*3 3.74 C 0.26667 km/h
1469 04-11-2020 05:00:00 3.14167 C 5.75 g/m*3 3.14 C 0.4 km/h
1470 04-11-2020 06:00:00 2.8 C 5.63 g/m*3 2.8 C 1.2 km/h
1471 04-11-2020 07:00:00 2.54167 C 5.53 g/m*3 2.54 C 0 km/h
1472 04-11-2020 08:00:00 2.50833 C 5.53 g/m*3 2.51 C 0 km/h
1473 04-11-2020 09:00:00 3.13333 C 5.79 g/m*3 3.13 C 0 km/h
1474 04-11-2020 10:00:00 3.525 C 5.95 g/m*3 3.53 C 0 km/h
1475 04-11-2020 11:00:00 4.80833 C 6.51 g/m*3 4.81 C 0 km/h
Sensor: Nr:Datum:Temp:Abs-Feuchte:Windchill:Wind:
Aussen-T/F 1476 04-11-2020 12:00:00 5.91667 C 7 g/m*3 5.92 C 0.4 km/h
1477 04-11-2020 13:00:00 6.68333 C 7.36 g/m*3 6.68 C 3.33333 km/h
1478 04-11-2020 14:00:00 7.64167 C 7.82 g/m*3 7.64 C 1.86667 km/h
1479 04-11-2020 15:00:00 8.16667 C 7.8 g/m*3 8.17 C 2.4 km/h
1480 04-11-2020 16:00:00 7.58333 C 7.37 g/m*3 7.58 C 3.33333 km/h
1481 04-11-2020 17:00:00 6.375 C 6.83 g/m*3 6.38 C 0.66667 km/h
1482 04-11-2020 18:00:00 5.28333 C 6.41 g/m*3 5.28 C 0.26667 km/h
1483 04-11-2020 19:00:00 4.45 C 6.14 g/m*3 4.45 C 0 km/h
1484 04-11-2020 20:00:00 3.575 C 5.82 g/m*3 3.58 C 0 km/h
1485 04-11-2020 21:00:00 3.04167 C 5.66 g/m*3 3.04 C 0 km/h
1486 04-11-2020 22:00:00 2.56667 C 5.49 g/m*3 2.57 C 0 km/h
1487 04-11-2020 23:00:00 2.15 C 5.36 g/m*3 2.15 C 0 km/h
1488 05-11-2020 00:00:00 1.775 C 5.24 g/m*3 1.78 C 0 km/h
1489 05-11-2020 01:00:00 1.75833 C 5.25 g/m*3 1.76 C 0.53333 km/h
1490 05-11-2020 02:00:00 2.2 C 5.41 g/m*3 2.2 C 0.4 km/h
1491 05-11-2020 03:00:00 2.10833 C 5.37 g/m*3 2.11 C 0.26667 km/h
1492 05-11-2020 04:00:00 2.09167 C 5.4 g/m*3 2.09 C 0 km/h
1493 05-11-2020 05:00:00 2.24167 C 5.48 g/m*3 2.24 C 0 km/h
1494 05-11-2020 06:00:00 2.3 C 5.5 g/m*3 2.3 C 0 km/h
1495 05-11-2020 07:00:00 2.38 C 5.53 g/m*3 2.38 C 0.48 km/h
1496 05-11-2020 12:00:00 3.76 C 6.07 g/m*3 3.76 C 3.36 km/h
1497 05-11-2020 13:00:00 4.19167 C 6.25 g/m*3 4.19 C 2.66667 km/h
1498 05-11-2020 14:00:00 4.2 C 6.25 g/m*3 4.2 C 2.93333 km/h
1499 05-11-2020 15:00:00 4.43333 C 6.37 g/m*3 4.43 C 2 km/h
1500 05-11-2020 16:00:00 4.39167 C 6.33 g/m*3 4.39 C 0 km/h
Sensor: Nr:Datum:Temp:Abs-Feuchte:Windchill:Wind:
Aussen-T/F 1501 05-11-2020 17:00:00 4.18333 C 6.24 g/m*3 4.18 C 0.4 km/h
1502 05-11-2020 18:00:00 3.79167 C 6.08 g/m*3 3.79 C 0.4 km/h
1503 05-11-2020 19:00:00 3.39167 C 5.92 g/m*3 3.39 C 0 km/h
1504 05-11-2020 20:00:00 3.325 C 5.89 g/m*3 3.33 C 0 km/h
1505 05-11-2020 21:00:00 3.26667 C 5.87 g/m*3 3.27 C 0.93333 km/h
1506 05-11-2020 22:00:00 3.23333 C 5.87 g/m*3 3.23 C 0 km/h
1507 05-11-2020 23:00:00 3.31667 C 5.9 g/m*3 3.32 C 0.8 km/h
1508 06-11-2020 00:00:00 3.075 C 5.8 g/m*3 3.08 C 0.66667 km/h
1509 06-11-2020 01:00:00 2.675 C 5.65 g/m*3 2.68 C 1.6 km/h
1510 06-11-2020 02:00:00 2.56667 C 5.63 g/m*3 2.57 C 1.46667 km/h
1511 06-11-2020 03:00:00 2.65833 C 5.64 g/m*3 2.66 C 0.53333 km/h
1512 06-11-2020 04:00:00 2.5 C 5.62 g/m*3 2.5 C 0.8 km/h
1513 06-11-2020 05:00:00 2.48333 C 5.59 g/m*3 2.48 C 0.66667 km/h
1514 06-11-2020 06:00:00 2.61667 C 5.66 g/m*3 2.62 C 0.26667 km/h
1515 06-11-2020 07:00:00 2.54167 C 5.65 g/m*3 2.54 C 0.4 km/h
1516 06-11-2020 08:00:00 2.54167 C 5.65 g/m*3 2.54 C 0.26667 km/h
1517 06-11-2020 09:00:00 3.03333 C 5.84 g/m*3 3.03 C 0 km/h
1518 06-11-2020 10:00:00 3.61667 C 6.07 g/m*3 3.62 C 0.53333 km/h
1519 06-11-2020 11:00:00 4.11667 C 6.28 g/m*3 4.12 C 1.46667 km/h
1520 06-11-2020 12:00:00 4.35 C 6.38 g/m*3 4.35 C 1.6 km/h
1521 06-11-2020 13:00:00 5.11667 C 6.71 g/m*3 5.12 C 1.73333 km/h
1522 06-11-2020 14:00:00 6.00833 C 7.12 g/m*3 6.01 C 3.86667 km/h
1523 06-11-2020 15:00:00 6.35 C 7.28 g/m*3 6.35 C 3.73333 km/h
1524 06-11-2020 16:00:00 5.65 C 6.95 g/m*3 5.65 C 3.6 km/h
1525 06-11-2020 17:00:00 4.5 C 6.39 g/m*3 4.5 C 4.13333 km/h
Sensor: Nr:Datum:Temp:Abs-Feuchte:Windchill:Wind:
Aussen-T/F 1526 06-11-2020 18:00:00 3.39167 C 5.91 g/m*3 3.39 C 1.06667 km/h
1527 06-11-2020 19:00:00 2.425 C 5.49 g/m*3 2.42 C 0 km/h
1528 06-11-2020 20:00:00 1.875 C 5.29 g/m*3 1.88 C 0 km/h
1529 06-11-2020 21:00:00 1.45833 C 5.14 g/m*3 1.46 C 0 km/h
1530 06-11-2020 22:00:00 1.24167 C 5.07 g/m*3 1.24 C 0 km/h
1531 06-11-2020 23:00:00 0.89167 C 4.95 g/m*3 0.89 C 0 km/h
1532 07-11-2020 00:00:00 0.79167 C 4.91 g/m*3 0.79 C 0 km/h
1533 07-11-2020 01:00:00 0.64167 C 4.89 g/m*3 0.64 C 0 km/h
1534 07-11-2020 02:00:00 0.50833 C 4.85 g/m*3 0.51 C 0 km/h
1535 07-11-2020 03:00:00 0.39167 C 4.83 g/m*3 0.39 C 0 km/h
1536 07-11-2020 04:00:00 0.36667 C 4.82 g/m*3 0.37 C 0 km/h
1537 07-11-2020 05:00:00 0.3 C 4.8 g/m*3 0.3 C 0 km/h
1538 07-11-2020 06:00:00 0.3 C 4.8 g/m*3 0.3 C 0 km/h
1539 07-11-2020 07:00:00 0.30833 C 4.8 g/m*3 0.31 C 0 km/h
1540 07-11-2020 08:00:00 0.71667 C 4.94 g/m*3 0.72 C 0 km/h
1541 07-11-2020 09:00:00 1.48 C 5.2 g/m*3 1.48 C 0 km/h
1542 07-11-2020 10:00:00 2.775 C 5.72 g/m*3 2.78 C 0.26667 km/h
1543 07-11-2020 11:00:00 4.875 C 6.6 g/m*3 4.88 C 1.6 km/h
1544 07-11-2020 12:00:00 6.59167 C 7.39 g/m*3 6.59 C 3.73333 km/h
1545 07-11-2020 13:00:00 7.81667 C 8.01 g/m*3 7.82 C 3.6 km/h
1546 07-11-2020 14:00:00 8.89167 C 8.58 g/m*3 8.89 C 4.8 km/h
1547 07-11-2020 15:00:00 9.68333 C 8.87 g/m*3 9.68 C 4 km/h
1548 07-11-2020 16:00:00 9.475 C 8.41 g/m*3 9.48 C 2.13333 km/h
1549 07-11-2020 17:00:00 8.09167 C 7.62 g/m*3 8.09 C 2.13333 km/h
1550 07-11-2020 18:00:00 7.41667 C 7.4 g/m*3 7.42 C 4.13333 km/h
Sensor: Nr:Datum:Temp:Abs-Feuchte:Windchill:Wind:
Aussen-T/F 1551 07-11-2020 19:00:00 6.80833 C 7.12 g/m*3 6.81 C 1.6 km/h
1552 07-11-2020 20:00:00 6.3 C 6.91 g/m*3 6.3 C 0 km/h
1553 07-11-2020 21:00:00 5.6 C 6.65 g/m*3 5.6 C 0 km/h
1554 07-11-2020 22:00:00 4.925 C 6.39 g/m*3 4.93 C 0 km/h
1555 07-11-2020 23:00:00 4.225 C 6.13 g/m*3 4.22 C 0 km/h
1556 08-11-2020 00:00:00 3.95 C 6.07 g/m*3 3.95 C 0 km/h
1557 08-11-2020 01:00:00 3.45833 C 5.88 g/m*3 3.46 C 0 km/h
1558 08-11-2020 02:00:00 3.20833 C 5.79 g/m*3 3.21 C 0 km/h
1559 08-11-2020 03:00:00 2.84167 C 5.65 g/m*3 2.84 C 0 km/h
1560 08-11-2020 04:00:00 2.625 C 5.57 g/m*3 2.63 C 0 km/h
1561 08-11-2020 05:00:00 2.59167 C 5.59 g/m*3 2.59 C 0 km/h
1562 08-11-2020 06:00:00 2.51667 C 5.56 g/m*3 2.52 C 0 km/h
1563 08-11-2020 07:00:00 2.425 C 5.55 g/m*3 2.42 C 0 km/h
1564 08-11-2020 08:00:00 2.775 C 5.68 g/m*3 2.78 C 0 km/h
1565 08-11-2020 09:00:00 3.93333 C 6.15 g/m*3 3.93 C 0 km/h
1566 08-11-2020 10:00:00 5.31667 C 6.79 g/m*3 5.32 C 0 km/h
1567 08-11-2020 11:00:00 7.00833 C 7.59 g/m*3 7.01 C 0 km/h
1568 08-11-2020 12:00:00 8.80833 C 8.46 g/m*3 8.81 C 0 km/h
1569 08-11-2020 13:00:00 10.29167 C 9.07 g/m*3 10.29 C 0 km/h
1570 08-11-2020 14:00:00 11.88333 C 9.5 g/m*3 11.88 C 0 km/h
1571 08-11-2020 15:00:00 12.73333 C 9.76 g/m*3 12.73 C 0 km/h
1572 08-11-2020 16:00:00 12.11667 C 9.5 g/m*3 12.12 C 0 km/h
1573 08-11-2020 17:00:00 11.05 C 9.15 g/m*3 11.05 C 0 km/h
1574 08-11-2020 18:00:00 10.68333 C 9.11 g/m*3 10.68 C 0 km/h
1575 08-11-2020 19:00:00 10.56667 C 9.16 g/m*3 10.57 C 0 km/h
Sensor: Nr:Datum:Temp:Abs-Feuchte:Windchill:Wind:
Aussen-T/F 1576 08-11-2020 20:00:00 10.25 C 9.05 g/m*3 10.25 C 0 km/h
1577 08-11-2020 21:00:00 9.975 C 8.91 g/m*3 9.98 C 0 km/h
1578 08-11-2020 22:00:00 9.61667 C 8.71 g/m*3 9.62 C 0 km/h
1579 08-11-2020 23:00:00 9.40833 C 8.61 g/m*3 9.41 C 0 km/h
1580 09-11-2020 00:00:00 9.45 C 8.71 g/m*3 9.45 C 0 km/h
1581 09-11-2020 01:00:00 9.4 C 8.68 g/m*3 9.4 C 0 km/h
1582 09-11-2020 02:00:00 9.35833 C 8.66 g/m*3 9.36 C 0 km/h
1583 09-11-2020 03:00:00 9.325 C 8.65 g/m*3 9.32 C 1.34167 km/h
1584 09-11-2020 04:00:00 9.19167 C 8.61 g/m*3 9.19 C 0 km/h
1585 09-11-2020 05:00:00 8.425 C 8.19 g/m*3 8.43 C 0 km/h
1586 09-11-2020 06:00:00 8.3 C 8.15 g/m*3 8.3 C 0 km/h
1587 09-11-2020 07:00:00 8.075 C 8.05 g/m*3 8.07 C 0 km/h
1588 09-11-2020 08:00:00 8.35 C 8.2 g/m*3 8.35 C 0 km/h
1589 09-11-2020 09:00:00 8.96667 C 8.53 g/m*3 8.97 C 0 km/h
1590 09-11-2020 10:00:00 9.76667 C 9 g/m*3 9.77 C 0 km/h
1591 09-11-2020 11:00:00 11.00833 C 9.81 g/m*3 11.01 C 0 km/h
1592 09-11-2020 12:00:00 11.8 C 10.29 g/m*3 11.8 C 0 km/h
1593 09-11-2020 13:00:00 13.08333 C 11.07 g/m*3 13.08 C 0 km/h
1594 09-11-2020 14:00:00 13.675 C 10.94 g/m*3 13.68 C 0.53333 km/h
1595 09-11-2020 15:00:00 13.21667 C 10.69 g/m*3 13.22 C 0.26667 km/h
1596 09-11-2020 16:00:00 12.48333 C 10.29 g/m*3 12.48 C 0.26667 km/h
1597 09-11-2020 17:00:00 11.51667 C 9.74 g/m*3 11.52 C 2.8 km/h
1598 09-11-2020 18:00:00 10.46667 C 9.19 g/m*3 10.47 C 0.8 km/h
1599 09-11-2020 19:00:00 9.66667 C 8.79 g/m*3 9.67 C 0 km/h
1600 09-11-2020 20:00:00 9.08333 C 8.51 g/m*3 9.08 C 0.4 km/h
Sensor: Nr:Datum:Temp:Abs-Feuchte:Windchill:Wind:
Aussen-T/F 1601 09-11-2020 21:00:00 8.16667 C 8.02 g/m*3 8.17 C 0 km/h
1602 09-11-2020 22:00:00 7.225 C 7.55 g/m*3 7.23 C 0 km/h
1603 09-11-2020 23:00:00 6.63333 C 7.26 g/m*3 6.63 C 0 km/h
1604 10-11-2020 00:00:00 6.11667 C 7.05 g/m*3 6.12 C 0 km/h
1605 10-11-2020 01:00:00 6.175 C 7.12 g/m*3 6.18 C 0 km/h
1606 10-11-2020 02:00:00 6.06667 C 7.07 g/m*3 6.07 C 0 km/h
1607 10-11-2020 03:00:00 6.1 C 7.09 g/m*3 6.1 C 0 km/h
1608 10-11-2020 04:00:00 6.00833 C 7.04 g/m*3 6.01 C 0 km/h
1609 10-11-2020 05:00:00 5.74167 C 6.92 g/m*3 5.74 C 0 km/h
1610 10-11-2020 06:00:00 5.71667 C 6.91 g/m*3 5.72 C 0 km/h
1611 10-11-2020 07:00:00 5.7 C 6.9 g/m*3 5.7 C 0 km/h
1612 10-11-2020 08:00:00 5.70833 C 6.91 g/m*3 5.71 C 0.13333 km/h
1613 10-11-2020 09:00:00 5.98333 C 7.08 g/m*3 5.98 C 0.13333 km/h
1614 10-11-2020 10:00:00 6.49167 C 7.33 g/m*3 6.49 C 0 km/h
1615 10-11-2020 11:00:00 7.49167 C 7.84 g/m*3 7.49 C 0 km/h
1616 10-11-2020 12:00:00 8.10833 C 8.16 g/m*3 8.11 C 0 km/h
1617 10-11-2020 13:00:00 8.65 C 8.45 g/m*3 8.65 C 0.13333 km/h
1618 10-11-2020 14:00:00 9.78333 C 9.08 g/m*3 9.78 C 0 km/h
1619 10-11-2020 15:00:00 10.25833 C 9.27 g/m*3 10.26 C 0 km/h
1620 10-11-2020 16:00:00 9.625 C 8.84 g/m*3 9.63 C 0 km/h
1621 10-11-2020 17:00:00 7.84167 C 7.84 g/m*3 7.84 C 0 km/h
1622 10-11-2020 18:00:00 6.75 C 7.32 g/m*3 6.75 C 0 km/h
1623 10-11-2020 19:00:00 6.66667 C 7.33 g/m*3 6.67 C 0 km/h
1624 10-11-2020 20:00:00 6.58333 C 7.31 g/m*3 6.58 C 0 km/h
1625 10-11-2020 21:00:00 7.16667 C 7.6 g/m*3 7.17 C 0 km/h
Sensor: Nr:Datum:Temp:Abs-Feuchte:Windchill:Wind:
Aussen-T/F 1626 10-11-2020 22:00:00 7.54167 C 7.79 g/m*3 7.54 C 0 km/h
1627 10-11-2020 23:00:00 7.725 C 7.88 g/m*3 7.73 C 0 km/h
1628 11-11-2020 00:00:00 7.7 C 7.87 g/m*3 7.7 C 0 km/h
1629 11-11-2020 01:00:00 7.76667 C 7.9 g/m*3 7.77 C 0 km/h
1630 11-11-2020 02:00:00 7.76667 C 7.9 g/m*3 7.77 C 0 km/h
1631 11-11-2020 03:00:00 7.79167 C 7.91 g/m*3 7.79 C 0 km/h
1632 11-11-2020 04:00:00 7.825 C 7.93 g/m*3 7.83 C 0 km/h
1633 11-11-2020 05:00:00 7.89167 C 7.96 g/m*3 7.89 C 0 km/h
1634 11-11-2020 06:00:00 7.9 C 7.97 g/m*3 7.9 C 0 km/h
1635 11-11-2020 07:00:00 7.91667 C 7.98 g/m*3 7.92 C 0 km/h
1636 11-11-2020 08:00:00 8.08333 C 8.06 g/m*3 8.08 C 0 km/h
1637 11-11-2020 09:00:00 8.40833 C 8.23 g/m*3 8.41 C 0 km/h
1638 11-11-2020 10:00:00 9.05 C 8.54 g/m*3 9.05 C 0.53333 km/h
1639 11-11-2020 11:00:00 9.9 C 8.8 g/m*3 8.97 C 7.64167 km/h
1640 11-11-2020 12:00:00 10 C 8.74 g/m*3 10 C 1.46667 km/h
1641 11-11-2020 13:00:00 10.69167 C 9.05 g/m*3 10.69 C 2.675 km/h
1642 11-11-2020 14:00:00 11.29167 C 9.24 g/m*3 11.29 C 2.66667 km/h
1643 11-11-2020 15:00:00 11.28333 C 9.16 g/m*3 11.28 C 5.89167 km/h
1644 11-11-2020 16:00:00 10.95833 C 9.08 g/m*3 10.96 C 4.69167 km/h
1645 11-11-2020 17:00:00 10.45833 C 8.8 g/m*3 10.46 C 4.15833 km/h
1646 11-11-2020 18:00:00 9.675 C 8.47 g/m*3 8.5 C 8.59167 km/h
1647 11-11-2020 19:00:00 9.05 C 8.23 g/m*3 7.41 C 10.46667 km/h
1648 11-11-2020 20:00:00 8.775 C 8.08 g/m*3 8.78 C 3.6 km/h
1649 11-11-2020 21:00:00 8.7 C 8.09 g/m*3 8.7 C 1.06667 km/h
1650 11-11-2020 22:00:00 8.76667 C 8.16 g/m*3 8.77 C 0.13333 km/h
Sensor: Nr:Datum:Temp:Abs-Feuchte:Windchill:Wind:
Aussen-T/F 1651 11-11-2020 23:00:00 8.8 C 8.18 g/m*3 8.8 C 0 km/h
1652 12-11-2020 00:00:00 8.81667 C 8.19 g/m*3 8.82 C 0.8 km/h
1653 12-11-2020 01:00:00 8.89167 C 8.23 g/m*3 8.89 C 0.26667 km/h
1654 12-11-2020 02:00:00 8.9 C 8.23 g/m*3 8.9 C 0 km/h
1655 12-11-2020 03:00:00 8.9 C 8.23 g/m*3 8.9 C 0 km/h
1656 12-11-2020 04:00:00 8.925 C 8.32 g/m*3 8.93 C 0 km/h
1657 12-11-2020 05:00:00 8.88333 C 8.31 g/m*3 8.88 C 0 km/h
1658 12-11-2020 06:00:00 9.19167 C 8.39 g/m*3 9.19 C 3.33333 km/h
1659 12-11-2020 07:00:00 9.6 C 8.44 g/m*3 9.6 C 4.54167 km/h
1660 12-11-2020 08:00:00 9.975 C 8.54 g/m*3 9.98 C 2.4 km/h
1661 12-11-2020 09:00:00 10.49167 C 8.76 g/m*3 10.49 C 3.46667 km/h
1662 12-11-2020 10:00:00 11.175 C 9.08 g/m*3 11.18 C 1.86667 km/h
1663 12-11-2020 11:00:00 11.86667 C 9.4 g/m*3 11.87 C 2.68333 km/h
1664 12-11-2020 12:00:00 12.00833 C 9.22 g/m*3 12.01 C 10.625 km/h
1665 12-11-2020 13:00:00 12.30833 C 8.97 g/m*3 12.31 C 11.69167 km/h
1666 12-11-2020 14:00:00 12.475 C 8.93 g/m*3 12.48 C 6.98333 km/h
1667 12-11-2020 15:00:00 12.11667 C 8.93 g/m*3 12.12 C 4.275 km/h
1668 12-11-2020 16:00:00 11.525 C 8.34 g/m*3 11.53 C 6.55833 km/h
1669 12-11-2020 17:00:00 9.48333 C 7.89 g/m*3 9.07 C 5.33333 km/h
1670 12-11-2020 18:00:00 8.26667 C 7.57 g/m*3 8.27 C 4.8 km/h
1671 12-11-2020 19:00:00 7.40833 C 7.24 g/m*3 7.41 C 1.06667 km/h
1672 12-11-2020 20:00:00 6.775 C 7.12 g/m*3 6.78 C 2.26667 km/h
1673 12-11-2020 21:00:00 5.9 C 6.72 g/m*3 5.9 C 0.4 km/h
1674 12-11-2020 22:00:00 4.61667 C 6.22 g/m*3 4.62 C 0 km/h
1675 12-11-2020 23:00:00 3.85 C 5.96 g/m*3 3.85 C 0 km/h
Sensor: Nr:Datum:Temp:Abs-Feuchte:Windchill:Wind:
Aussen-T/F 1676 13-11-2020 00:00:00 3.35 C 5.78 g/m*3 3.35 C 0 km/h
1677 13-11-2020 01:00:00 2.89167 C 5.63 g/m*3 2.89 C 0 km/h
1678 13-11-2020 02:00:00 2.375 C 5.45 g/m*3 2.38 C 0.13333 km/h
1679 13-11-2020 03:00:00 2.46667 C 5.51 g/m*3 2.47 C 0 km/h
1680 13-11-2020 04:00:00 2.75833 C 5.63 g/m*3 2.76 C 0.4 km/h
1681 13-11-2020 05:00:00 2.68333 C 5.59 g/m*3 2.68 C 0.53333 km/h
1682 13-11-2020 06:00:00 2.6 C 5.61 g/m*3 2.6 C 0.26667 km/h
1683 13-11-2020 07:00:00 2.63333 C 5.63 g/m*3 2.63 C 0.4 km/h
1684 13-11-2020 08:00:00 2.7 C 5.65 g/m*3 2.7 C 0.53333 km/h
1685 13-11-2020 09:00:00 2.875 C 5.72 g/m*3 2.88 C 1.46667 km/h
1686 13-11-2020 10:00:00 3.38333 C 5.92 g/m*3 3.38 C 0.4 km/h
1687 13-11-2020 11:00:00 4.525 C 6.41 g/m*3 4.53 C 0.53333 km/h
1688 13-11-2020 12:00:00 5.60833 C 6.93 g/m*3 5.61 C 0 km/h
1689 13-11-2020 13:00:00 8.175 C 8.19 g/m*3 8.18 C 0.8 km/h
1690 13-11-2020 14:00:00 9.525 C 8.91 g/m*3 9.53 C 0.26667 km/h
1691 13-11-2020 15:00:00 10.39167 C 9.3 g/m*3 10.39 C 0.4 km/h
1692 13-11-2020 16:00:00 10.68333 C 9.33 g/m*3 10.68 C 0.13333 km/h
1693 13-11-2020 17:00:00 10.775 C 9.38 g/m*3 10.78 C 0.26667 km/h
1694 13-11-2020 18:00:00 11.18333 C 9.57 g/m*3 11.18 C 0.66667 km/h
1695 13-11-2020 19:00:00 11.63333 C 9.81 g/m*3 11.63 C 2.13333 km/h
1696 13-11-2020 20:00:00 11.875 C 9.83 g/m*3 11.88 C 1.33333 km/h
1697 13-11-2020 21:00:00 11.54167 C 9.64 g/m*3 11.54 C 0.4 km/h
1698 13-11-2020 22:00:00 11.30833 C 9.58 g/m*3 11.31 C 0.66667 km/h
1699 13-11-2020 23:00:00 10.91667 C 9.36 g/m*3 10.92 C 0 km/h
1700 14-11-2020 00:00:00 10.45833 C 9.17 g/m*3 10.46 C 0.53333 km/h
Sensor: Nr:Datum:Temp:Abs-Feuchte:Windchill:Wind:
Aussen-T/F 1701 14-11-2020 01:00:00 10.38333 C 9.18 g/m*3 10.38 C 1.06667 km/h
1702 14-11-2020 02:00:00 10.81667 C 9.42 g/m*3 10.82 C 2 km/h
1703 14-11-2020 03:00:00 10.55 C 9.15 g/m*3 10.55 C 2.13333 km/h
1704 14-11-2020 04:00:00 10.01667 C 8.84 g/m*3 10.02 C 3.06667 km/h
1705 14-11-2020 05:00:00 8.975 C 8.24 g/m*3 8.98 C 1.6 km/h
1706 14-11-2020 06:00:00 7.79167 C 7.72 g/m*3 7.79 C 0 km/h
1707 14-11-2020 07:00:00 7.18333 C 7.5 g/m*3 7.18 C 0.26667 km/h
1708 14-11-2020 08:00:00 7.05833 C 7.47 g/m*3 7.06 C 0 km/h
1709 14-11-2020 09:00:00 7.43333 C 7.7 g/m*3 7.43 C 0 km/h
1710 14-11-2020 10:00:00 8.775 C 8.45 g/m*3 8.78 C 0.13333 km/h
1711 14-11-2020 11:00:00 11.16667 C 9.84 g/m*3 11.17 C 0.26667 km/h
1712 14-11-2020 12:00:00 13.025 C 10.51 g/m*3 13.03 C 0.26667 km/h
1713 14-11-2020 13:00:00 14.58333 C 10.54 g/m*3 14.58 C 6.05 km/h
1714 14-11-2020 14:00:00 14.99167 C 10.34 g/m*3 14.99 C 4.00833 km/h
1715 14-11-2020 15:00:00 14.1 C 10.23 g/m*3 14.1 C 3.6 km/h
1716 14-11-2020 16:00:00 13.08333 C 9.94 g/m*3 13.08 C 5.06667 km/h
1717 14-11-2020 17:00:00 11.71667 C 9.41 g/m*3 11.72 C 2.4 km/h
1718 14-11-2020 18:00:00 10.75 C 9.11 g/m*3 10.75 C 0 km/h
1719 14-11-2020 19:00:00 10.19167 C 8.9 g/m*3 10.19 C 2.13333 km/h
1720 14-11-2020 20:00:00 9.41667 C 8.53 g/m*3 9.42 C 0 km/h
1721 14-11-2020 21:00:00 9.50833 C 8.72 g/m*3 9.51 C 0 km/h
1722 14-11-2020 22:00:00 9.48333 C 8.73 g/m*3 9.48 C 0.26667 km/h
1723 14-11-2020 23:00:00 9.64167 C 8.84 g/m*3 9.64 C 1.46667 km/h
1724 15-11-2020 00:00:00 10.375 C 9.28 g/m*3 10.38 C 0.66667 km/h
1725 15-11-2020 01:00:00 10.325 C 9.21 g/m*3 10.33 C 0.93333 km/h
Sensor: Nr:Datum:Temp:Abs-Feuchte:Windchill:Wind:
Aussen-T/F 1726 15-11-2020 02:00:00 10.775 C 9.47 g/m*3 10.78 C 1.2 km/h
1727 15-11-2020 03:00:00 11.08333 C 9.49 g/m*3 11.08 C 0.4 km/h
1728 15-11-2020 04:00:00 10.84167 C 9.32 g/m*3 10.84 C 1.2 km/h
1729 15-11-2020 05:00:00 11.31667 C 9.51 g/m*3 11.32 C 1.875 km/h
1730 15-11-2020 06:00:00 12.19167 C 9.7 g/m*3 12.19 C 3.21667 km/h
1731 15-11-2020 07:00:00 12.20833 C 9.55 g/m*3 12.21 C 2.4 km/h
1732 15-11-2020 08:00:00 11.31667 C 9.29 g/m*3 11.32 C 0 km/h
1733 15-11-2020 09:00:00 11.43333 C 9.51 g/m*3 11.43 C 1.6 km/h
1734 15-11-2020 10:00:00 13.2 C 10.1 g/m*3 13.2 C 2 km/h
1735 15-11-2020 11:00:00 14.93333 C 10.38 g/m*3 14.93 C 6.84167 km/h
1736 15-11-2020 12:00:00 16.325 C 10.57 g/m*3 16.33 C 8.475 km/h
1737 15-11-2020 13:00:00 17.43333 C 10.58 g/m*3 17.43 C 6.98333 km/h
1738 15-11-2020 14:00:00 17.85833 C 10.31 g/m*3 17.86 C 6.43333 km/h
1739 15-11-2020 15:00:00 17.325 C 10.19 g/m*3 17.33 C 4.54167 km/h
1740 15-11-2020 16:00:00 16.125 C 9.96 g/m*3 16.13 C 3.60833 km/h
1741 15-11-2020 17:00:00 15.74167 C 10.04 g/m*3 15.74 C 4.15 km/h
1742 15-11-2020 18:00:00 14.60833 C 10.83 g/m*3 14.61 C 5.21667 km/h
1743 15-11-2020 19:00:00 13.56667 C 10.73 g/m*3 13.57 C 6.15833 km/h
1744 15-11-2020 20:00:00 13.59167 C 10.71 g/m*3 13.59 C 10.05 km/h
1745 15-11-2020 21:00:00 11.79167 C 9.55 g/m*3 11.79 C 6.43333 km/h
1746 15-11-2020 22:00:00 10.93333 C 9.37 g/m*3 10.93 C 2.13333 km/h
1747 15-11-2020 23:00:00 11.21667 C 9.1 g/m*3 11.22 C 9.54167 km/h
1748 16-11-2020 00:00:00 10.75833 C 8.77 g/m*3 10.48 C 5.49167 km/h
1749 16-11-2020 01:00:00 10.78333 C 8.29 g/m*3 9.72 C 9.125 km/h
1750 16-11-2020 02:00:00 10.53333 C 8.12 g/m*3 9.79 C 7.25833 km/h
Sensor: Nr:Datum:Temp:Abs-Feuchte:Windchill:Wind:
Aussen-T/F 1751 16-11-2020 03:00:00 10.81667 C 8.13 g/m*3 9.8 C 8.85833 km/h
1752 16-11-2020 04:00:00 10.85 C 8.24 g/m*3 9.29 C 12.35833 km/h
1753 16-11-2020 05:00:00 10.125 C 8.19 g/m*3 8.2 C 13.96667 km/h
1754 16-11-2020 06:00:00 10.025 C 8.09 g/m*3 8.74 C 9.55 km/h
1755 16-11-2020 07:00:00 9.79167 C 8.06 g/m*3 8.39 C 9.95 km/h
1756 16-11-2020 08:00:00 10.15833 C 8.33 g/m*3 8.65 C 11.01667 km/h
1757 16-11-2020 09:00:00 10.60833 C 8.41 g/m*3 9.21 C 10.9 km/h
1758 16-11-2020 10:00:00 10.78333 C 8.36 g/m*3 8.94 C 14.5 km/h
1759 16-11-2020 11:00:00 11.78333 C 8.62 g/m*3 11.78 C 14.23333 km/h
1760 16-11-2020 12:00:00 12.25 C 9.01 g/m*3 12.25 C 15.3 km/h
1761 16-11-2020 13:00:00 12.525 C 9.28 g/m*3 12.53 C 17.56667 km/h
1762 16-11-2020 14:00:00 12.4 C 9.21 g/m*3 12.4 C 13.43333 km/h
1763 16-11-2020 15:00:00 12.30833 C 9.21 g/m*3 12.31 C 15.03333 km/h
1764 16-11-2020 16:00:00 11.63333 C 9 g/m*3 11.63 C 15.03333 km/h
1765 16-11-2020 17:00:00 11.1 C 8.88 g/m*3 11.1 C 11.01667 km/h
1766 16-11-2020 18:00:00 10.90833 C 8.83 g/m*3 9.33 C 12.63333 km/h
1767 16-11-2020 19:00:00 11.15 C 8.83 g/m*3 11.15 C 9.28333 km/h
1768 16-11-2020 20:00:00 10.78333 C 8.68 g/m*3 10.33 C 6.175 km/h
1769 16-11-2020 21:00:00 9.60833 C 8.15 g/m*3 9.61 C 3.88333 km/h
1770 16-11-2020 22:00:00 8.79167 C 7.88 g/m*3 8.36 C 5.075 km/h
1771 16-11-2020 23:00:00 9.14167 C 8.04 g/m*3 8.14 C 7.38333 km/h
1772 17-11-2020 00:00:00 9.375 C 8.11 g/m*3 8.41 C 7.39167 km/h
1773 17-11-2020 01:00:00 10.025 C 8.27 g/m*3 9.29 C 6.85 km/h
1774 17-11-2020 02:00:00 10.44167 C 8.41 g/m*3 9.1 C 10.35833 km/h
1775 17-11-2020 03:00:00 10.59167 C 8.42 g/m*3 9.18 C 11.025 km/h
Sensor: Nr:Datum:Temp:Abs-Feuchte:Windchill:Wind:
Aussen-T/F 1776 17-11-2020 04:00:00 10.68333 C 8.47 g/m*3 9.22 C 11.43333 km/h
1777 17-11-2020 05:00:00 10.73333 C 8.51 g/m*3 9.35 C 11.01667 km/h
1778 17-11-2020 06:00:00 10.45 C 8.49 g/m*3 9.16 C 10.08333 km/h
1779 17-11-2020 07:00:00 10.60833 C 8.4 g/m*3 10.23 C 5.76667 km/h
1780 17-11-2020 08:00:00 10.7 C 8.45 g/m*3 10.2 C 6.31667 km/h
1781 17-11-2020 09:00:00 11 C 8.59 g/m*3 9.9 C 9.54167 km/h
1782 17-11-2020 10:00:00 11.40833 C 8.71 g/m*3 11.41 C 16.9 km/h
1783 17-11-2020 11:00:00 11.99167 C 8.87 g/m*3 11.99 C 18.76667 km/h
1784 17-11-2020 12:00:00 12.64167 C 9.05 g/m*3 12.64 C 13.7 km/h
1785 17-11-2020 13:00:00 12.825 C 9.09 g/m*3 12.83 C 12.89167 km/h
1786 17-11-2020 14:00:00 13.04167 C 9.11 g/m*3 13.04 C 9.825 km/h
1787 17-11-2020 15:00:00 12.8 C 9.07 g/m*3 12.8 C 8.59167 km/h
1788 17-11-2020 16:00:00 12.65833 C 9.04 g/m*3 12.66 C 9.15 km/h
1789 17-11-2020 17:00:00 12.36667 C 9 g/m*3 12.37 C 5.48333 km/h
1790 17-11-2020 18:00:00 12.25 C 9.01 g/m*3 12.25 C 3.475 km/h
1791 17-11-2020 19:00:00 11.95 C 8.99 g/m*3 11.95 C 1.06667 km/h
1792 17-11-2020 20:00:00 11.85 C 9.08 g/m*3 11.85 C 5.21667 km/h
1793 17-11-2020 21:00:00 11.825 C 9.07 g/m*3 11.83 C 3.88333 km/h
1794 17-11-2020 22:00:00 11.66667 C 9.04 g/m*3 11.67 C 1.875 km/h
1795 17-11-2020 23:00:00 11.58333 C 8.89 g/m*3 11.58 C 3.86667 km/h
1796 18-11-2020 00:00:00 11.53333 C 8.8 g/m*3 11.53 C 2 km/h
1797 18-11-2020 01:00:00 11.35 C 8.78 g/m*3 11.35 C 0 km/h
1798 18-11-2020 02:00:00 11.3 C 8.77 g/m*3 11.3 C 2.66667 km/h
1799 18-11-2020 03:00:00 11.175 C 8.75 g/m*3 11.18 C 1.46667 km/h
1800 18-11-2020 04:00:00 10.95 C 8.68 g/m*3 10.95 C 0.4 km/h
Sensor: Nr:Datum:Temp:Abs-Feuchte:Windchill:Wind:
Aussen-T/F 1801 18-11-2020 05:00:00 10.8 C 8.63 g/m*3 10.8 C 0.26667 km/h
1802 18-11-2020 06:00:00 10.7 C 8.64 g/m*3 10.7 C 0.13333 km/h
1803 18-11-2020 07:00:00 10.7 C 8.67 g/m*3 10.7 C 0 km/h
1804 18-11-2020 08:00:00 10.775 C 8.63 g/m*3 10.78 C 2.66667 km/h
1805 18-11-2020 09:00:00 10.6 C 8.46 g/m*3 10.6 C 1.2 km/h
1806 18-11-2020 10:00:00 9.43333 C 8.13 g/m*3 9.43 C 2.13333 km/h
1807 18-11-2020 11:00:00 9.6 C 8.48 g/m*3 9.6 C 4 km/h
1808 18-11-2020 12:00:00 10.35 C 8.83 g/m*3 10.35 C 2.8 km/h
1809 18-11-2020 13:00:00 10.975 C 9.09 g/m*3 10.98 C 0 km/h
1810 18-11-2020 14:00:00 11.54167 C 9.3 g/m*3 11.54 C 2.13333 km/h
1811 18-11-2020 15:00:00 12.15 C 9.42 g/m*3 12.15 C 4.4 km/h
1812 18-11-2020 16:00:00 11.23333 C 8.95 g/m*3 11.23 C 5.06667 km/h
1813 18-11-2020 17:00:00 9.60833 C 8.25 g/m*3 9.61 C 3.86667 km/h
1814 18-11-2020 18:00:00 8.64167 C 7.93 g/m*3 8.64 C 4.66667 km/h
1815 18-11-2020 19:00:00 8.00833 C 7.69 g/m*3 8.01 C 2.8 km/h
1816 18-11-2020 20:00:00 7.3 C 7.37 g/m*3 7.3 C 0.4 km/h
1817 18-11-2020 21:00:00 6.66667 C 7.13 g/m*3 6.67 C 0.66667 km/h
1818 18-11-2020 22:00:00 6.35 C 7.02 g/m*3 6.35 C 0.4 km/h
1819 18-11-2020 23:00:00 6.00833 C 6.9 g/m*3 6.01 C 0.26667 km/h
1820 19-11-2020 00:00:00 6.94167 C 7.41 g/m*3 6.07 C 5.64167 km/h
1821 19-11-2020 01:00:00 11.14167 C 8.55 g/m*3 11.14 C 13.83333 km/h
1822 19-11-2020 02:00:00 11.925 C 8.76 g/m*3 11.93 C 12.75833 km/h
1823 19-11-2020 03:00:00 10.675 C 8.92 g/m*3 9.32 C 10.75833 km/h
1824 19-11-2020 04:00:00 10.7 C 8.96 g/m*3 9.82 C 8.05 km/h
1825 19-11-2020 05:00:00 10.61667 C 9 g/m*3 9.4 C 9.80833 km/h
Sensor: Nr:Datum:Temp:Abs-Feuchte:Windchill:Wind:
Aussen-T/F 1826 19-11-2020 06:00:00 8.975 C 8.28 g/m*3 8.04 C 6.99167 km/h
1827 19-11-2020 07:00:00 8.475 C 8.05 g/m*3 8.48 C 4.93333 km/h
1828 19-11-2020 08:00:00 7.95 C 7.75 g/m*3 6.92 C 6.69167 km/h
1829 19-11-2020 09:00:00 7.65833 C 7.43 g/m*3 6.21 C 8.19167 km/h
1830 19-11-2020 10:00:00 8.51667 C 7.66 g/m*3 7.38 C 7.51667 km/h
1831 19-11-2020 11:00:00 9.68333 C 7.96 g/m*3 8.49 C 8.73333 km/h
1832 19-11-2020 12:00:00 9.56667 C 8.24 g/m*3 8.7 C 7.10833 km/h
1833 19-11-2020 13:00:00 9.95 C 7.7 g/m*3 8 C 13.825 km/h
1834 19-11-2020 14:00:00 10.55833 C 7.33 g/m*3 8.61 C 14.9 km/h
1835 19-11-2020 15:00:00 10.89167 C 7.14 g/m*3 9.48 C 11.425 km/h
1836 19-11-2020 16:00:00 10.28333 C 7.34 g/m*3 8.76 C 11.3 km/h
1837 19-11-2020 17:00:00 9.43333 C 7.56 g/m*3 9.43 C 2.93333 km/h
1838 19-11-2020 18:00:00 8.63333 C 7.7 g/m*3 8.63 C 4.14167 km/h
1839 19-11-2020 19:00:00 8.01667 C 7.58 g/m*3 7.18 C 6.025 km/h
1840 19-11-2020 20:00:00 7.7 C 7.52 g/m*3 7.7 C 2.4 km/h
1841 19-11-2020 21:00:00 6.65 C 7.08 g/m*3 6.65 C 2.8 km/h
1842 19-11-2020 22:00:00 5.56667 C 6.62 g/m*3 5.57 C 3.73333 km/h
1843 19-11-2020 23:00:00 5.41667 C 6.64 g/m*3 5.42 C 1.33333 km/h
1844 20-11-2020 00:00:00 5.25833 C 6.56 g/m*3 5.26 C 4 km/h
1845 20-11-2020 01:00:00 5.01667 C 6.36 g/m*3 5.02 C 2.80833 km/h
1846 20-11-2020 02:00:00 4.475 C 6.15 g/m*3 4.47 C 2.93333 km/h
1847 20-11-2020 03:00:00 3.00833 C 5.56 g/m*3 3.01 C 0.93333 km/h
1848 20-11-2020 04:00:00 2.49167 C 5.42 g/m*3 2.49 C 0.53333 km/h
1849 20-11-2020 05:00:00 2.825 C 5.61 g/m*3 2.83 C 2.93333 km/h
1850 20-11-2020 06:00:00 3.21667 C 5.79 g/m*3 3.22 C 3.73333 km/h
Sensor: Nr:Datum:Temp:Abs-Feuchte:Windchill:Wind:
Aussen-T/F 1851 20-11-2020 07:00:00 3.65 C 5.96 g/m*3 3.65 C 3.46667 km/h
1852 20-11-2020 08:00:00 3.89167 C 6.06 g/m*3 3.89 C 4.4 km/h
1853 20-11-2020 09:00:00 4.34167 C 6.24 g/m*3 4.34 C 4.4 km/h
1854 20-11-2020 10:00:00 5.06667 C 6.49 g/m*3 3.83 C 5.9 km/h
1855 20-11-2020 11:00:00 5.875 C 6.69 g/m*3 4.68 C 6.14167 km/h
1856 20-11-2020 12:00:00 6.45833 C 6.81 g/m*3 6.46 C 4.26667 km/h
1857 20-11-2020 13:00:00 6.75833 C 6.86 g/m*3 6.76 C 3.60833 km/h
1858 20-11-2020 14:00:00 6.625 C 6.52 g/m*3 5.9 C 5.08333 km/h
1859 20-11-2020 15:00:00 6.78333 C 6.43 g/m*3 6.78 C 1.46667 km/h
1860 20-11-2020 16:00:00 6.825 C 6.56 g/m*3 6.83 C 0 km/h
1861 20-11-2020 17:00:00 5.68333 C 6.25 g/m*3 5.68 C 0.26667 km/h
1862 20-11-2020 18:00:00 3.74167 C 5.61 g/m*3 3.74 C 0.53333 km/h
1863 20-11-2020 19:00:00 2.35 C 5.25 g/m*3 2.35 C 0 km/h
1864 20-11-2020 20:00:00 1.31667 C 4.96 g/m*3 1.32 C 0 km/h
1865 20-11-2020 21:00:00 0.76667 C 4.82 g/m*3 0.77 C 0 km/h
1866 20-11-2020 22:00:00 0.3 C 4.7 g/m*3 0.3 C 0 km/h
1867 20-11-2020 23:00:00 0.275 C 4.7 g/m*3 0.28 C 0.26667 km/h
1868 21-11-2020 00:00:00 0.25 C 4.72 g/m*3 0.25 C 0.66667 km/h
1869 21-11-2020 01:00:00 0.25833 C 4.73 g/m*3 0.26 C 0.66667 km/h
1870 21-11-2020 02:00:00 0.2 C 4.72 g/m*3 0.2 C 0.26667 km/h
1871 21-11-2020 03:00:00 0.24167 C 4.73 g/m*3 0.24 C 0.93333 km/h
1872 21-11-2020 04:00:00 0.14167 C 4.7 g/m*3 0.14 C 1.6 km/h
1873 21-11-2020 05:00:00 0.175 C 4.71 g/m*3 0.18 C 1.2 km/h
1874 21-11-2020 06:00:00 0.24167 C 4.75 g/m*3 0.24 C 0.53333 km/h
1875 21-11-2020 07:00:00 0.31667 C 4.8 g/m*3 0.32 C 0 km/h
Sensor: Nr:Datum:Temp:Abs-Feuchte:Windchill:Wind:
Aussen-T/F 1876 21-11-2020 08:00:00 0.525 C 4.87 g/m*3 0.53 C 0.13333 km/h
1877 21-11-2020 09:00:00 1.14167 C 5.08 g/m*3 1.14 C 0 km/h
1878 21-11-2020 10:00:00 2.175 C 5.45 g/m*3 2.17 C 0.4 km/h
1879 21-11-2020 11:00:00 3.41667 C 5.93 g/m*3 3.42 C 0.4 km/h
1880 21-11-2020 12:00:00 5.40833 C 6.34 g/m*3 3.6 C 8.05833 km/h
1881 21-11-2020 13:00:00 7.15 C 6.14 g/m*3 5.58 C 8.34167 km/h
1882 21-11-2020 14:00:00 7.85 C 6.11 g/m*3 5.97 C 10.5 km/h
1883 21-11-2020 15:00:00 7.99167 C 6 g/m*3 6.35 C 9.39167 km/h
1884 21-11-2020 16:00:00 7.89167 C 6.08 g/m*3 7.89 C 2.94167 km/h
1885 21-11-2020 17:00:00 7.21667 C 6.29 g/m*3 7.22 C 0 km/h
1886 21-11-2020 18:00:00 5.65 C 5.98 g/m*3 5.65 C 2.8 km/h
1887 21-11-2020 19:00:00 4.89167 C 5.91 g/m*3 4.89 C 0.66667 km/h
1888 21-11-2020 20:00:00 4.14167 C 5.68 g/m*3 4.14 C 3.89167 km/h
1889 21-11-2020 21:00:00 4.10833 C 5.65 g/m*3 2.88 C 5.49167 km/h
1890 21-11-2020 22:00:00 4.60833 C 5.84 g/m*3 3.17 C 6.3 km/h
1891 21-11-2020 23:00:00 5.53333 C 6.04 g/m*3 2.72 C 13.03333 km/h
1892 22-11-2020 00:00:00 5.78333 C 6.08 g/m*3 3 C 13.16667 km/h
1893 22-11-2020 01:00:00 5.98333 C 6.16 g/m*3 3.5 C 11.7 km/h
1894 22-11-2020 02:00:00 6.3 C 6.22 g/m*3 3.93 C 11.43333 km/h
1895 22-11-2020 03:00:00 6.30833 C 6.22 g/m*3 3.76 C 12.5 km/h
1896 22-11-2020 04:00:00 6.50833 C 6.23 g/m*3 3.47 C 15.96667 km/h
1897 22-11-2020 05:00:00 6.6 C 6.3 g/m*3 3.85 C 14.1 km/h
1898 22-11-2020 06:00:00 6.80833 C 6.41 g/m*3 4.17 C 13.7 km/h
1899 22-11-2020 07:00:00 6.88333 C 6.44 g/m*3 4.2 C 14.1 km/h
1900 22-11-2020 08:00:00 6.875 C 6.51 g/m*3 4.15 C 14.36667 km/h
Sensor: Nr:Datum:Temp:Abs-Feuchte:Windchill:Wind:
Aussen-T/F 1901 22-11-2020 09:00:00 7.275 C 6.7 g/m*3 4.72 C 13.83333 km/h
1902 22-11-2020 10:00:00 7.625 C 6.81 g/m*3 4.82 C 16.23333 km/h
1903 22-11-2020 11:00:00 8.1 C 6.98 g/m*3 5.7 C 14.1 km/h
1904 22-11-2020 12:00:00 8.45 C 7.09 g/m*3 6.11 C 14.23333 km/h
1905 22-11-2020 13:00:00 8.78333 C 7.22 g/m*3 6.59 C 13.7 km/h
1906 22-11-2020 14:00:00 8.95 C 7.29 g/m*3 7.24 C 10.75833 km/h
1907 22-11-2020 15:00:00 8.975 C 7.32 g/m*3 7.04 C 12.225 km/h
1908 22-11-2020 16:00:00 8.875 C 7.38 g/m*3 7.58 C 8.48333 km/h
1909 22-11-2020 17:00:00 8.73333 C 7.37 g/m*3 7.36 C 8.75 km/h
1910 22-11-2020 18:00:00 8.53333 C 7.27 g/m*3 7.02 C 9.28333 km/h
1911 22-11-2020 19:00:00 8.41667 C 7.25 g/m*3 7.64 C 6.025 km/h
1912 22-11-2020 20:00:00 8.34167 C 7.24 g/m*3 7.48 C 6.29167 km/h
1913 22-11-2020 21:00:00 8.3 C 7.31 g/m*3 7.51 C 6.025 km/h
1914 22-11-2020 22:00:00 8.3 C 7.34 g/m*3 7 C 8.06667 km/h
1915 22-11-2020 23:00:00 8.3 C 7.42 g/m*3 7.55 C 5.9 km/h
1916 23-11-2020 00:00:00 8.21667 C 7.41 g/m*3 6.99 C 7.66667 km/h
1917 23-11-2020 01:00:00 8.1 C 7.43 g/m*3 7.44 C 5.49167 km/h
1918 23-11-2020 02:00:00 8.025 C 7.37 g/m*3 6.93 C 6.98333 km/h
1919 23-11-2020 03:00:00 7.99167 C 7.35 g/m*3 6.69 C 7.8 km/h
1920 23-11-2020 04:00:00 7.83333 C 7.4 g/m*3 6.98 C 6.01667 km/h
1921 23-11-2020 05:00:00 7.81667 C 7.39 g/m*3 7.82 C 4.01667 km/h
1922 23-11-2020 06:00:00 7.79167 C 7.42 g/m*3 6.85 C 6.29167 km/h
1923 23-11-2020 07:00:00 7.69167 C 7.38 g/m*3 6.19 C 8.475 km/h
1924 23-11-2020 08:00:00 7.75833 C 7.44 g/m*3 6.66 C 6.83333 km/h
1925 23-11-2020 09:00:00 7.875 C 7.61 g/m*3 6.87 C 6.55833 km/h
Sensor: Nr:Datum:Temp:Abs-Feuchte:Windchill:Wind:
Aussen-T/F 1926 23-11-2020 10:00:00 8.28333 C 7.74 g/m*3 7.57 C 5.76667 km/h
1927 23-11-2020 11:00:00 8.84167 C 7.86 g/m*3 8.84 C 4.8 km/h
1928 23-11-2020 12:00:00 9.20833 C 7.94 g/m*3 9.21 C 3.73333 km/h
1929 23-11-2020 13:00:00 9.46667 C 7.96 g/m*3 9.47 C 1.46667 km/h
1930 23-11-2020 14:00:00 9.75833 C 7.96 g/m*3 9.76 C 3.86667 km/h
1931 23-11-2020 15:00:00 9.76667 C 7.96 g/m*3 9.77 C 0.26667 km/h
1932 23-11-2020 16:00:00 9.23333 C 7.82 g/m*3 9.23 C 0.13333 km/h
1933 23-11-2020 17:00:00 7.48333 C 7.12 g/m*3 7.48 C 2.66667 km/h
1934 23-11-2020 18:00:00 5.45 C 6.45 g/m*3 5.45 C 0.13333 km/h
1935 23-11-2020 19:00:00 4.73333 C 6.28 g/m*3 4.73 C 0.53333 km/h
1936 23-11-2020 20:00:00 4.69167 C 6.35 g/m*3 4.69 C 0 km/h
1937 23-11-2020 21:00:00 6.075 C 7 g/m*3 6.08 C 0.4 km/h
1938 23-11-2020 22:00:00 6.75833 C 7.32 g/m*3 6.76 C 0.8 km/h
1939 23-11-2020 23:00:00 6.95833 C 7.42 g/m*3 6.96 C 0 km/h
1940 24-11-2020 00:00:00 6.93333 C 7.32 g/m*3 6.93 C 1.33333 km/h
1941 24-11-2020 01:00:00 6.65 C 7.12 g/m*3 6.65 C 0.4 km/h
1942 24-11-2020 02:00:00 6.45 C 6.98 g/m*3 6.45 C 2.40833 km/h
1943 24-11-2020 03:00:00 6.3 C 6.88 g/m*3 6.3 C 1.46667 km/h
1944 24-11-2020 04:00:00 6.05 C 6.81 g/m*3 6.05 C 1.73333 km/h
1945 24-11-2020 05:00:00 5.86667 C 6.76 g/m*3 5.87 C 0.66667 km/h
1946 24-11-2020 06:00:00 5.775 C 6.72 g/m*3 5.78 C 0.4 km/h
1947 24-11-2020 07:00:00 5.6 C 6.65 g/m*3 5.6 C 3.86667 km/h
1948 24-11-2020 08:00:00 5.30833 C 6.52 g/m*3 5.31 C 3.46667 km/h
1949 24-11-2020 09:00:00 5.24167 C 6.49 g/m*3 5.24 C 2.66667 km/h
1950 24-11-2020 10:00:00 5.99167 C 6.78 g/m*3 5.99 C 1.06667 km/h
Sensor: Nr:Datum:Temp:Abs-Feuchte:Windchill:Wind:
Aussen-T/F 1951 24-11-2020 11:00:00 6.675 C 6.93 g/m*3 6.68 C 2.675 km/h
1952 24-11-2020 12:00:00 7.19167 C 6.98 g/m*3 7.19 C 2.93333 km/h
1953 24-11-2020 13:00:00 7.275 C 6.97 g/m*3 7.28 C 4.81667 km/h
1954 24-11-2020 14:00:00 6.93333 C 6.86 g/m*3 6.93 C 4.275 km/h
1955 24-11-2020 15:00:00 6.525 C 6.75 g/m*3 6.53 C 4.00833 km/h
1956 24-11-2020 16:00:00 6.46667 C 6.74 g/m*3 6.47 C 1.06667 km/h
1957 24-11-2020 17:00:00 6.51667 C 6.76 g/m*3 6.52 C 1.06667 km/h
1958 24-11-2020 18:00:00 6.4 C 6.71 g/m*3 6.4 C 1.33333 km/h
1959 24-11-2020 19:00:00 6.4 C 6.73 g/m*3 6.4 C 0.53333 km/h
1960 24-11-2020 20:00:00 6.4 C 6.78 g/m*3 6.4 C 0.26667 km/h
1961 24-11-2020 21:00:00 6.375 C 6.77 g/m*3 6.38 C 0 km/h
1962 24-11-2020 22:00:00 6.3 C 6.75 g/m*3 6.3 C 0 km/h
1963 24-11-2020 23:00:00 6.275 C 6.72 g/m*3 6.28 C 0.26667 km/h
1964 25-11-2020 00:00:00 6.28333 C 6.65 g/m*3 6.28 C 0.4 km/h
1965 25-11-2020 01:00:00 6.175 C 6.61 g/m*3 6.18 C 0 km/h
1966 25-11-2020 02:00:00 6.05833 C 6.56 g/m*3 6.06 C 0.26667 km/h
1967 25-11-2020 03:00:00 5.85 C 6.52 g/m*3 5.85 C 0.53333 km/h
1968 25-11-2020 04:00:00 5.53333 C 6.41 g/m*3 5.53 C 0.4 km/h
1969 25-11-2020 05:00:00 4.4 C 5.99 g/m*3 4.4 C 0.66667 km/h
1970 25-11-2020 06:00:00 3.43333 C 5.72 g/m*3 3.43 C 1.46667 km/h
1971 25-11-2020 07:00:00 2.78333 C 5.53 g/m*3 2.78 C 0.66667 km/h
1972 25-11-2020 08:00:00 2.54167 C 5.48 g/m*3 2.54 C 0 km/h
1973 25-11-2020 09:00:00 2.93333 C 5.66 g/m*3 2.93 C 0 km/h
1974 25-11-2020 10:00:00 4.025 C 6.14 g/m*3 4.03 C 0 km/h
1975 25-11-2020 11:00:00 5.58333 C 6.8 g/m*3 5.58 C 0.4 km/h
Sensor: Nr:Datum:Temp:Abs-Feuchte:Windchill:Wind:
Aussen-T/F 1976 25-11-2020 12:00:00 5.75 C 6.78 g/m*3 5.75 C 0.26667 km/h
1977 25-11-2020 13:00:00 6.20833 C 6.98 g/m*3 6.21 C 1.06667 km/h
1978 25-11-2020 14:00:00 6.625 C 7.08 g/m*3 6.63 C 0.13333 km/h
1979 25-11-2020 15:00:00 6.38333 C 6.92 g/m*3 6.38 C 1.33333 km/h
1980 25-11-2020 16:00:00 5.975 C 6.65 g/m*3 4.88 C 5.9 km/h
1981 25-11-2020 17:00:00 5.01667 C 6.25 g/m*3 5.02 C 1.6 km/h
1982 25-11-2020 18:00:00 4.1 C 5.96 g/m*3 4.1 C 0 km/h
1983 25-11-2020 19:00:00 3.48333 C 5.78 g/m*3 3.48 C 0.13333 km/h
1984 25-11-2020 20:00:00 3.13333 C 5.7 g/m*3 3.13 C 0.53333 km/h
1985 25-11-2020 21:00:00 2.475 C 5.45 g/m*3 2.48 C 0.66667 km/h
1986 25-11-2020 22:00:00 2.13333 C 5.33 g/m*3 2.13 C 0 km/h
1987 25-11-2020 23:00:00 1.86667 C 5.27 g/m*3 1.87 C 0.4 km/h
1988 26-11-2020 00:00:00 1.63333 C 5.2 g/m*3 1.63 C 0 km/h
1989 26-11-2020 01:00:00 1.95 C 5.32 g/m*3 1.95 C 0 km/h
1990 26-11-2020 02:00:00 2.6 C 5.59 g/m*3 2.6 C 0.13333 km/h
1991 26-11-2020 03:00:00 2.81667 C 5.7 g/m*3 2.82 C 0 km/h
1992 26-11-2020 04:00:00 3.06667 C 5.79 g/m*3 3.07 C 0.26667 km/h
1993 26-11-2020 05:00:00 3.3 C 5.88 g/m*3 3.3 C 0.66667 km/h
1994 26-11-2020 06:00:00 3.025 C 5.75 g/m*3 3.03 C 0.93333 km/h
1995 26-11-2020 07:00:00 2.81667 C 5.68 g/m*3 2.82 C 0.93333 km/h
1996 26-11-2020 08:00:00 2.59167 C 5.55 g/m*3 2.59 C 2.53333 km/h
1997 26-11-2020 09:00:00 2.55833 C 5.57 g/m*3 2.56 C 1.86667 km/h
1998 26-11-2020 10:00:00 2.81667 C 5.67 g/m*3 2.82 C 1.06667 km/h
1999 26-11-2020 11:00:00 3.55 C 5.96 g/m*3 3.55 C 2 km/h
2000 26-11-2020 12:00:00 4.25 C 6.15 g/m*3 4.25 C 2.13333 km/h
Sensor: Nr:Datum:Temp:Abs-Feuchte:Windchill:Wind:
Aussen-T/F 2001 26-11-2020 13:00:00 4.74167 C 6.23 g/m*3 4.74 C 3.2 km/h
2002 26-11-2020 14:00:00 5.09167 C 6.28 g/m*3 5.09 C 3.88333 km/h
2003 26-11-2020 15:00:00 5.13333 C 6.25 g/m*3 5.13 C 2.4 km/h
2004 26-11-2020 16:00:00 4.81667 C 6.16 g/m*3 4.82 C 1.60833 km/h
2005 26-11-2020 17:00:00 4.38333 C 6.03 g/m*3 4.38 C 1.86667 km/h
2006 26-11-2020 18:00:00 4.16667 C 5.98 g/m*3 4.17 C 1.6 km/h
2007 26-11-2020 19:00:00 4.1 C 5.95 g/m*3 4.1 C 0.13333 km/h
2008 26-11-2020 20:00:00 3.85 C 5.83 g/m*3 3.85 C 0.93333 km/h
2009 26-11-2020 21:00:00 2.8 C 5.45 g/m*3 2.8 C 1.2 km/h
2010 26-11-2020 22:00:00 2.86667 C 5.54 g/m*3 2.87 C 0.53333 km/h
2011 26-11-2020 23:00:00 2.59167 C 5.44 g/m*3 2.59 C 0 km/h
2012 27-11-2020 00:00:00 2.25833 C 5.35 g/m*3 2.26 C 0 km/h
2013 27-11-2020 01:00:00 2.84167 C 5.59 g/m*3 2.84 C 0 km/h
2014 27-11-2020 02:00:00 3 C 5.65 g/m*3 3 C 0 km/h
2015 27-11-2020 03:00:00 2.91667 C 5.62 g/m*3 2.92 C 0 km/h
2016 27-11-2020 04:00:00 2.85833 C 5.59 g/m*3 2.86 C 0.26667 km/h
2017 27-11-2020 05:00:00 2.75833 C 5.56 g/m*3 2.76 C 0.4 km/h
2018 27-11-2020 06:00:00 2.7 C 5.54 g/m*3 2.7 C 0.4 km/h
2019 27-11-2020 07:00:00 2.68333 C 5.53 g/m*3 2.68 C 0.13333 km/h
2020 27-11-2020 08:00:00 2.8 C 5.6 g/m*3 2.8 C 0.13333 km/h
2021 27-11-2020 09:00:00 2.96667 C 5.69 g/m*3 2.97 C 0 km/h
2022 27-11-2020 10:00:00 3.45833 C 5.83 g/m*3 3.46 C 3.6 km/h
2023 27-11-2020 11:00:00 3.85 C 5.91 g/m*3 3.85 C 2.4 km/h
2024 27-11-2020 12:00:00 4.01667 C 5.89 g/m*3 2.94 C 5.075 km/h
2025 27-11-2020 13:00:00 4.15 C 5.9 g/m*3 4.15 C 3.06667 km/h
Sensor: Nr:Datum:Temp:Abs-Feuchte:Windchill:Wind:
Aussen-T/F 2026 27-11-2020 14:00:00 4.425 C 6.02 g/m*3 4.43 C 2.53333 km/h
2027 27-11-2020 15:00:00 4.675 C 6.11 g/m*3 4.68 C 2.8 km/h
2028 27-11-2020 16:00:00 4.6 C 6.09 g/m*3 4.6 C 1.6 km/h
2029 27-11-2020 17:00:00 4.6 C 6.12 g/m*3 4.6 C 1.33333 km/h
2030 27-11-2020 18:00:00 4.51667 C 6.12 g/m*3 4.52 C 1.33333 km/h
2031 27-11-2020 19:00:00 4.45 C 6.09 g/m*3 4.45 C 0.53333 km/h
2032 27-11-2020 20:00:00 4.38333 C 6.08 g/m*3 4.38 C 0.53333 km/h
2033 27-11-2020 21:00:00 4.39167 C 6.07 g/m*3 4.39 C 0.26667 km/h
2034 27-11-2020 22:00:00 4.30833 C 6.04 g/m*3 4.31 C 0 km/h
2035 27-11-2020 23:00:00 4.05833 C 5.93 g/m*3 4.06 C 2.4 km/h
2036 28-11-2020 00:00:00 3.75833 C 5.81 g/m*3 3.76 C 0.93333 km/h
2037 28-11-2020 01:00:00 3.59167 C 5.75 g/m*3 3.59 C 2.66667 km/h
2038 28-11-2020 02:00:00 3.425 C 5.7 g/m*3 3.43 C 1.86667 km/h
2039 28-11-2020 03:00:00 3.24167 C 5.66 g/m*3 3.24 C 0.8 km/h
2040 28-11-2020 04:00:00 2.95 C 5.57 g/m*3 2.95 C 2.26667 km/h
2041 28-11-2020 05:00:00 2.88333 C 5.55 g/m*3 2.88 C 1.2 km/h
2042 28-11-2020 06:00:00 2.73333 C 5.49 g/m*3 2.73 C 1.46667 km/h
2043 28-11-2020 07:00:00 2.56667 C 5.43 g/m*3 2.57 C 0.66667 km/h
2044 28-11-2020 08:00:00 2.41667 C 5.37 g/m*3 2.42 C 0.53333 km/h
2045 28-11-2020 09:00:00 2.55833 C 5.42 g/m*3 2.56 C 1.73333 km/h
2046 28-11-2020 10:00:00 2.925 C 5.49 g/m*3 2.93 C 2.8 km/h
2047 28-11-2020 11:00:00 3.43333 C 5.59 g/m*3 3.43 C 3.2 km/h
2048 28-11-2020 12:00:00 3.80833 C 5.62 g/m*3 3.81 C 4 km/h
2049 28-11-2020 13:00:00 4.04167 C 5.67 g/m*3 2.96 C 5.08333 km/h
2050 28-11-2020 14:00:00 4.15 C 5.73 g/m*3 4.15 C 4.80833 km/h
Sensor: Nr:Datum:Temp:Abs-Feuchte:Windchill:Wind:
Aussen-T/F 2051 28-11-2020 15:00:00 3.875 C 5.67 g/m*3 3.88 C 1.33333 km/h
2052 28-11-2020 16:00:00 3.59167 C 5.61 g/m*3 3.59 C 1.06667 km/h
2053 28-11-2020 17:00:00 3.33333 C 5.55 g/m*3 3.33 C 3.34167 km/h
2054 28-11-2020 18:00:00 3.2 C 5.53 g/m*3 3.2 C 2.66667 km/h
2055 28-11-2020 19:00:00 3.00833 C 5.48 g/m*3 3.01 C 3.74167 km/h
2056 28-11-2020 20:00:00 3.075 C 5.56 g/m*3 3.08 C 1.33333 km/h
2057 28-11-2020 21:00:00 3.35833 C 5.66 g/m*3 3.36 C 1.33333 km/h
2058 28-11-2020 22:00:00 3.63333 C 5.77 g/m*3 3.63 C 0.4 km/h
2059 28-11-2020 23:00:00 3.76667 C 5.8 g/m*3 3.77 C 1.06667 km/h
2060 29-11-2020 00:00:00 3.85833 C 5.75 g/m*3 3.86 C 4 km/h
2061 29-11-2020 01:00:00 3.54167 C 5.51 g/m*3 1.56 C 7.51667 km/h
2062 29-11-2020 02:00:00 2.86667 C 5.16 g/m*3 2.87 C 4.40833 km/h
2063 29-11-2020 03:00:00 2.7 C 5.07 g/m*3 2.7 C 4.425 km/h
2064 29-11-2020 04:00:00 2.48333 C 4.94 g/m*3 2.48 C 4.15 km/h
2065 29-11-2020 05:00:00 2.3 C 4.87 g/m*3 2.3 C 2.94167 km/h
2066 29-11-2020 06:00:00 2.18333 C 4.8 g/m*3 2.18 C 2.66667 km/h
2067 29-11-2020 07:00:00 1.91667 C 4.67 g/m*3 1.92 C 3.34167 km/h
2068 29-11-2020 08:00:00 1.71667 C 4.56 g/m*3 1.72 C 4.29167 km/h
2069 29-11-2020 09:00:00 1.58333 C 4.47 g/m*3 0.11 C 5.225 km/h
2070 29-11-2020 10:00:00 1.775 C 4.48 g/m*3 0.11 C 5.75833 km/h
2071 29-11-2020 11:00:00 2.09167 C 4.47 g/m*3 -0.14 C 7.51667 km/h
2072 29-11-2020 12:00:00 2.3 C 4.48 g/m*3 0.61 C 6.03333 km/h
2073 29-11-2020 13:00:00 2.58333 C 4.48 g/m*3 0.05 C 8.88333 km/h
2074 29-11-2020 14:00:00 2.59167 C 4.44 g/m*3 1 C 5.88333 km/h
2075 29-11-2020 15:00:00 2.3 C 4.37 g/m*3 2.3 C 3.20833 km/h
Sensor: Nr:Datum:Temp:Abs-Feuchte:Windchill:Wind:
Aussen-T/F 2076 29-11-2020 16:00:00 0.56667 C 4.11 g/m*3 0.57 C 2.8 km/h
2077 29-11-2020 17:00:00 -0.85833 C 3.96 g/m*3 -0.86 C 1.2 km/h
2078 29-11-2020 18:00:00 -1.75 C 3.84 g/m*3 -1.75 C 0 km/h
2079 29-11-2020 19:00:00 -2.34167 C 3.75 g/m*3 -2.34 C 0 km/h
2080 29-11-2020 20:00:00 -2.71667 C 3.69 g/m*3 -2.72 C 0.26667 km/h
2081 29-11-2020 21:00:00 -3.19167 C 3.59 g/m*3 -3.19 C 0 km/h
2082 29-11-2020 22:00:00 -3.46667 C 3.54 g/m*3 -3.47 C 0.53333 km/h
2083 29-11-2020 23:00:00 -3.55833 C 3.55 g/m*3 -3.56 C 0 km/h
2084 30-11-2020 00:00:00 -3.9 C 3.46 g/m*3 -3.9 C 0 km/h
2085 30-11-2020 01:00:00 -4.30833 C 3.36 g/m*3 -4.31 C 0 km/h
2086 30-11-2020 02:00:00 -4.55 C 3.31 g/m*3 -4.55 C 0 km/h
2087 30-11-2020 03:00:00 -4.9 C 3.22 g/m*3 -4.9 C 0 km/h
2088 30-11-2020 04:00:00 -5.24167 C 3.15 g/m*3 -5.24 C 0 km/h
2089 30-11-2020 05:00:00 -5.35833 C 3.13 g/m*3 -5.36 C 0 km/h
2090 30-11-2020 06:00:00 -5.21667 C 3.17 g/m*3 -5.22 C 0.26667 km/h
2091 30-11-2020 07:00:00 -5.125 C 3.19 g/m*3 -5.13 C 0.13333 km/h
2092 30-11-2020 08:00:00 -5.76667 C 3.03 g/m*3 -5.77 C 0.4 km/h
2093 30-11-2020 09:00:00 -5.45833 C 3.12 g/m*3 -5.46 C 0.13333 km/h
2094 30-11-2020 10:00:00 -4.81667 C 3.28 g/m*3 -4.82 C 0.53333 km/h
2095 30-11-2020 11:00:00 -3.65833 C 3.56 g/m*3 -3.66 C 1.2 km/h
2096 30-11-2020 12:00:00 -2.33333 C 3.94 g/m*3 -2.33 C 1.73333 km/h
2097 30-11-2020 13:00:00 0.00833 C 4.66 g/m*3 0.01 C 3.475 km/h
2098 30-11-2020 14:00:00 2.01667 C 5.22 g/m*3 2.02 C 3.88333 km/h
2099 30-11-2020 15:00:00 2.25833 C 4.99 g/m*3 2.26 C 3.88333 km/h
2100 30-11-2020 16:00:00 2.9 C 4.91 g/m*3 0.23 C 9.675 km/h
Sensor: Nr:Datum:Temp:Abs-Feuchte:Windchill:Wind:
Aussen-T/F 2101 30-11-2020 17:00:00 2.825 C 4.88 g/m*3 0.38 C 8.74167 km/h
2102 30-11-2020 18:00:00 3.075 C 4.93 g/m*3 -0.54 C 14.49167 km/h
2103 30-11-2020 19:00:00 2.575 C 5.09 g/m*3 -0.53 C 11.29167 km/h
2104 30-11-2020 20:00:00 2.10833 C 5.15 g/m*3 -1.51 C 13.29167 km/h
2105 30-11-2020 21:00:00 1.90833 C 5.18 g/m*3 -0.23 C 7.125 km/h
2106 30-11-2020 22:00:00 1.89167 C 5.22 g/m*3 1.89 C 4.825 km/h
2107 30-11-2020 23:00:00 1.575 C 5.11 g/m*3 -1.94 C 12.21667 km/h
2108 01-12-2020 00:00:00 1.25833 C 5.02 g/m*3 -2.12 C 11.29167 km/h
2109 01-12-2020 01:00:00 1.375 C 5.06 g/m*3 -1.59 C 9.675 km/h
2110 01-12-2020 02:00:00 1.49167 C 5.1 g/m*3 -1.08 C 8.30833 km/h
2111 01-12-2020 03:00:00 1.61667 C 5.14 g/m*3 -1.78 C 11.7 km/h
2112 01-12-2020 04:00:00 1.73333 C 5.18 g/m*3 -1.33 C 10.35833 km/h
2113 01-12-2020 05:00:00 1.81667 C 5.21 g/m*3 -0.37 C 7.24167 km/h
2114 01-12-2020 06:00:00 1.99167 C 5.28 g/m*3 -0.33 C 7.78333 km/h
2115 01-12-2020 07:00:00 2.11667 C 5.33 g/m*3 2.12 C 3.075 km/h
2116 01-12-2020 08:00:00 2.125 C 5.38 g/m*3 2.13 C 1.875 km/h
2117 01-12-2020 09:00:00 2.325 C 5.45 g/m*3 2.33 C 1.06667 km/h
2118 01-12-2020 10:00:00 2.70833 C 5.6 g/m*3 2.71 C 0.4 km/h
2119 01-12-2020 11:00:00 3.06667 C 5.73 g/m*3 3.07 C 0.13333 km/h
2120 01-12-2020 12:00:00 3.46667 C 5.92 g/m*3 3.47 C 0.4 km/h
2121 01-12-2020 13:00:00 4.00833 C 6.14 g/m*3 4.01 C 0 km/h
2122 01-12-2020 14:00:00 4.26667 C 6.21 g/m*3 4.27 C 0.4 km/h
2123 01-12-2020 15:00:00 3.91667 C 6.07 g/m*3 3.92 C 0 km/h
2124 01-12-2020 16:00:00 3.60833 C 5.95 g/m*3 3.61 C 0 km/h
2125 01-12-2020 17:00:00 3.54167 C 5.92 g/m*3 3.54 C 0.13333 km/h
Sensor: Nr:Datum:Temp:Abs-Feuchte:Windchill:Wind:
Aussen-T/F 2126 01-12-2020 18:00:00 3.575 C 5.93 g/m*3 3.58 C 0.13333 km/h
2127 01-12-2020 19:00:00 3.6 C 5.94 g/m*3 3.6 C 0 km/h
2128 01-12-2020 20:00:00 3.675 C 5.97 g/m*3 3.68 C 0 km/h
2129 01-12-2020 21:00:00 3.55 C 5.97 g/m*3 3.55 C 0.4 km/h
2130 01-12-2020 22:00:00 3.39167 C 5.89 g/m*3 3.39 C 0.4 km/h
2131 01-12-2020 23:00:00 3.24167 C 5.84 g/m*3 3.24 C 0 km/h
2132 02-12-2020 00:00:00 3.2 C 5.85 g/m*3 3.2 C 0 km/h
2133 02-12-2020 01:00:00 3.10833 C 5.81 g/m*3 3.11 C 0 km/h
2134 02-12-2020 02:00:00 2.89167 C 5.73 g/m*3 2.89 C 0 km/h
2135 02-12-2020 03:00:00 2.75 C 5.67 g/m*3 2.75 C 1.06667 km/h
2136 02-12-2020 04:00:00 2.65 C 5.63 g/m*3 2.65 C 0 km/h
2137 02-12-2020 05:00:00 2.55 C 5.59 g/m*3 2.55 C 0 km/h
2138 02-12-2020 06:00:00 2.4 C 5.54 g/m*3 2.4 C 0 km/h
2139 02-12-2020 07:00:00 2.4 C 5.54 g/m*3 2.4 C 0 km/h
2140 02-12-2020 08:00:00 2.46667 C 5.56 g/m*3 2.47 C 0 km/h
2141 02-12-2020 09:00:00 2.7 C 5.65 g/m*3 2.7 C 0.26667 km/h
2142 02-12-2020 10:00:00 2.925 C 5.74 g/m*3 2.93 C 0.66667 km/h
2143 02-12-2020 11:00:00 3.075 C 5.77 g/m*3 3.08 C 3.06667 km/h
2144 02-12-2020 12:00:00 3.23333 C 5.8 g/m*3 3.23 C 1.46667 km/h
2145 02-12-2020 13:00:00 3.53333 C 5.9 g/m*3 3.53 C 1.06667 km/h
2146 02-12-2020 14:00:00 3.83333 C 5.95 g/m*3 3.83 C 2.55 km/h
2147 02-12-2020 15:00:00 3.65833 C 5.8 g/m*3 3.66 C 0.26667 km/h
2148 02-12-2020 16:00:00 3.375 C 5.68 g/m*3 3.38 C 0.13333 km/h
2149 02-12-2020 17:00:00 2.94167 C 5.55 g/m*3 2.94 C 0.66667 km/h
2150 02-12-2020 18:00:00 2.6 C 5.44 g/m*3 2.6 C 0.26667 km/h
Sensor: Nr:Datum:Temp:Abs-Feuchte:Windchill:Wind:
Aussen-T/F 2151 02-12-2020 19:00:00 2.425 C 5.4 g/m*3 2.42 C 0.13333 km/h
2152 02-12-2020 20:00:00 2.4 C 5.42 g/m*3 2.4 C 0 km/h
2153 02-12-2020 21:00:00 2.38333 C 5.42 g/m*3 2.38 C 0.4 km/h
2154 02-12-2020 22:00:00 2.36667 C 5.41 g/m*3 2.37 C 0 km/h
2155 02-12-2020 23:00:00 2.26667 C 5.38 g/m*3 2.27 C 0 km/h
2156 03-12-2020 00:00:00 2.28333 C 5.38 g/m*3 2.28 C 1.33333 km/h
2157 03-12-2020 01:00:00 2.33333 C 5.4 g/m*3 2.33 C 2.13333 km/h
2158 03-12-2020 02:00:00 2.575 C 5.49 g/m*3 2.58 C 3.33333 km/h
2159 03-12-2020 03:00:00 2.6 C 5.5 g/m*3 2.6 C 1.33333 km/h
2160 03-12-2020 04:00:00 2.51667 C 5.47 g/m*3 2.52 C 3.73333 km/h
2161 03-12-2020 05:00:00 2.44167 C 5.49 g/m*3 2.44 C 0.26667 km/h
2162 03-12-2020 06:00:00 2.575 C 5.55 g/m*3 2.58 C 0 km/h
2163 03-12-2020 07:00:00 2.7 C 5.59 g/m*3 2.7 C 0.26667 km/h
2164 03-12-2020 08:00:00 2.74167 C 5.61 g/m*3 2.74 C 0.66667 km/h
2165 03-12-2020 09:00:00 3.18333 C 5.77 g/m*3 3.18 C 2 km/h
2166 03-12-2020 10:00:00 4.05 C 5.97 g/m*3 4.05 C 3.475 km/h
2167 03-12-2020 11:00:00 4.43333 C 6 g/m*3 3.41 C 5.08333 km/h
2168 03-12-2020 12:00:00 4.79167 C 6.04 g/m*3 3.66 C 5.49167 km/h
2169 03-12-2020 13:00:00 5.14167 C 6.08 g/m*3 3.75 C 6.425 km/h
2170 03-12-2020 14:00:00 5.05833 C 5.99 g/m*3 3.83 C 5.89167 km/h
2171 03-12-2020 15:00:00 4.7 C 5.91 g/m*3 4.7 C 1.86667 km/h
2172 03-12-2020 16:00:00 4.46667 C 5.87 g/m*3 4.47 C 1.2 km/h
2173 03-12-2020 17:00:00 4.28333 C 5.85 g/m*3 4.28 C 4.69167 km/h
2174 03-12-2020 18:00:00 4.3 C 5.81 g/m*3 2.91 C 6.025 km/h
2175 03-12-2020 19:00:00 4.25 C 5.74 g/m*3 2.95 C 5.75 km/h
Sensor: Nr:Datum:Temp:Abs-Feuchte:Windchill:Wind:
Aussen-T/F 2176 03-12-2020 20:00:00 4.00833 C 5.6 g/m*3 2.57 C 6.03333 km/h
2177 03-12-2020 21:00:00 3.825 C 5.53 g/m*3 1.93 C 7.375 km/h
2178 03-12-2020 22:00:00 3.55833 C 5.45 g/m*3 1.58 C 7.525 km/h
2179 03-12-2020 23:00:00 3.375 C 5.5 g/m*3 1.8 C 6.16667 km/h
2180 04-12-2020 00:00:00 3.2 C 5.48 g/m*3 1.08 C 7.775 km/h
2181 04-12-2020 01:00:00 3.00833 C 5.41 g/m*3 -0.09 C 11.69167 km/h
2182 04-12-2020 02:00:00 2.875 C 5.39 g/m*3 -0.17 C 11.29167 km/h
2183 04-12-2020 03:00:00 3.05833 C 5.54 g/m*3 0.61 C 8.88333 km/h
2184 04-12-2020 04:00:00 3.23333 C 5.62 g/m*3 0.04 C 12.36667 km/h
2185 04-12-2020 05:00:00 3.40833 C 5.7 g/m*3 2.02 C 5.64167 km/h
2186 04-12-2020 06:00:00 3.675 C 5.89 g/m*3 3.68 C 4.00833 km/h
2187 04-12-2020 07:00:00 3.775 C 5.95 g/m*3 3.78 C 2.675 km/h
2188 04-12-2020 08:00:00 4.10833 C 6.14 g/m*3 4.11 C 3.35 km/h
2189 04-12-2020 09:00:00 4.63333 C 6.37 g/m*3 4.63 C 3.6 km/h
2190 04-12-2020 10:00:00 5.36667 C 6.68 g/m*3 5.37 C 3.475 km/h
2191 04-12-2020 11:00:00 6.05 C 6.98 g/m*3 6.05 C 2.675 km/h
2192 04-12-2020 12:00:00 6.975 C 7.25 g/m*3 6.98 C 1.6 km/h
2193 04-12-2020 13:00:00 7.325 C 7.29 g/m*3 7.33 C 2.26667 km/h
2194 04-12-2020 14:00:00 7.64167 C 7.39 g/m*3 7.64 C 0.13333 km/h
2195 04-12-2020 15:00:00 7.05 C 7.16 g/m*3 7.05 C 0.93333 km/h
2196 04-12-2020 16:00:00 6.11667 C 6.8 g/m*3 6.12 C 2 km/h
2197 04-12-2020 17:00:00 5.19167 C 6.46 g/m*3 5.19 C 3.2 km/h
2198 04-12-2020 18:00:00 4.5 C 6.22 g/m*3 4.5 C 4.53333 km/h
2199 04-12-2020 19:00:00 3.68333 C 5.92 g/m*3 3.68 C 3.33333 km/h
2200 04-12-2020 20:00:00 3.84167 C 6.03 g/m*3 3.84 C 0 km/h
Sensor: Nr:Datum:Temp:Abs-Feuchte:Windchill:Wind:
Aussen-T/F 2201 04-12-2020 21:00:00 3.34167 C 5.84 g/m*3 3.34 C 0 km/h
2202 04-12-2020 22:00:00 3.35833 C 5.85 g/m*3 3.36 C 0 km/h
2203 04-12-2020 23:00:00 4.35 C 6.31 g/m*3 4.35 C 1.60833 km/h
2204 05-12-2020 00:00:00 4.50833 C 6.38 g/m*3 4.51 C 0 km/h
2205 05-12-2020 01:00:00 4.41667 C 6.34 g/m*3 4.42 C 0 km/h
2206 05-12-2020 02:00:00 4.40833 C 6.34 g/m*3 4.41 C 0 km/h
2207 05-12-2020 03:00:00 4.49167 C 6.37 g/m*3 4.49 C 0 km/h
2208 05-12-2020 04:00:00 4.29167 C 6.28 g/m*3 4.29 C 0 km/h
2209 05-12-2020 05:00:00 3.8 C 6.05 g/m*3 3.8 C 0 km/h
2210 05-12-2020 06:00:00 3.75833 C 6.07 g/m*3 3.76 C 0 km/h
2211 05-12-2020 07:00:00 3.74167 C 6.06 g/m*3 3.74 C 0 km/h
2212 05-12-2020 08:00:00 3.73333 C 6.06 g/m*3 3.73 C 0 km/h
2213 05-12-2020 09:00:00 4.46667 C 6.36 g/m*3 4.47 C 0 km/h
2214 05-12-2020 10:00:00 4.575 C 6.41 g/m*3 4.58 C 0 km/h
2215 05-12-2020 11:00:00 4.45833 C 6.36 g/m*3 4.46 C 2.93333 km/h
2216 05-12-2020 12:00:00 5.35833 C 6.77 g/m*3 5.36 C 1.46667 km/h
2217 05-12-2020 13:00:00 5.45 C 6.44 g/m*3 5.45 C 4.81667 km/h
2218 05-12-2020 14:00:00 5.69167 C 6.46 g/m*3 5.69 C 1.06667 km/h
2219 05-12-2020 15:00:00 4.29167 C 5.96 g/m*3 4.29 C 3.46667 km/h
2220 05-12-2020 16:00:00 3.075 C 5.59 g/m*3 3.08 C 0.53333 km/h
2221 05-12-2020 17:00:00 2.70833 C 5.52 g/m*3 2.71 C 2.93333 km/h
2222 05-12-2020 18:00:00 2.86667 C 5.62 g/m*3 2.87 C 0.13333 km/h
2223 05-12-2020 19:00:00 3.63333 C 5.96 g/m*3 3.63 C 0 km/h
2224 05-12-2020 20:00:00 3.88333 C 6.06 g/m*3 3.88 C 0 km/h
2225 05-12-2020 21:00:00 4.075 C 6.13 g/m*3 4.08 C 0 km/h
Sensor: Nr:Datum:Temp:Abs-Feuchte:Windchill:Wind:
Aussen-T/F 2226 05-12-2020 22:00:00 3.94167 C 6.08 g/m*3 3.94 C 0.53333 km/h
2227 05-12-2020 23:00:00 3.44167 C 5.82 g/m*3 3.44 C 1.34167 km/h
2228 06-12-2020 00:00:00 2.53333 C 5.47 g/m*3 2.53 C 0.53333 km/h
2229 06-12-2020 01:00:00 2.24167 C 5.4 g/m*3 2.24 C 0.13333 km/h
2230 06-12-2020 02:00:00 2.3 C 5.44 g/m*3 2.3 C 0 km/h
2231 06-12-2020 03:00:00 2.81667 C 5.64 g/m*3 2.82 C 0.26667 km/h
2232 06-12-2020 04:00:00 3.15833 C 5.77 g/m*3 3.16 C 0 km/h
2233 06-12-2020 05:00:00 3.2 C 5.8 g/m*3 3.2 C 0 km/h
2234 06-12-2020 06:00:00 3.29167 C 5.84 g/m*3 3.29 C 0 km/h
2235 06-12-2020 07:00:00 3.3 C 5.82 g/m*3 3.3 C 0 km/h
2236 06-12-2020 08:00:00 3.31667 C 5.85 g/m*3 3.32 C 0 km/h
2237 06-12-2020 09:00:00 3.59167 C 6 g/m*3 3.59 C 0 km/h
2238 06-12-2020 10:00:00 3.91667 C 6.13 g/m*3 3.92 C 1.06667 km/h
2239 06-12-2020 11:00:00 4.18333 C 6.24 g/m*3 4.18 C 0.8 km/h
2240 06-12-2020 12:00:00 4.45833 C 6.36 g/m*3 4.46 C 1.46667 km/h
2241 06-12-2020 13:00:00 4.775 C 6.47 g/m*3 4.78 C 1.6 km/h
2242 06-12-2020 14:00:00 4.9 C 6.48 g/m*3 4.9 C 0.4 km/h
2243 06-12-2020 15:00:00 5.00833 C 6.54 g/m*3 5.01 C 0 km/h
2244 06-12-2020 16:00:00 4.94167 C 6.5 g/m*3 4.94 C 0 km/h
2245 06-12-2020 17:00:00 4.8 C 6.47 g/m*3 4.8 C 1.73333 km/h
2246 06-12-2020 18:00:00 4.75 C 6.42 g/m*3 4.75 C 2.13333 km/h
2247 06-12-2020 19:00:00 4.7 C 6.44 g/m*3 4.7 C 0.66667 km/h
2248 06-12-2020 20:00:00 4.625 C 6.4 g/m*3 4.63 C 1.6 km/h
2249 06-12-2020 21:00:00 4.575 C 6.41 g/m*3 4.58 C 2 km/h
2250 06-12-2020 22:00:00 4.5 C 6.38 g/m*3 4.5 C 0 km/h
Sensor: Nr:Datum:Temp:Abs-Feuchte:Windchill:Wind:
Aussen-T/F 2251 06-12-2020 23:00:00 4.41667 C 6.34 g/m*3 4.42 C 0 km/h
2252 07-12-2020 00:00:00 4.325 C 6.29 g/m*3 4.33 C 0.8 km/h
2253 07-12-2020 01:00:00 4.3 C 6.29 g/m*3 4.3 C 0.8 km/h
2254 07-12-2020 02:00:00 4.20833 C 6.25 g/m*3 4.21 C 0.66667 km/h
2255 07-12-2020 03:00:00 4.1 C 6.21 g/m*3 4.1 C 1.73333 km/h
2256 07-12-2020 04:00:00 4 C 6.17 g/m*3 4 C 0.93333 km/h
2257 07-12-2020 05:00:00 3.875 C 6.12 g/m*3 3.88 C 0.66667 km/h
2258 07-12-2020 06:00:00 3.9 C 6.13 g/m*3 3.9 C 3.2 km/h
2259 07-12-2020 07:00:00 3.81667 C 6.09 g/m*3 3.82 C 1.46667 km/h
2260 07-12-2020 08:00:00 3.825 C 6.1 g/m*3 3.83 C 4.80833 km/h
2261 07-12-2020 09:00:00 3.94167 C 6.14 g/m*3 2.85 C 5.08333 km/h
2262 07-12-2020 10:00:00 4.46667 C 6.36 g/m*3 4.47 C 4.13333 km/h
2263 07-12-2020 11:00:00 5.05 C 6.58 g/m*3 3.18 C 8.05 km/h
2264 07-12-2020 12:00:00 5.55833 C 6.63 g/m*3 3.55 C 9 km/h
2265 07-12-2020 13:00:00 6.125 C 6.58 g/m*3 4.15 C 9.29167 km/h
2266 07-12-2020 14:00:00 6.28333 C 6.56 g/m*3 6.28 C 3.60833 km/h
2267 07-12-2020 15:00:00 5.9 C 6.49 g/m*3 5.9 C 2.26667 km/h
2268 07-12-2020 16:00:00 5.325 C 6.37 g/m*3 5.33 C 1.06667 km/h
2269 07-12-2020 17:00:00 4.86667 C 6.29 g/m*3 4.87 C 1.06667 km/h
2270 07-12-2020 18:00:00 4.44167 C 6.15 g/m*3 4.44 C 0.8 km/h
2271 07-12-2020 19:00:00 3.15833 C 5.64 g/m*3 3.16 C 3.2 km/h
2272 07-12-2020 20:00:00 1.88333 C 5.21 g/m*3 1.88 C 4.4 km/h
2273 07-12-2020 21:00:00 1.85 C 5.27 g/m*3 1.85 C 1.46667 km/h
2274 07-12-2020 22:00:00 2.51667 C 5.52 g/m*3 2.52 C 0 km/h
2275 07-12-2020 23:00:00 2.80833 C 5.63 g/m*3 2.81 C 0 km/h
Sensor: Nr:Datum:Temp:Abs-Feuchte:Windchill:Wind:
Aussen-T/F 2276 08-12-2020 00:00:00 3.075 C 5.74 g/m*3 3.08 C 0 km/h
2277 08-12-2020 01:00:00 3.10833 C 5.75 g/m*3 3.11 C 0 km/h
2278 08-12-2020 02:00:00 3.00833 C 5.72 g/m*3 3.01 C 0 km/h
2279 08-12-2020 03:00:00 2.875 C 5.69 g/m*3 2.88 C 0.26667 km/h
2280 08-12-2020 04:00:00 3.225 C 5.86 g/m*3 3.23 C 0 km/h
2281 08-12-2020 05:00:00 3.11667 C 5.76 g/m*3 3.12 C 0.8 km/h
2282 08-12-2020 06:00:00 2.93333 C 5.67 g/m*3 2.93 C 0.66667 km/h
2283 08-12-2020 07:00:00 2.9 C 5.61 g/m*3 2.9 C 0 km/h
2284 08-12-2020 08:00:00 2.66667 C 5.49 g/m*3 2.67 C 0.4 km/h
2285 08-12-2020 09:00:00 2.75833 C 5.56 g/m*3 2.76 C 0 km/h
2286 08-12-2020 10:00:00 3.40833 C 5.71 g/m*3 3.41 C 3.75 km/h
2287 08-12-2020 11:00:00 4.35833 C 5.81 g/m*3 4.36 C 4.275 km/h
2288 08-12-2020 12:00:00 4.95 C 5.79 g/m*3 4.95 C 4.55833 km/h
2289 08-12-2020 13:00:00 5.35833 C 5.83 g/m*3 4.36 C 5.35833 km/h
2290 08-12-2020 14:00:00 5.71667 C 5.9 g/m*3 5.72 C 4.81667 km/h
2291 08-12-2020 15:00:00 5.78333 C 6.05 g/m*3 5.78 C 0.93333 km/h
2292 08-12-2020 16:00:00 5.175 C 6.07 g/m*3 5.18 C 0.66667 km/h
2293 08-12-2020 17:00:00 4.45 C 5.97 g/m*3 4.45 C 1.6 km/h
2294 08-12-2020 18:00:00 3.625 C 5.73 g/m*3 3.63 C 1.2 km/h
2295 08-12-2020 19:00:00 2.8 C 5.46 g/m*3 2.8 C 0.26667 km/h
2296 08-12-2020 20:00:00 2.3 C 5.33 g/m*3 2.3 C 0 km/h
2297 08-12-2020 21:00:00 1.79167 C 5.17 g/m*3 1.79 C 0 km/h
2298 08-12-2020 22:00:00 0.94167 C 4.91 g/m*3 0.94 C 0 km/h
2299 08-12-2020 23:00:00 0.475 C 4.76 g/m*3 0.48 C 0 km/h
2300 09-12-2020 00:00:00 0.175 C 4.68 g/m*3 0.18 C 0 km/h
Sensor: Nr:Datum:Temp:Abs-Feuchte:Windchill:Wind:
Aussen-T/F 2301 09-12-2020 01:00:00 0.84167 C 4.93 g/m*3 0.84 C 0 km/h
2302 09-12-2020 02:00:00 1.35833 C 5.11 g/m*3 1.36 C 0 km/h
2303 09-12-2020 03:00:00 1.69167 C 5.26 g/m*3 1.69 C 0 km/h
2304 09-12-2020 04:00:00 2.31667 C 5.51 g/m*3 2.32 C 1.73333 km/h
2305 09-12-2020 05:00:00 2.80833 C 5.68 g/m*3 2.81 C 3.20833 km/h
2306 09-12-2020 06:00:00 3 C 5.66 g/m*3 3 C 3.34167 km/h
2307 09-12-2020 07:00:00 3.175 C 5.57 g/m*3 1.66 C 5.90833 km/h
2308 09-12-2020 08:00:00 3.24167 C 5.54 g/m*3 3.24 C 3.20833 km/h
2309 09-12-2020 09:00:00 3.21667 C 5.55 g/m*3 3.22 C 0.26667 km/h
2310 09-12-2020 10:00:00 3.425 C 5.62 g/m*3 3.43 C 0.13333 km/h
2311 09-12-2020 11:00:00 3.75 C 5.66 g/m*3 3.75 C 0.66667 km/h
2312 09-12-2020 12:00:00 4.16667 C 5.74 g/m*3 4.17 C 0.8 km/h
2313 09-12-2020 13:00:00 4.59167 C 5.78 g/m*3 3.34 C 5.75833 km/h
2314 09-12-2020 14:00:00 4.525 C 5.53 g/m*3 2.42 C 8.6 km/h
2315 09-12-2020 15:00:00 3.775 C 5.32 g/m*3 2.4 C 5.75833 km/h
2316 09-12-2020 16:00:00 2.30833 C 5 g/m*3 2.31 C 4.13333 km/h
2317 09-12-2020 17:00:00 0.85833 C 4.69 g/m*3 0.86 C 2.13333 km/h
2318 09-12-2020 18:00:00 -0.05833 C 4.47 g/m*3 -0.06 C 1.2 km/h
2319 09-12-2020 19:00:00 -0.25833 C 4.49 g/m*3 -0.26 C 3.33333 km/h
2320 09-12-2020 20:00:00 0.31667 C 4.7 g/m*3 0.32 C 1.6 km/h
2321 09-12-2020 21:00:00 0.70833 C 4.8 g/m*3 0.71 C 1.06667 km/h
2322 09-12-2020 22:00:00 1.03333 C 4.86 g/m*3 1.03 C 1.2 km/h
2323 09-12-2020 23:00:00 1.19167 C 4.87 g/m*3 1.19 C 1.6 km/h
2324 10-12-2020 00:00:00 1.36667 C 4.88 g/m*3 1.37 C 1.06667 km/h
2325 10-12-2020 01:00:00 1.41667 C 4.9 g/m*3 1.42 C 0.53333 km/h
Sensor: Nr:Datum:Temp:Abs-Feuchte:Windchill:Wind:
Aussen-T/F 2326 10-12-2020 02:00:00 1.55833 C 4.95 g/m*3 1.56 C 0.66667 km/h
2327 10-12-2020 03:00:00 1.59167 C 4.94 g/m*3 1.59 C 1.33333 km/h
2328 10-12-2020 04:00:00 0.81667 C 4.67 g/m*3 0.82 C 1.2 km/h
2329 10-12-2020 05:00:00 -0.3 C 4.39 g/m*3 -0.3 C 0.26667 km/h
2330 10-12-2020 06:00:00 -0.875 C 4.28 g/m*3 -0.88 C 0 km/h
2331 10-12-2020 07:00:00 -1.375 C 4.14 g/m*3 -1.38 C 0 km/h
2332 10-12-2020 08:00:00 -1.78333 C 4.06 g/m*3 -1.78 C 0 km/h
2333 10-12-2020 09:00:00 -1.85 C 4.05 g/m*3 -1.85 C 0 km/h
2334 10-12-2020 10:00:00 -1.39167 C 4.22 g/m*3 -1.39 C 0 km/h
2335 10-12-2020 11:00:00 -0.50833 C 4.49 g/m*3 -0.51 C 2.4 km/h
2336 10-12-2020 12:00:00 0.05 C 4.67 g/m*3 0.05 C 1.06667 km/h
2337 10-12-2020 13:00:00 0.46667 C 4.82 g/m*3 0.47 C 0.26667 km/h
2338 10-12-2020 14:00:00 1.175 C 5.05 g/m*3 1.18 C 0.8 km/h
2339 10-12-2020 15:00:00 1.1 C 4.9 g/m*3 1.1 C 1.46667 km/h
2340 10-12-2020 16:00:00 1.175 C 4.84 g/m*3 1.18 C 0.26667 km/h
2341 10-12-2020 17:00:00 0.925 C 4.74 g/m*3 0.93 C 0 km/h
2342 10-12-2020 18:00:00 0.74167 C 4.67 g/m*3 0.74 C 0 km/h
2343 10-12-2020 19:00:00 0.63333 C 4.67 g/m*3 0.63 C 0 km/h
2344 10-12-2020 20:00:00 0.81667 C 4.77 g/m*3 0.82 C 0 km/h
2345 10-12-2020 21:00:00 0.99167 C 4.82 g/m*3 0.99 C 0.26667 km/h
2346 10-12-2020 22:00:00 1.175 C 4.89 g/m*3 1.18 C 0.13333 km/h
2347 10-12-2020 23:00:00 1.23333 C 4.87 g/m*3 1.23 C 0.8 km/h
2348 11-12-2020 00:00:00 1.39167 C 4.9 g/m*3 1.39 C 0.26667 km/h
2349 11-12-2020 01:00:00 1.2 C 4.82 g/m*3 1.2 C 0 km/h
2350 11-12-2020 02:00:00 0.325 C 4.59 g/m*3 0.33 C 0.66667 km/h
Sensor: Nr:Datum:Temp:Abs-Feuchte:Windchill:Wind:
Aussen-T/F 2351 11-12-2020 03:00:00 0.925 C 4.82 g/m*3 0.93 C 2.54167 km/h
2352 11-12-2020 04:00:00 0.65833 C 4.69 g/m*3 0.66 C 1.2 km/h
2353 11-12-2020 05:00:00 0.15833 C 4.57 g/m*3 0.16 C 1.86667 km/h
2354 11-12-2020 06:00:00 0.54167 C 4.74 g/m*3 0.54 C 4.55 km/h
2355 11-12-2020 07:00:00 1.64167 C 4.93 g/m*3 1.64 C 3.34167 km/h
2356 11-12-2020 08:00:00 2.14167 C 4.96 g/m*3 2.14 C 4.825 km/h
2357 11-12-2020 09:00:00 2.575 C 5.07 g/m*3 0.97 C 5.9 km/h
2358 11-12-2020 10:00:00 3.125 C 5.21 g/m*3 3.13 C 4.00833 km/h
2359 11-12-2020 11:00:00 3.44167 C 5.38 g/m*3 1.83 C 6.29167 km/h
2360 11-12-2020 12:00:00 3.7 C 5.54 g/m*3 2.47 C 5.34167 km/h
2361 11-12-2020 13:00:00 4.44167 C 5.66 g/m*3 2.85 C 6.71667 km/h
2362 11-12-2020 14:00:00 4.49167 C 5.58 g/m*3 2.28 C 9.025 km/h
2363 11-12-2020 15:00:00 4.05833 C 5.56 g/m*3 2.16 C 7.51667 km/h
2364 11-12-2020 16:00:00 3.63333 C 5.58 g/m*3 1.91 C 6.71667 km/h
2365 11-12-2020 17:00:00 3.71667 C 5.66 g/m*3 1.47 C 8.58333 km/h
2366 11-12-2020 18:00:00 3.68333 C 5.71 g/m*3 2.15 C 6.16667 km/h
2367 11-12-2020 19:00:00 3.79167 C 5.76 g/m*3 2.01 C 6.98333 km/h
2368 11-12-2020 20:00:00 3.94167 C 5.83 g/m*3 3.94 C 1.6 km/h
2369 11-12-2020 21:00:00 3.925 C 5.86 g/m*3 3.93 C 0 km/h
2370 11-12-2020 22:00:00 3.825 C 5.85 g/m*3 3.83 C 0 km/h
2371 11-12-2020 23:00:00 3.85 C 5.92 g/m*3 3.85 C 0 km/h
2372 12-12-2020 00:00:00 3.81667 C 5.94 g/m*3 3.82 C 0.4 km/h
2373 12-12-2020 01:00:00 4.05 C 6.06 g/m*3 4.05 C 0.66667 km/h
2374 12-12-2020 02:00:00 4.40833 C 6.22 g/m*3 4.41 C 1.2 km/h
2375 12-12-2020 03:00:00 4.80833 C 6.38 g/m*3 4.81 C 0 km/h
Sensor: Nr:Datum:Temp:Abs-Feuchte:Windchill:Wind:
Aussen-T/F 2376 12-12-2020 04:00:00 4.9 C 6.41 g/m*3 4.9 C 0 km/h
2377 12-12-2020 05:00:00 4.90833 C 6.42 g/m*3 4.91 C 0 km/h
2378 12-12-2020 06:00:00 5.05833 C 6.48 g/m*3 5.06 C 0 km/h
2379 12-12-2020 07:00:00 5.15 C 6.58 g/m*3 5.15 C 0.4 km/h
2380 12-12-2020 08:00:00 5.28333 C 6.65 g/m*3 5.28 C 0 km/h
2381 12-12-2020 09:00:00 5.625 C 6.8 g/m*3 5.63 C 0 km/h
2382 12-12-2020 10:00:00 6.16667 C 7.03 g/m*3 6.17 C 0 km/h
2383 12-12-2020 11:00:00 6.80833 C 7.18 g/m*3 6.81 C 0 km/h
2384 12-12-2020 12:00:00 7.4 C 7.31 g/m*3 7.4 C 0.4 km/h
2385 12-12-2020 13:00:00 7.7 C 7.38 g/m*3 7.7 C 0.66667 km/h
2386 12-12-2020 14:00:00 7.68333 C 7.44 g/m*3 7.68 C 0.26667 km/h
2387 12-12-2020 15:00:00 7.475 C 7.53 g/m*3 7.48 C 0 km/h
2388 12-12-2020 16:00:00 7.2 C 7.43 g/m*3 7.2 C 0 km/h
2389 12-12-2020 17:00:00 6.7 C 7.21 g/m*3 6.7 C 0 km/h
2390 12-12-2020 18:00:00 6.66667 C 7.23 g/m*3 6.67 C 0 km/h
2391 12-12-2020 19:00:00 6.36667 C 7.12 g/m*3 6.37 C 0 km/h
2392 12-12-2020 20:00:00 6.66667 C 7.28 g/m*3 6.67 C 0.13333 km/h
2393 12-12-2020 21:00:00 6.675 C 7.29 g/m*3 6.68 C 0 km/h
2394 12-12-2020 22:00:00 6.55 C 7.27 g/m*3 6.55 C 0 km/h
2395 12-12-2020 23:00:00 6.2 C 7.1 g/m*3 6.2 C 0 km/h
2396 13-12-2020 00:00:00 6.35833 C 7.21 g/m*3 6.36 C 0 km/h
2397 13-12-2020 01:00:00 6.18333 C 7.13 g/m*3 6.18 C 0 km/h
2398 13-12-2020 02:00:00 6.40833 C 7.23 g/m*3 6.41 C 0 km/h
2399 13-12-2020 03:00:00 6.83333 C 7.43 g/m*3 6.83 C 0.13333 km/h
2400 13-12-2020 04:00:00 7.23333 C 7.63 g/m*3 7.23 C 2.8 km/h
Sensor: Nr:Datum:Temp:Abs-Feuchte:Windchill:Wind:
Aussen-T/F 2401 13-12-2020 05:00:00 7.3 C 7.66 g/m*3 7.3 C 0 km/h
2402 13-12-2020 06:00:00 7.275 C 7.65 g/m*3 7.28 C 1.46667 km/h
2403 13-12-2020 07:00:00 7.30833 C 7.67 g/m*3 7.31 C 2.53333 km/h
2404 13-12-2020 08:00:00 7.21667 C 7.62 g/m*3 7.22 C 2.4 km/h
2405 13-12-2020 09:00:00 7.24167 C 7.64 g/m*3 7.24 C 1.2 km/h
2406 13-12-2020 10:00:00 6.45833 C 7.25 g/m*3 6.46 C 2.53333 km/h
2407 13-12-2020 11:00:00 6.39167 C 7.22 g/m*3 5.31 C 6.03333 km/h
2408 13-12-2020 12:00:00 6.6 C 7.2 g/m*3 5.47 C 6.31667 km/h
2409 13-12-2020 13:00:00 7.825 C 7.25 g/m*3 7.09 C 5.61667 km/h
2410 13-12-2020 14:00:00 7.675 C 7.03 g/m*3 7.68 C 4.28333 km/h
2411 13-12-2020 15:00:00 6.46667 C 6.66 g/m*3 6.47 C 4.26667 km/h
2412 13-12-2020 16:00:00 5.325 C 6.31 g/m*3 5.33 C 4.93333 km/h
2413 13-12-2020 17:00:00 4.04167 C 5.9 g/m*3 4.04 C 4.8 km/h
2414 13-12-2020 18:00:00 3.5 C 5.79 g/m*3 3.5 C 0 km/h
2415 13-12-2020 19:00:00 3.6 C 5.88 g/m*3 3.6 C 0 km/h
2416 13-12-2020 20:00:00 3.66667 C 5.93 g/m*3 3.67 C 0.4 km/h
2417 13-12-2020 21:00:00 4.24167 C 6.16 g/m*3 4.24 C 1.06667 km/h
2418 13-12-2020 22:00:00 3.49167 C 5.78 g/m*3 3.49 C 1.73333 km/h
2419 13-12-2020 23:00:00 3.15 C 5.69 g/m*3 3.15 C 2.80833 km/h
2420 14-12-2020 00:00:00 3.3 C 5.78 g/m*3 3.3 C 2.8 km/h
2421 14-12-2020 01:00:00 3.90833 C 6.02 g/m*3 3.91 C 0 km/h
2422 14-12-2020 02:00:00 4.44167 C 6.15 g/m*3 4.44 C 2 km/h
2423 14-12-2020 03:00:00 4.04167 C 6 g/m*3 4.04 C 1.33333 km/h
2424 14-12-2020 04:00:00 4.78333 C 6.36 g/m*3 4.78 C 0.26667 km/h
2425 14-12-2020 05:00:00 5.15833 C 6.52 g/m*3 5.16 C 0 km/h
Sensor: Nr:Datum:Temp:Abs-Feuchte:Windchill:Wind:
Aussen-T/F 2426 14-12-2020 06:00:00 5.3 C 6.52 g/m*3 5.3 C 0 km/h
2427 14-12-2020 07:00:00 5.50833 C 6.59 g/m*3 5.51 C 0.13333 km/h
2428 14-12-2020 08:00:00 5.675 C 6.6 g/m*3 5.68 C 1.06667 km/h
2429 14-12-2020 09:00:00 6.21667 C 6.66 g/m*3 6.22 C 1.46667 km/h
2430 14-12-2020 10:00:00 7.025 C 6.78 g/m*3 7.03 C 0.53333 km/h
2431 14-12-2020 11:00:00 6.55833 C 6.71 g/m*3 6.56 C 0.93333 km/h
2432 14-12-2020 12:00:00 6.48333 C 6.79 g/m*3 6.48 C 3.34167 km/h
2433 14-12-2020 13:00:00 7.775 C 7.24 g/m*3 7.78 C 1.2 km/h
2434 14-12-2020 14:00:00 9.05 C 7.22 g/m*3 9.05 C 2.26667 km/h
2435 14-12-2020 15:00:00 8.89167 C 7.22 g/m*3 8.89 C 1.075 km/h
2436 14-12-2020 16:00:00 7.40833 C 6.8 g/m*3 7.41 C 2.66667 km/h
2437 14-12-2020 17:00:00 6.05 C 6.49 g/m*3 6.05 C 1.06667 km/h
2438 14-12-2020 18:00:00 5.85833 C 6.51 g/m*3 5.86 C 0.8 km/h
2439 14-12-2020 19:00:00 6.05 C 6.6 g/m*3 6.05 C 2.26667 km/h
2440 14-12-2020 20:00:00 6.10833 C 6.65 g/m*3 6.11 C 0.13333 km/h
2441 14-12-2020 21:00:00 6.28333 C 6.67 g/m*3 6.28 C 0.4 km/h
2442 14-12-2020 22:00:00 7.24167 C 6.76 g/m*3 7.24 C 3.61667 km/h
2443 14-12-2020 23:00:00 6.94167 C 6.71 g/m*3 6.94 C 0.26667 km/h
2444 15-12-2020 00:00:00 6.70833 C 6.76 g/m*3 6.71 C 0.53333 km/h
2445 15-12-2020 01:00:00 6.75 C 6.94 g/m*3 6.75 C 2 km/h
2446 15-12-2020 02:00:00 6.775 C 7.11 g/m*3 6.78 C 1.2 km/h
2447 15-12-2020 03:00:00 6.8 C 7.22 g/m*3 6.8 C 2.4 km/h
2448 15-12-2020 04:00:00 6.8 C 7.27 g/m*3 6.8 C 0.8 km/h
2449 15-12-2020 05:00:00 6.78333 C 7.33 g/m*3 6.78 C 0 km/h
2450 15-12-2020 06:00:00 6.775 C 7.33 g/m*3 6.78 C 0 km/h
Sensor: Nr:Datum:Temp:Abs-Feuchte:Windchill:Wind:
Aussen-T/F 2451 15-12-2020 07:00:00 6.73333 C 7.31 g/m*3 6.73 C 0.13333 km/h
2452 15-12-2020 08:00:00 6.56667 C 7.26 g/m*3 6.57 C 0 km/h
2453 15-12-2020 09:00:00 6.96667 C 7.5 g/m*3 6.97 C 0 km/h
2454 15-12-2020 10:00:00 7.66667 C 7.85 g/m*3 7.67 C 0.66667 km/h
2455 15-12-2020 11:00:00 8.45 C 8.26 g/m*3 8.45 C 1.06667 km/h
2456 15-12-2020 12:00:00 9.00833 C 8.56 g/m*3 9.01 C 0.93333 km/h
2457 15-12-2020 13:00:00 9.7 C 8.94 g/m*3 9.7 C 0 km/h
2458 15-12-2020 14:00:00 9.80833 C 9 g/m*3 9.81 C 0 km/h
2459 15-12-2020 15:00:00 9.91667 C 9.07 g/m*3 9.92 C 0 km/h
2460 15-12-2020 16:00:00 9.86667 C 9.04 g/m*3 9.87 C 0.26667 km/h
2461 15-12-2020 17:00:00 9.75833 C 8.98 g/m*3 9.76 C 0 km/h
2462 15-12-2020 18:00:00 9.79167 C 8.99 g/m*3 9.79 C 2.8 km/h
2463 15-12-2020 19:00:00 8.9 C 8.5 g/m*3 8.9 C 3.33333 km/h
2464 15-12-2020 20:00:00 7.90833 C 7.97 g/m*3 7.91 C 2.675 km/h
2465 15-12-2020 21:00:00 7.10833 C 7.56 g/m*3 7.11 C 1.86667 km/h
2466 15-12-2020 22:00:00 6.225 C 7.14 g/m*3 6.23 C 0.13333 km/h
2467 15-12-2020 23:00:00 5.91667 C 7.01 g/m*3 5.92 C 0.13333 km/h
2468 16-12-2020 00:00:00 6.625 C 7.37 g/m*3 6.63 C 0.13333 km/h
2469 16-12-2020 01:00:00 6.325 C 7.19 g/m*3 6.33 C 0.13333 km/h
2470 16-12-2020 02:00:00 6.41667 C 7.3 g/m*3 6.42 C 0.26667 km/h
2471 16-12-2020 03:00:00 6.73333 C 7.46 g/m*3 6.73 C 0.13333 km/h
2472 16-12-2020 04:00:00 6.70833 C 7.45 g/m*3 6.71 C 0 km/h
2473 16-12-2020 05:00:00 6.3 C 7.19 g/m*3 6.3 C 0 km/h
2474 16-12-2020 06:00:00 6.425 C 7.3 g/m*3 6.43 C 0 km/h
2475 16-12-2020 07:00:00 6.50833 C 7.35 g/m*3 6.51 C 0.13333 km/h
Sensor: Nr:Datum:Temp:Abs-Feuchte:Windchill:Wind:
Aussen-T/F 2476 16-12-2020 08:00:00 7.15833 C 7.67 g/m*3 7.16 C 0 km/h
2477 16-12-2020 09:00:00 7.44167 C 7.81 g/m*3 7.44 C 0 km/h
2478 16-12-2020 10:00:00 8.43333 C 8.33 g/m*3 8.43 C 0.13333 km/h
2479 16-12-2020 11:00:00 9.43333 C 8.88 g/m*3 9.43 C 0.4 km/h
2480 16-12-2020 12:00:00 9.89167 C 9.15 g/m*3 9.89 C 4.275 km/h
2481 16-12-2020 13:00:00 9.91667 C 9.06 g/m*3 9.92 C 4.41667 km/h
2482 16-12-2020 14:00:00 9.76667 C 8.85 g/m*3 9.77 C 2.93333 km/h
2483 16-12-2020 15:00:00 9.46667 C 8.65 g/m*3 9.47 C 0.4 km/h
2484 16-12-2020 16:00:00 7.875 C 7.79 g/m*3 7.88 C 1.6 km/h
2485 16-12-2020 17:00:00 7.125 C 7.51 g/m*3 7.13 C 2.93333 km/h
2486 16-12-2020 18:00:00 6.875 C 7.41 g/m*3 6.88 C 3.06667 km/h
2487 16-12-2020 19:00:00 7 C 7.52 g/m*3 7 C 2.13333 km/h
2488 16-12-2020 20:00:00 6.71667 C 7.38 g/m*3 6.72 C 2 km/h
2489 16-12-2020 21:00:00 6.31667 C 7.19 g/m*3 6.32 C 2.4 km/h
2490 16-12-2020 22:00:00 6.85833 C 7.47 g/m*3 6.86 C 2.8 km/h
2491 16-12-2020 23:00:00 7.23333 C 7.67 g/m*3 7.23 C 1.73333 km/h
2492 17-12-2020 00:00:00 7.04167 C 7.54 g/m*3 7.04 C 2 km/h
2493 17-12-2020 01:00:00 6.53333 C 7.29 g/m*3 6.53 C 2.13333 km/h
2494 17-12-2020 02:00:00 6.225 C 7.16 g/m*3 6.23 C 0.66667 km/h
2495 17-12-2020 03:00:00 7.05833 C 7.62 g/m*3 7.06 C 3.33333 km/h
2496 17-12-2020 04:00:00 7.25 C 7.72 g/m*3 7.25 C 0.8 km/h
2497 17-12-2020 05:00:00 7.2 C 7.69 g/m*3 7.2 C 1.86667 km/h
2498 17-12-2020 06:00:00 7.25 C 7.7 g/m*3 7.25 C 2 km/h
2499 17-12-2020 07:00:00 6.79167 C 7.45 g/m*3 6.79 C 1.2 km/h
2500 17-12-2020 08:00:00 7.03333 C 7.61 g/m*3 7.03 C 0.66667 km/h
Sensor: Nr:Datum:Temp:Abs-Feuchte:Windchill:Wind:
Aussen-T/F 2501 17-12-2020 09:00:00 7.79167 C 7.99 g/m*3 7.79 C 0.53333 km/h
2502 17-12-2020 10:00:00 8.94167 C 8.61 g/m*3 8.94 C 2.80833 km/h
2503 17-12-2020 11:00:00 9.04167 C 8.66 g/m*3 9.04 C 4.00833 km/h
2504 17-12-2020 12:00:00 8.85833 C 8.4 g/m*3 7.71 C 7.8 km/h
2505 17-12-2020 13:00:00 9.70833 C 8.36 g/m*3 8.34 C 9.65833 km/h
2506 17-12-2020 14:00:00 10.175 C 8.27 g/m*3 9.2 C 8.05833 km/h
2507 17-12-2020 15:00:00 9.58333 C 7.92 g/m*3 8.48 C 8.19167 km/h
2508 17-12-2020 16:00:00 8.56667 C 7.57 g/m*3 7.57 C 6.95833 km/h
2509 17-12-2020 17:00:00 7.29167 C 7.21 g/m*3 6.4 C 5.86667 km/h
2510 17-12-2020 18:00:00 6.69167 C 7.11 g/m*3 6.69 C 3.86667 km/h
2511 17-12-2020 19:00:00 5.05833 C 6.37 g/m*3 5.06 C 0.53333 km/h
2512 17-12-2020 20:00:00 4.93333 C 6.46 g/m*3 4.93 C 3.2 km/h
2513 17-12-2020 21:00:00 5.03333 C 6.54 g/m*3 5.03 C 0.8 km/h
2514 17-12-2020 22:00:00 4.85 C 6.46 g/m*3 4.85 C 0.26667 km/h
2515 17-12-2020 23:00:00 4.63333 C 6.39 g/m*3 4.63 C 0 km/h
2516 18-12-2020 00:00:00 4.14167 C 6.18 g/m*3 4.14 C 0 km/h
2517 18-12-2020 01:00:00 4.53333 C 6.39 g/m*3 4.53 C 0.53333 km/h
2518 18-12-2020 02:00:00 4.24167 C 6.26 g/m*3 4.24 C 0 km/h
2519 18-12-2020 03:00:00 3.4 C 5.9 g/m*3 3.4 C 0.13333 km/h
2520 18-12-2020 04:00:00 4.05 C 6.19 g/m*3 4.05 C 0.26667 km/h
2521 18-12-2020 05:00:00 3.79167 C 6.07 g/m*3 3.79 C 0.13333 km/h
2522 18-12-2020 06:00:00 3.025 C 5.78 g/m*3 3.03 C 0 km/h
2523 18-12-2020 07:00:00 2.59167 C 5.61 g/m*3 2.59 C 0.13333 km/h
2524 18-12-2020 08:00:00 2.35 C 5.52 g/m*3 2.35 C 0 km/h
2525 18-12-2020 09:00:00 2.45 C 5.56 g/m*3 2.45 C 0 km/h
Sensor: Nr:Datum:Temp:Abs-Feuchte:Windchill:Wind:
Aussen-T/F 2526 18-12-2020 10:00:00 2.36667 C 5.53 g/m*3 2.37 C 0 km/h
2527 18-12-2020 11:00:00 2.875 C 5.73 g/m*3 2.88 C 0.26667 km/h
2528 18-12-2020 12:00:00 4.3 C 6.36 g/m*3 4.3 C 2.53333 km/h
2529 18-12-2020 13:00:00 6.65833 C 7.43 g/m*3 6.66 C 0 km/h
2530 18-12-2020 14:00:00 6.8 C 7.5 g/m*3 6.8 C 1.73333 km/h
2531 18-12-2020 15:00:00 5.925 C 7.03 g/m*3 5.93 C 3.2 km/h
2532 18-12-2020 16:00:00 5.38333 C 6.78 g/m*3 5.38 C 3.49167 km/h
2533 18-12-2020 17:00:00 5.66667 C 6.92 g/m*3 5.67 C 3.34167 km/h
2534 18-12-2020 18:00:00 4.95833 C 6.57 g/m*3 4.96 C 1.6 km/h
2535 18-12-2020 19:00:00 4.88333 C 6.55 g/m*3 4.88 C 0.26667 km/h
2536 18-12-2020 20:00:00 3.94167 C 6.14 g/m*3 3.94 C 0.4 km/h
2537 18-12-2020 21:00:00 3.85 C 6.12 g/m*3 3.85 C 1.2 km/h
2538 18-12-2020 22:00:00 5.53333 C 6.9 g/m*3 5.53 C 1.88333 km/h
2539 18-12-2020 23:00:00 5.90833 C 7.07 g/m*3 5.91 C 0.93333 km/h
2540 19-12-2020 00:00:00 4.98333 C 6.6 g/m*3 4.98 C 1.33333 km/h
2541 19-12-2020 01:00:00 3.89167 C 6.12 g/m*3 3.89 C 2.26667 km/h
2542 19-12-2020 02:00:00 3.79167 C 6.08 g/m*3 3.79 C 2.26667 km/h
2543 19-12-2020 03:00:00 4.425 C 6.39 g/m*3 4.43 C 0.4 km/h
2544 19-12-2020 04:00:00 4.20833 C 6.26 g/m*3 4.21 C 0.53333 km/h
2545 19-12-2020 05:00:00 4.05 C 6.24 g/m*3 4.05 C 0.93333 km/h
2546 19-12-2020 06:00:00 3.65833 C 6.04 g/m*3 3.66 C 1.46667 km/h
2547 19-12-2020 07:00:00 3.3 C 5.88 g/m*3 3.3 C 1.06667 km/h
2548 19-12-2020 08:00:00 2.99167 C 5.78 g/m*3 2.99 C 0 km/h
2549 19-12-2020 09:00:00 2.5 C 5.59 g/m*3 2.5 C 0.26667 km/h
2550 19-12-2020 10:00:00 2.94167 C 5.78 g/m*3 2.94 C 0.93333 km/h
Sensor: Nr:Datum:Temp:Abs-Feuchte:Windchill:Wind:
Aussen-T/F 2551 19-12-2020 11:00:00 5.43333 C 6.85 g/m*3 5.43 C 3.46667 km/h
2552 19-12-2020 12:00:00 7.04167 C 7.61 g/m*3 7.04 C 3.86667 km/h
2553 19-12-2020 13:00:00 8.13333 C 8.19 g/m*3 8.13 C 3.86667 km/h
2554 19-12-2020 14:00:00 9.1 C 8.7 g/m*3 9.1 C 3.33333 km/h
2555 19-12-2020 15:00:00 9.36667 C 8.78 g/m*3 9.37 C 3.75 km/h
2556 19-12-2020 16:00:00 8.89167 C 8.16 g/m*3 8.89 C 2.26667 km/h
2557 19-12-2020 17:00:00 8.525 C 7.89 g/m*3 8.53 C 3.20833 km/h
2558 19-12-2020 18:00:00 8.8 C 7.73 g/m*3 8.8 C 4.95833 km/h
2559 19-12-2020 19:00:00 8.8 C 7.66 g/m*3 8.8 C 4.275 km/h
2560 19-12-2020 20:00:00 8.825 C 7.71 g/m*3 8.82 C 4.68333 km/h
2561 19-12-2020 21:00:00 8.75833 C 7.67 g/m*3 8.76 C 4.275 km/h
2562 19-12-2020 22:00:00 8.6 C 7.67 g/m*3 8.6 C 1.6 km/h
2563 19-12-2020 23:00:00 8.33333 C 7.71 g/m*3 8.33 C 0.93333 km/h
2564 20-12-2020 00:00:00 8.25 C 7.69 g/m*3 8.25 C 4.69167 km/h
2565 20-12-2020 01:00:00 8.125 C 7.57 g/m*3 8.13 C 1.74167 km/h
2566 20-12-2020 02:00:00 8.125 C 7.61 g/m*3 8.13 C 1.06667 km/h
2567 20-12-2020 03:00:00 7.89167 C 7.51 g/m*3 7.89 C 2.13333 km/h
2568 20-12-2020 04:00:00 8.09167 C 7.65 g/m*3 8.09 C 1.86667 km/h
2569 20-12-2020 05:00:00 7.71667 C 7.62 g/m*3 7.72 C 0.26667 km/h
2570 20-12-2020 06:00:00 7.5 C 7.6 g/m*3 7.5 C 0 km/h
2571 20-12-2020 07:00:00 7.46667 C 7.65 g/m*3 7.47 C 0.13333 km/h
2572 20-12-2020 08:00:00 7.25833 C 7.56 g/m*3 7.26 C 1.06667 km/h
2573 20-12-2020 09:00:00 7.13333 C 7.5 g/m*3 7.13 C 0 km/h
2574 20-12-2020 10:00:00 7.55 C 7.78 g/m*3 7.55 C 0 km/h
2575 20-12-2020 11:00:00 8.58333 C 8.33 g/m*3 8.58 C 3.2 km/h
Sensor: Nr:Datum:Temp:Abs-Feuchte:Windchill:Wind:
Aussen-T/F 2576 20-12-2020 12:00:00 9.65 C 8.85 g/m*3 9.65 C 3.46667 km/h
2577 20-12-2020 13:00:00 10.01667 C 8.85 g/m*3 10.02 C 4.95 km/h
2578 20-12-2020 14:00:00 10.15833 C 8.83 g/m*3 10.16 C 0.93333 km/h
2579 20-12-2020 15:00:00 9.74167 C 8.6 g/m*3 9.74 C 0.13333 km/h
2580 20-12-2020 16:00:00 9.21667 C 8.31 g/m*3 9.22 C 1.86667 km/h
2581 20-12-2020 17:00:00 8.66667 C 7.98 g/m*3 8.67 C 3.2 km/h
2582 20-12-2020 18:00:00 8.23333 C 7.77 g/m*3 8.23 C 4.4 km/h
2583 20-12-2020 19:00:00 7.175 C 7.24 g/m*3 7.18 C 0.93333 km/h
2584 20-12-2020 20:00:00 5.85 C 6.76 g/m*3 5.85 C 0.13333 km/h
2585 20-12-2020 21:00:00 6.05 C 6.98 g/m*3 6.05 C 0.4 km/h
2586 20-12-2020 22:00:00 6.26667 C 7.12 g/m*3 6.27 C 2.675 km/h
2587 20-12-2020 23:00:00 7.01667 C 7.48 g/m*3 6.03 C 6.025 km/h
2588 21-12-2020 00:00:00 7.05 C 7.38 g/m*3 7.05 C 3.33333 km/h
2589 21-12-2020 01:00:00 5.825 C 6.74 g/m*3 5.83 C 0 km/h
2590 21-12-2020 02:00:00 4.99167 C 6.47 g/m*3 4.99 C 0 km/h
2591 21-12-2020 03:00:00 4.29167 C 6.2 g/m*3 4.29 C 0 km/h
2592 21-12-2020 04:00:00 4.7 C 6.43 g/m*3 4.7 C 0 km/h
2593 21-12-2020 05:00:00 4.725 C 6.43 g/m*3 4.72 C 0 km/h
2594 21-12-2020 06:00:00 4.25 C 6.24 g/m*3 4.25 C 1.2 km/h
2595 21-12-2020 07:00:00 5.8 C 6.97 g/m*3 5.8 C 2.26667 km/h
2596 21-12-2020 08:00:00 5.26667 C 6.7 g/m*3 5.27 C 0 km/h
2597 21-12-2020 09:00:00 5.26667 C 6.71 g/m*3 5.27 C 0.26667 km/h
2598 21-12-2020 10:00:00 6.13333 C 7.1 g/m*3 6.13 C 0.66667 km/h
2599 21-12-2020 11:00:00 7.39167 C 7.71 g/m*3 7.39 C 1.86667 km/h
2600 21-12-2020 12:00:00 8.575 C 8.16 g/m*3 8.57 C 3.33333 km/h
Sensor: Nr:Datum:Temp:Abs-Feuchte:Windchill:Wind:
Aussen-T/F 2601 21-12-2020 13:00:00 9.71667 C 8.17 g/m*3 9.72 C 4.95 km/h
2602 21-12-2020 14:00:00 9.8 C 8.05 g/m*3 9.8 C 0.93333 km/h
2603 21-12-2020 15:00:00 8.90833 C 8.06 g/m*3 8.91 C 0.4 km/h
2604 21-12-2020 16:00:00 8.23333 C 7.88 g/m*3 8.23 C 0.13333 km/h
2605 21-12-2020 17:00:00 7.86667 C 7.81 g/m*3 7.87 C 0.66667 km/h
2606 21-12-2020 18:00:00 7.99167 C 7.93 g/m*3 7.99 C 2.13333 km/h
2607 21-12-2020 19:00:00 8.18333 C 8.05 g/m*3 8.18 C 1.2 km/h
2608 21-12-2020 20:00:00 8.35833 C 8.21 g/m*3 8.36 C 1.46667 km/h
2609 21-12-2020 21:00:00 8.75 C 8.42 g/m*3 8.1 C 5.76667 km/h
2610 21-12-2020 22:00:00 9.26667 C 8.69 g/m*3 7.97 C 8.86667 km/h
2611 21-12-2020 23:00:00 9.69167 C 8.85 g/m*3 9.69 C 4.14167 km/h
2612 22-12-2020 00:00:00 10.33333 C 9.18 g/m*3 8.83 C 11.275 km/h
2613 22-12-2020 01:00:00 11.35 C 9.56 g/m*3 11.35 C 15.43333 km/h
2614 22-12-2020 02:00:00 11.99167 C 9.88 g/m*3 11.99 C 14.5 km/h
2615 22-12-2020 03:00:00 12.76667 C 10.2 g/m*3 12.77 C 17.30833 km/h
2616 22-12-2020 04:00:00 13.18333 C 10.39 g/m*3 13.18 C 14.63333 km/h
2617 22-12-2020 05:00:00 13.225 C 10.57 g/m*3 13.23 C 19.03333 km/h
2618 22-12-2020 06:00:00 13.41667 C 10.66 g/m*3 13.42 C 18.5 km/h
2619 22-12-2020 07:00:00 13.6 C 10.71 g/m*3 13.6 C 15.56667 km/h
2620 22-12-2020 08:00:00 13.51667 C 10.65 g/m*3 13.52 C 16.76667 km/h
2621 22-12-2020 09:00:00 13.64167 C 10.74 g/m*3 13.64 C 14.63333 km/h
2622 22-12-2020 10:00:00 13.85833 C 10.95 g/m*3 13.86 C 14.36667 km/h
2623 22-12-2020 11:00:00 14.25833 C 11.22 g/m*3 14.26 C 12.76667 km/h
2624 22-12-2020 12:00:00 14.46667 C 11.39 g/m*3 14.47 C 13.425 km/h
2625 22-12-2020 13:00:00 14.80833 C 11.39 g/m*3 14.81 C 13.3 km/h
Sensor: Nr:Datum:Temp:Abs-Feuchte:Windchill:Wind:
Aussen-T/F 2626 22-12-2020 14:00:00 14.81667 C 11.31 g/m*3 14.82 C 14.23333 km/h
2627 22-12-2020 15:00:00 14.48333 C 11.23 g/m*3 14.48 C 11.7 km/h
2628 22-12-2020 16:00:00 14.025 C 11.01 g/m*3 14.03 C 8.86667 km/h
2629 22-12-2020 17:00:00 13.59167 C 10.79 g/m*3 13.59 C 6.58333 km/h
2630 22-12-2020 18:00:00 13.20833 C 10.82 g/m*3 13.21 C 2.4 km/h
2631 22-12-2020 19:00:00 12.89167 C 10.76 g/m*3 12.89 C 2.26667 km/h
2632 22-12-2020 20:00:00 12.35 C 10.46 g/m*3 12.35 C 5.49167 km/h
2633 22-12-2020 21:00:00 11.83333 C 10.18 g/m*3 11.83 C 2.4 km/h
2634 22-12-2020 22:00:00 11.675 C 10.13 g/m*3 11.68 C 0 km/h
2635 22-12-2020 23:00:00 11.55833 C 10.06 g/m*3 11.56 C 0.26667 km/h
2636 23-12-2020 00:00:00 11.65833 C 10.12 g/m*3 11.66 C 0 km/h
2637 23-12-2020 01:00:00 11.76667 C 10.19 g/m*3 11.77 C 0.13333 km/h
2638 23-12-2020 02:00:00 11.65833 C 10.12 g/m*3 11.66 C 0.53333 km/h
2639 23-12-2020 03:00:00 11.65 C 10.11 g/m*3 11.65 C 0 km/h
2640 23-12-2020 04:00:00 11.61667 C 10.14 g/m*3 11.62 C 0.66667 km/h
2641 23-12-2020 05:00:00 11.49167 C 10.07 g/m*3 11.49 C 0.13333 km/h
2642 23-12-2020 06:00:00 11.23333 C 9.89 g/m*3 11.23 C 0 km/h
2643 23-12-2020 07:00:00 11.275 C 9.98 g/m*3 11.28 C 0.93333 km/h
2644 23-12-2020 08:00:00 11.55 C 10.15 g/m*3 11.55 C 2 km/h
2645 23-12-2020 09:00:00 11.6 C 10.19 g/m*3 11.6 C 0.4 km/h
2646 23-12-2020 10:00:00 11.875 C 10.36 g/m*3 11.88 C 1.06667 km/h
2647 23-12-2020 11:00:00 12.45 C 10.74 g/m*3 12.45 C 0.13333 km/h
2648 23-12-2020 12:00:00 12.6 C 10.84 g/m*3 12.6 C 0 km/h
2649 23-12-2020 13:00:00 12.81667 C 10.99 g/m*3 12.82 C 0.53333 km/h
2650 23-12-2020 14:00:00 12.825 C 10.99 g/m*3 12.83 C 2 km/h
Sensor: Nr:Datum:Temp:Abs-Feuchte:Windchill:Wind:
Aussen-T/F 2651 23-12-2020 15:00:00 12.55833 C 10.81 g/m*3 12.56 C 2.4 km/h
2652 23-12-2020 16:00:00 12.03333 C 10.47 g/m*3 12.03 C 2.8 km/h
2653 23-12-2020 17:00:00 11.59167 C 10.18 g/m*3 11.59 C 3.2 km/h
2654 23-12-2020 18:00:00 11.30833 C 10 g/m*3 11.31 C 6.3 km/h
2655 23-12-2020 19:00:00 11.44167 C 9.95 g/m*3 11.44 C 13.95833 km/h
2656 23-12-2020 20:00:00 11.61667 C 9.79 g/m*3 11.62 C 11.03333 km/h
2657 23-12-2020 21:00:00 11.71667 C 9.73 g/m*3 11.72 C 9.69167 km/h
2658 23-12-2020 22:00:00 11.575 C 9.66 g/m*3 11.58 C 8.175 km/h
2659 23-12-2020 23:00:00 11.025 C 8.76 g/m*3 11.03 C 14.36667 km/h
2660 24-12-2020 00:00:00 9.8 C 7.96 g/m*3 7.92 C 13.03333 km/h
2661 24-12-2020 01:00:00 8.88333 C 7.46 g/m*3 7.03 C 11.56667 km/h
2662 24-12-2020 02:00:00 8.60833 C 7.33 g/m*3 6.39 C 13.56667 km/h
2663 24-12-2020 03:00:00 8.13333 C 7.19 g/m*3 6.1 C 11.69167 km/h
2664 24-12-2020 04:00:00 8.075 C 7.08 g/m*3 6.17 C 10.89167 km/h
2665 24-12-2020 05:00:00 8.225 C 7.02 g/m*3 6.04 C 12.76667 km/h
2666 24-12-2020 06:00:00 7.94167 C 7.16 g/m*3 6.91 C 6.71667 km/h
2667 24-12-2020 07:00:00 7.975 C 7.2 g/m*3 5.68 C 13.16667 km/h
2668 24-12-2020 08:00:00 7.7 C 7.23 g/m*3 5.95 C 9.68333 km/h
2669 24-12-2020 09:00:00 7.39167 C 7.3 g/m*3 5.96 C 7.91667 km/h
2670 24-12-2020 10:00:00 7.55 C 7.46 g/m*3 6.38 C 6.975 km/h
2671 24-12-2020 11:00:00 8.225 C 7.6 g/m*3 7.1 C 7.25 km/h
2672 24-12-2020 12:00:00 8.48333 C 7.41 g/m*3 7.27 C 7.79167 km/h
2673 24-12-2020 13:00:00 8.96667 C 7.51 g/m*3 8.13 C 6.55833 km/h
2674 24-12-2020 14:00:00 6.775 C 6.91 g/m*3 3.77 C 16.23333 km/h
2675 24-12-2020 15:00:00 5.28333 C 6.42 g/m*3 3.04 C 9.81667 km/h
Sensor: Nr:Datum:Temp:Abs-Feuchte:Windchill:Wind:
Aussen-T/F 2676 24-12-2020 16:00:00 4.88333 C 6.32 g/m*3 4.88 C 4.825 km/h
2677 24-12-2020 17:00:00 4.525 C 6.19 g/m*3 4.53 C 4.28333 km/h
2678 24-12-2020 18:00:00 4.46667 C 6.22 g/m*3 4.47 C 3.08333 km/h
2679 24-12-2020 19:00:00 4.68333 C 6.36 g/m*3 4.68 C 3.34167 km/h
2680 24-12-2020 20:00:00 4.3 C 6.16 g/m*3 2.48 C 7.38333 km/h
2681 24-12-2020 21:00:00 4.29167 C 6.19 g/m*3 4.29 C 4.275 km/h
2682 24-12-2020 22:00:00 4.35833 C 6.22 g/m*3 4.36 C 4.69167 km/h
2683 24-12-2020 23:00:00 4.55833 C 6.28 g/m*3 3.3 C 5.75833 km/h
2684 25-12-2020 00:00:00 4.6 C 6.26 g/m*3 2.95 C 6.975 km/h
2685 25-12-2020 01:00:00 4.44167 C 6.15 g/m*3 3.36 C 5.21667 km/h
2686 25-12-2020 02:00:00 4.30833 C 6.1 g/m*3 4.31 C 4.14167 km/h
2687 25-12-2020 03:00:00 4.35 C 6.12 g/m*3 4.35 C 3.33333 km/h
2688 25-12-2020 04:00:00 4.30833 C 6.03 g/m*3 2.27 C 8.19167 km/h
2689 25-12-2020 05:00:00 4.19167 C 5.86 g/m*3 2.98 C 5.49167 km/h
2690 25-12-2020 06:00:00 3.89167 C 5.69 g/m*3 2.09 C 7.10833 km/h
2691 25-12-2020 07:00:00 3.74167 C 5.52 g/m*3 1.57 C 8.33333 km/h
2692 25-12-2020 08:00:00 3.275 C 5.29 g/m*3 1.05 C 8.19167 km/h
2693 25-12-2020 09:00:00 3.1 C 5.21 g/m*3 1.38 C 6.44167 km/h
2694 25-12-2020 10:00:00 2.89167 C 5.14 g/m*3 2.89 C 4.825 km/h
2695 25-12-2020 11:00:00 2.675 C 5.19 g/m*3 0.94 C 6.3 km/h
2696 25-12-2020 12:00:00 3.9 C 5.57 g/m*3 1.65 C 8.73333 km/h
2697 25-12-2020 13:00:00 4.08333 C 5.65 g/m*3 1.9 C 8.60833 km/h
2698 25-12-2020 14:00:00 4.35833 C 5.68 g/m*3 2.33 C 8.2 km/h
2699 25-12-2020 15:00:00 4.46667 C 5.76 g/m*3 4.47 C 3.49167 km/h
2700 25-12-2020 16:00:00 3.40833 C 5.52 g/m*3 3.41 C 1.2 km/h
Sensor: Nr:Datum:Temp:Abs-Feuchte:Windchill:Wind:
Aussen-T/F 2701 25-12-2020 17:00:00 2.11667 C 5.17 g/m*3 2.12 C 1.73333 km/h
2702 25-12-2020 18:00:00 1.625 C 5.1 g/m*3 1.63 C 3.46667 km/h
2703 25-12-2020 19:00:00 1.475 C 5.09 g/m*3 1.48 C 0.8 km/h
2704 25-12-2020 20:00:00 2.00833 C 5.33 g/m*3 2.01 C 2.26667 km/h
2705 25-12-2020 21:00:00 2.29167 C 5.43 g/m*3 2.29 C 0.8 km/h
2706 25-12-2020 22:00:00 2.23333 C 5.41 g/m*3 2.23 C 0.26667 km/h
2707 25-12-2020 23:00:00 2.575 C 5.55 g/m*3 2.58 C 0.26667 km/h
2708 26-12-2020 00:00:00 2.64167 C 5.57 g/m*3 2.64 C 0 km/h
2709 26-12-2020 01:00:00 2.48333 C 5.48 g/m*3 2.48 C 2.80833 km/h
2710 26-12-2020 02:00:00 2.3 C 5.39 g/m*3 0.19 C 7.25833 km/h
2711 26-12-2020 03:00:00 2.275 C 5.38 g/m*3 0.68 C 5.75833 km/h
2712 26-12-2020 04:00:00 2.15833 C 5.34 g/m*3 2.16 C 3.06667 km/h
2713 26-12-2020 05:00:00 1.975 C 5.27 g/m*3 1.98 C 0 km/h
2714 26-12-2020 06:00:00 1.39167 C 5.06 g/m*3 1.39 C 0.26667 km/h
2715 26-12-2020 07:00:00 0.95833 C 4.93 g/m*3 0.96 C 0.13333 km/h
2716 26-12-2020 08:00:00 0.83333 C 4.93 g/m*3 0.83 C 0.8 km/h
2717 26-12-2020 09:00:00 1.775 C 5.26 g/m*3 1.78 C 2.26667 km/h
2718 26-12-2020 10:00:00 2.60833 C 5.55 g/m*3 2.61 C 1.06667 km/h
2719 26-12-2020 11:00:00 3.64167 C 5.79 g/m*3 1.97 C 6.575 km/h
2720 26-12-2020 12:00:00 4.375 C 5.71 g/m*3 1.83 C 10.36667 km/h
2721 26-12-2020 13:00:00 4.575 C 5.65 g/m*3 2.22 C 9.69167 km/h
2722 26-12-2020 14:00:00 4.48333 C 5.52 g/m*3 2.08 C 9.81667 km/h
2723 26-12-2020 15:00:00 4.11667 C 5.35 g/m*3 2.12 C 7.925 km/h
2724 26-12-2020 16:00:00 3.9 C 5.24 g/m*3 1.58 C 9 km/h
2725 26-12-2020 17:00:00 3.9 C 5.25 g/m*3 2.27 C 6.56667 km/h
Sensor: Nr:Datum:Temp:Abs-Feuchte:Windchill:Wind:
Aussen-T/F 2726 26-12-2020 18:00:00 3.88333 C 5.24 g/m*3 1.56 C 9 km/h
2727 26-12-2020 19:00:00 3.43333 C 5.11 g/m*3 1.73 C 6.575 km/h
2728 26-12-2020 20:00:00 3.55 C 5.12 g/m*3 1.73 C 6.975 km/h
2729 26-12-2020 21:00:00 3.225 C 5.06 g/m*3 1.49 C 6.56667 km/h
2730 26-12-2020 22:00:00 3.025 C 5.06 g/m*3 0.8 C 8.05 km/h
2731 26-12-2020 23:00:00 2.9 C 4.98 g/m*3 0.36 C 9.14167 km/h
2732 27-12-2020 00:00:00 2.825 C 4.99 g/m*3 0.89 C 6.975 km/h
2733 27-12-2020 01:00:00 2.99167 C 5.05 g/m*3 0.3 C 9.81667 km/h
2734 27-12-2020 02:00:00 3.25833 C 5.08 g/m*3 1.27 C 7.375 km/h
2735 27-12-2020 03:00:00 3.15833 C 5.06 g/m*3 1.9 C 5.21667 km/h
2736 27-12-2020 04:00:00 3.24167 C 5.08 g/m*3 1.17 C 7.65833 km/h
2737 27-12-2020 05:00:00 3.4 C 5.08 g/m*3 0.83 C 9.66667 km/h
2738 27-12-2020 06:00:00 3.44167 C 5.1 g/m*3 1.21 C 8.33333 km/h
2739 27-12-2020 07:00:00 3.55 C 5.22 g/m*3 1.73 C 6.98333 km/h
2740 27-12-2020 08:00:00 3.83333 C 5.3 g/m*3 1.51 C 8.975 km/h
2741 27-12-2020 09:00:00 3.88333 C 5.4 g/m*3 1.28 C 10.20833 km/h
2742 27-12-2020 10:00:00 3.925 C 5.45 g/m*3 1.82 C 8.18333 km/h
2743 27-12-2020 11:00:00 4.56667 C 5.5 g/m*3 1.76 C 11.83333 km/h
2744 27-12-2020 12:00:00 4.625 C 5.68 g/m*3 2.4 C 9.15 km/h
2745 27-12-2020 13:00:00 4.16667 C 5.78 g/m*3 2.1 C 8.2 km/h
2746 27-12-2020 14:00:00 3.9 C 5.78 g/m*3 1.65 C 8.73333 km/h
2747 27-12-2020 15:00:00 3.8 C 5.83 g/m*3 1.64 C 8.325 km/h
2748 27-12-2020 16:00:00 3.8 C 5.85 g/m*3 2.34 C 6.025 km/h
2749 27-12-2020 17:00:00 3.85833 C 5.88 g/m*3 1.47 C 9.25833 km/h
2750 27-12-2020 18:00:00 3.74167 C 5.85 g/m*3 2.08 C 6.575 km/h
Sensor: Nr:Datum:Temp:Abs-Feuchte:Windchill:Wind:
Aussen-T/F 2751 27-12-2020 19:00:00 3.95833 C 5.95 g/m*3 1.68 C 8.875 km/h
2752 27-12-2020 20:00:00 4.1 C 6.02 g/m*3 3.03 C 5.08333 km/h
2753 27-12-2020 21:00:00 4.13333 C 6.05 g/m*3 3.01 C 5.21667 km/h
2754 27-12-2020 22:00:00 4.1 C 6.08 g/m*3 4.1 C 1.46667 km/h
2755 27-12-2020 23:00:00 4.10833 C 6.12 g/m*3 4.11 C 1.6 km/h
2756 28-12-2020 00:00:00 4.15 C 6.17 g/m*3 4.15 C 1.6 km/h
2757 28-12-2020 01:00:00 4.11667 C 6.15 g/m*3 4.12 C 0.66667 km/h
2758 28-12-2020 02:00:00 3.78333 C 6.02 g/m*3 3.78 C 0.53333 km/h
2759 28-12-2020 03:00:00 3.66667 C 5.99 g/m*3 3.67 C 1.46667 km/h
2760 28-12-2020 04:00:00 3.725 C 6.04 g/m*3 3.73 C 2.01667 km/h
2761 28-12-2020 05:00:00 3.86667 C 6.11 g/m*3 3.87 C 0.8 km/h
2762 28-12-2020 06:00:00 3.71667 C 6.03 g/m*3 3.72 C 1.06667 km/h
2763 28-12-2020 07:00:00 3.08333 C 5.74 g/m*3 3.08 C 0.8 km/h
2764 28-12-2020 08:00:00 2 C 5.33 g/m*3 2 C 2.4 km/h
2765 28-12-2020 09:00:00 2.55 C 5.59 g/m*3 2.55 C 0.93333 km/h
2766 28-12-2020 10:00:00 3.8 C 6.09 g/m*3 3.8 C 0 km/h
2767 28-12-2020 11:00:00 4.59167 C 6.42 g/m*3 4.59 C 0.66667 km/h
2768 28-12-2020 12:00:00 5.04167 C 6.49 g/m*3 5.04 C 3.33333 km/h
2769 28-12-2020 13:00:00 5.59167 C 6.59 g/m*3 5.59 C 0.8 km/h
2770 28-12-2020 14:00:00 5.675 C 6.68 g/m*3 5.68 C 1.06667 km/h
2771 28-12-2020 15:00:00 5.15 C 6.45 g/m*3 5.15 C 3.48333 km/h
2772 28-12-2020 16:00:00 4.68333 C 6.28 g/m*3 4.68 C 3.475 km/h
2773 28-12-2020 17:00:00 4.01667 C 6.03 g/m*3 4.02 C 0.8 km/h
2774 28-12-2020 18:00:00 3.81667 C 5.99 g/m*3 3.82 C 0.4 km/h
2775 28-12-2020 19:00:00 3.21667 C 5.76 g/m*3 3.22 C 1.73333 km/h
Sensor: Nr:Datum:Temp:Abs-Feuchte:Windchill:Wind:
Aussen-T/F 2776 28-12-2020 20:00:00 1.95 C 5.27 g/m*3 1.95 C 2 km/h
2777 28-12-2020 21:00:00 2.64167 C 5.58 g/m*3 2.64 C 0 km/h
2778 28-12-2020 22:00:00 1.64167 C 5.2 g/m*3 1.64 C 2.13333 km/h
2779 28-12-2020 23:00:00 1.70833 C 5.25 g/m*3 1.71 C 2.13333 km/h
2780 29-12-2020 00:00:00 2.58333 C 5.59 g/m*3 2.58 C 1.875 km/h
2781 29-12-2020 01:00:00 2.6 C 5.56 g/m*3 2.6 C 0.8 km/h
2782 29-12-2020 02:00:00 2.58333 C 5.55 g/m*3 2.58 C 3.33333 km/h
2783 29-12-2020 03:00:00 1.86667 C 5.26 g/m*3 1.87 C 2.4 km/h
2784 29-12-2020 04:00:00 2 C 5.35 g/m*3 2 C 0 km/h
2785 29-12-2020 05:00:00 2.39167 C 5.48 g/m*3 2.39 C 0 km/h
2786 29-12-2020 06:00:00 2.38333 C 5.5 g/m*3 2.38 C 1.73333 km/h
2787 29-12-2020 07:00:00 2.64167 C 5.63 g/m*3 1.26 C 5.35833 km/h
2788 29-12-2020 08:00:00 2.93333 C 5.74 g/m*3 2.93 C 4.28333 km/h
2789 29-12-2020 09:00:00 3.2 C 5.83 g/m*3 0.96 C 8.2 km/h
2790 29-12-2020 10:00:00 3.53333 C 5.9 g/m*3 2.08 C 5.89167 km/h
2791 29-12-2020 11:00:00 4.03333 C 5.9 g/m*3 0.75 C 13.83333 km/h
2792 29-12-2020 12:00:00 4.78333 C 5.98 g/m*3 1.42 C 15.43333 km/h
2793 29-12-2020 13:00:00 5.00833 C 5.91 g/m*3 1.88 C 14.23333 km/h
2794 29-12-2020 14:00:00 5 C 5.9 g/m*3 3.05 C 8.31667 km/h
2795 29-12-2020 15:00:00 4.90833 C 6.05 g/m*3 4.91 C 2.81667 km/h
2796 29-12-2020 16:00:00 4.35833 C 5.97 g/m*3 4.36 C 2.4 km/h
2797 29-12-2020 17:00:00 3.85 C 5.85 g/m*3 3.85 C 1.73333 km/h
2798 29-12-2020 18:00:00 3.13333 C 5.56 g/m*3 3.13 C 1.86667 km/h
2799 29-12-2020 19:00:00 2.00833 C 5.22 g/m*3 2.01 C 2.66667 km/h
2800 29-12-2020 20:00:00 1.83333 C 5.24 g/m*3 1.83 C 0 km/h
Sensor: Nr:Datum:Temp:Abs-Feuchte:Windchill:Wind:
Aussen-T/F 2801 29-12-2020 21:00:00 1.65833 C 5.17 g/m*3 1.66 C 0.4 km/h
2802 29-12-2020 22:00:00 1.16667 C 5.03 g/m*3 1.17 C 1.2 km/h
2803 29-12-2020 23:00:00 1.39167 C 5.12 g/m*3 1.39 C 0 km/h
2804 30-12-2020 00:00:00 1.925 C 5.32 g/m*3 1.93 C 0 km/h
2805 30-12-2020 01:00:00 2.025 C 5.34 g/m*3 2.03 C 0 km/h
2806 30-12-2020 02:00:00 2.26667 C 5.47 g/m*3 2.27 C 0 km/h
2807 30-12-2020 03:00:00 2.54167 C 5.59 g/m*3 2.54 C 0 km/h
2808 30-12-2020 04:00:00 2.61667 C 5.62 g/m*3 2.62 C 0 km/h
2809 30-12-2020 05:00:00 2.78333 C 5.68 g/m*3 2.78 C 0 km/h
2810 30-12-2020 06:00:00 2.96667 C 5.75 g/m*3 2.97 C 0 km/h
2811 30-12-2020 07:00:00 3.45833 C 5.95 g/m*3 3.46 C 1.6 km/h
2812 30-12-2020 08:00:00 3.625 C 6.01 g/m*3 3.63 C 1.2 km/h
2813 30-12-2020 09:00:00 3.78333 C 6.08 g/m*3 3.78 C 1.6 km/h
2814 30-12-2020 10:00:00 4.2 C 6.25 g/m*3 4.2 C 2.26667 km/h
2815 30-12-2020 11:00:00 4.45 C 6.26 g/m*3 2.95 C 6.43333 km/h
2816 30-12-2020 12:00:00 4.75 C 6.18 g/m*3 2.65 C 8.74167 km/h
2817 30-12-2020 13:00:00 5.06667 C 5.93 g/m*3 3.27 C 7.78333 km/h
2818 30-12-2020 14:00:00 5.675 C 6.07 g/m*3 5.68 C 4.54167 km/h
2819 30-12-2020 15:00:00 5.79167 C 5.95 g/m*3 4.23 C 7.375 km/h
2820 30-12-2020 16:00:00 5.475 C 5.92 g/m*3 3.68 C 8.05 km/h
2821 30-12-2020 17:00:00 4.9 C 5.72 g/m*3 3.22 C 7.24167 km/h
2822 30-12-2020 18:00:00 4.65 C 5.7 g/m*3 2.37 C 9.41667 km/h
2823 30-12-2020 19:00:00 4.34167 C 5.71 g/m*3 3.2 C 5.35 km/h
2824 30-12-2020 20:00:00 4.28333 C 5.7 g/m*3 2.89 C 6.04167 km/h
2825 30-12-2020 21:00:00 4.23333 C 5.7 g/m*3 4.23 C 4.55 km/h
Sensor: Nr:Datum:Temp:Abs-Feuchte:Windchill:Wind:
Aussen-T/F 2826 30-12-2020 22:00:00 4 C 5.66 g/m*3 4 C 2 km/h
2827 30-12-2020 23:00:00 4.01667 C 5.7 g/m*3 4.02 C 1.875 km/h
2828 31-12-2020 00:00:00 4.03333 C 5.68 g/m*3 4.03 C 1.46667 km/h
2829 31-12-2020 01:00:00 3.43333 C 5.53 g/m*3 3.43 C 0.66667 km/h
2830 31-12-2020 02:00:00 3.175 C 5.51 g/m*3 3.18 C 1.46667 km/h
2831 31-12-2020 03:00:00 2.84167 C 5.4 g/m*3 2.84 C 0.66667 km/h
2832 31-12-2020 04:00:00 2.78333 C 5.39 g/m*3 2.78 C 0 km/h
2833 31-12-2020 05:00:00 2.80833 C 5.44 g/m*3 2.81 C 0.26667 km/h
2834 31-12-2020 06:00:00 2.95833 C 5.56 g/m*3 2.96 C 0 km/h
2835 31-12-2020 07:00:00 2.79167 C 5.51 g/m*3 2.79 C 1.06667 km/h
2836 31-12-2020 08:00:00 2.69167 C 5.47 g/m*3 2.69 C 2.53333 km/h
2837 31-12-2020 09:00:00 2.68333 C 5.48 g/m*3 2.68 C 1.06667 km/h
2838 31-12-2020 10:00:00 3.16667 C 5.66 g/m*3 3.17 C 0.93333 km/h
2839 31-12-2020 11:00:00 3.75833 C 5.72 g/m*3 3.76 C 3.6 km/h
2840 31-12-2020 12:00:00 4.05 C 5.77 g/m*3 4.05 C 3.21667 km/h
2841 31-12-2020 13:00:00 3.79167 C 5.75 g/m*3 3.79 C 1.2 km/h
2842 31-12-2020 14:00:00 3.85833 C 5.82 g/m*3 3.86 C 0.53333 km/h
2843 31-12-2020 15:00:00 3.59167 C 5.71 g/m*3 3.59 C 0.66667 km/h
2844 31-12-2020 16:00:00 3 C 5.56 g/m*3 3 C 0.26667 km/h
2845 31-12-2020 17:00:00 2.73333 C 5.52 g/m*3 2.73 C 0.13333 km/h
2846 31-12-2020 18:00:00 2.71667 C 5.54 g/m*3 2.72 C 0 km/h
2847 31-12-2020 19:00:00 2.625 C 5.51 g/m*3 2.63 C 0.26667 km/h
2848 31-12-2020 20:00:00 2.38333 C 5.42 g/m*3 2.38 C 0 km/h
2849 31-12-2020 21:00:00 2.225 C 5.4 g/m*3 2.23 C 0 km/h
2850 31-12-2020 22:00:00 2.15 C 5.37 g/m*3 2.15 C 0 km/h
Sensor: Nr:Datum:Temp:Abs-Feuchte:Windchill:Wind:
Aussen-T/F 2851 31-12-2020 23:00:00 1.26667 C 5.02 g/m*3 1.27 C 0 km/h
2852 01-01-2021 00:00:00 1.1 C 5.01 g/m*3 1.1 C 0 km/h
2853 01-01-2021 01:00:00 1.16667 C 5.04 g/m*3 1.17 C 0 km/h
2854 01-01-2021 02:00:00 1.425 C 5.13 g/m*3 1.43 C 0 km/h
2855 01-01-2021 03:00:00 1.725 C 5.25 g/m*3 1.73 C 0.13333 km/h
2856 01-01-2021 04:00:00 1.88333 C 5.35 g/m*3 1.88 C 1.46667 km/h
2857 01-01-2021 05:00:00 2.05833 C 5.41 g/m*3 2.06 C 0.53333 km/h
2858 01-01-2021 06:00:00 2.24167 C 5.48 g/m*3 2.24 C 0 km/h
2859 01-01-2021 07:00:00 2.425 C 5.55 g/m*3 2.42 C 0.26667 km/h
2860 01-01-2021 08:00:00 2.5 C 5.58 g/m*3 2.5 C 0.26667 km/h
2861 01-01-2021 09:00:00 2.55 C 5.59 g/m*3 2.55 C 0 km/h
2862 01-01-2021 10:00:00 2.73333 C 5.66 g/m*3 2.73 C 0 km/h
2863 01-01-2021 11:00:00 2.99167 C 5.76 g/m*3 2.99 C 2.53333 km/h
2864 01-01-2021 12:00:00 2.95 C 5.75 g/m*3 2.95 C 2 km/h
2865 01-01-2021 13:00:00 3.025 C 5.72 g/m*3 3.03 C 2 km/h
2866 01-01-2021 14:00:00 3.075 C 5.74 g/m*3 3.08 C 0.53333 km/h
2867 01-01-2021 15:00:00 3.13333 C 5.76 g/m*3 3.13 C 1.2 km/h
2868 01-01-2021 16:00:00 2.9 C 5.67 g/m*3 2.9 C 0.8 km/h
2869 01-01-2021 17:00:00 2.68333 C 5.59 g/m*3 2.68 C 0 km/h
2870 01-01-2021 18:00:00 2.525 C 5.53 g/m*3 2.53 C 0 km/h
2871 01-01-2021 19:00:00 1.80833 C 5.27 g/m*3 1.81 C 0 km/h
2872 01-01-2021 20:00:00 1.26667 C 5.07 g/m*3 1.27 C 0 km/h
2873 01-01-2021 21:00:00 0.8 C 4.91 g/m*3 0.8 C 0 km/h
2874 01-01-2021 22:00:00 0.60833 C 4.88 g/m*3 0.61 C 0 km/h
2875 01-01-2021 23:00:00 0.76667 C 4.95 g/m*3 0.77 C 0 km/h
Sensor: Nr:Datum:Temp:Abs-Feuchte:Windchill:Wind:
Aussen-T/F 2876 02-01-2021 00:00:00 0.80833 C 4.97 g/m*3 0.81 C 1.2 km/h
2877 02-01-2021 01:00:00 0.75 C 4.95 g/m*3 0.75 C 1.33333 km/h
2878 02-01-2021 02:00:00 0.75833 C 4.95 g/m*3 0.76 C 0 km/h
2879 02-01-2021 03:00:00 0.675 C 4.92 g/m*3 0.68 C 0.8 km/h
2880 02-01-2021 04:00:00 0.375 C 4.82 g/m*3 0.38 C 2 km/h
2881 02-01-2021 05:00:00 0.325 C 4.81 g/m*3 0.33 C 3.06667 km/h
2882 02-01-2021 06:00:00 0.425 C 4.84 g/m*3 0.43 C 3.46667 km/h
2883 02-01-2021 07:00:00 0.40833 C 4.83 g/m*3 0.41 C 3.86667 km/h
2884 02-01-2021 08:00:00 0.4 C 4.83 g/m*3 0.4 C 1.86667 km/h
2885 02-01-2021 09:00:00 0.53333 C 4.88 g/m*3 0.53 C 1.06667 km/h
2886 02-01-2021 10:00:00 0.81667 C 4.97 g/m*3 0.82 C 0.8 km/h
2887 02-01-2021 11:00:00 1.3 C 5.13 g/m*3 1.3 C 0.4 km/h
2888 02-01-2021 12:00:00 1.85 C 5.27 g/m*3 1.85 C 0.8 km/h
2889 02-01-2021 13:00:00 2.23333 C 5.33 g/m*3 2.23 C 1.33333 km/h
2890 02-01-2021 14:00:00 2.425 C 5.38 g/m*3 2.42 C 0.66667 km/h
2891 02-01-2021 15:00:00 2.65 C 5.46 g/m*3 2.65 C 1.6 km/h
2892 02-01-2021 16:00:00 2.525 C 5.41 g/m*3 2.53 C 0.4 km/h
2893 02-01-2021 17:00:00 2.18333 C 5.34 g/m*3 2.18 C 0.4 km/h
2894 02-01-2021 18:00:00 2.03333 C 5.29 g/m*3 2.03 C 0 km/h
2895 02-01-2021 19:00:00 1.95833 C 5.3 g/m*3 1.96 C 0 km/h
2896 02-01-2021 20:00:00 1.9 C 5.3 g/m*3 1.9 C 0 km/h
2897 02-01-2021 21:00:00 1.89167 C 5.3 g/m*3 1.89 C 0 km/h
2898 02-01-2021 22:00:00 1.8 C 5.26 g/m*3 1.8 C 0 km/h
2899 02-01-2021 23:00:00 1.8 C 5.26 g/m*3 1.8 C 0 km/h
2900 03-01-2021 00:00:00 1.88333 C 5.29 g/m*3 1.88 C 0 km/h
Sensor: Nr:Datum:Temp:Abs-Feuchte:Windchill:Wind:
Aussen-T/F 2901 03-01-2021 01:00:00 1.8 C 5.26 g/m*3 1.8 C 3.20833 km/h
2902 03-01-2021 02:00:00 1.74167 C 5.18 g/m*3 1.74 C 1.73333 km/h
2903 03-01-2021 03:00:00 2.04167 C 5.04 g/m*3 2.04 C 2.53333 km/h
2904 03-01-2021 04:00:00 2.26667 C 5.06 g/m*3 2.27 C 2.66667 km/h
2905 03-01-2021 05:00:00 2.11667 C 5.09 g/m*3 2.12 C 0.66667 km/h
2906 03-01-2021 06:00:00 2.05833 C 5.1 g/m*3 2.06 C 0.93333 km/h
2907 03-01-2021 07:00:00 1.99167 C 5.03 g/m*3 1.99 C 1.46667 km/h
2908 03-01-2021 08:00:00 2.29167 C 4.99 g/m*3 2.29 C 1.73333 km/h
2909 03-01-2021 09:00:00 2.375 C 5.09 g/m*3 2.38 C 0 km/h
2910 03-01-2021 10:00:00 2.60833 C 5.12 g/m*3 2.61 C 1.60833 km/h
2911 03-01-2021 11:00:00 3.08333 C 5.17 g/m*3 3.08 C 3.875 km/h
2912 03-01-2021 12:00:00 3.375 C 5.2 g/m*3 1.53 C 6.975 km/h
2913 03-01-2021 13:00:00 3.49167 C 5.26 g/m*3 3.49 C 3.74167 km/h
2914 03-01-2021 14:00:00 3.71667 C 5.34 g/m*3 2.39 C 5.61667 km/h
2915 03-01-2021 15:00:00 3.75 C 5.42 g/m*3 3.75 C 3.2 km/h
2916 03-01-2021 16:00:00 3.51667 C 5.43 g/m*3 3.52 C 4.00833 km/h
2917 03-01-2021 17:00:00 3.25833 C 5.43 g/m*3 3.26 C 0.93333 km/h
2918 03-01-2021 18:00:00 2.925 C 5.43 g/m*3 2.93 C 0.26667 km/h
2919 03-01-2021 19:00:00 2.66667 C 5.41 g/m*3 2.67 C 0.53333 km/h
2920 03-01-2021 20:00:00 2.51667 C 5.41 g/m*3 2.52 C 0.13333 km/h
2921 03-01-2021 21:00:00 2.46667 C 5.39 g/m*3 2.47 C 0.4 km/h
2922 03-01-2021 22:00:00 2.375 C 5.36 g/m*3 2.38 C 0 km/h
2923 03-01-2021 23:00:00 2.3 C 5.34 g/m*3 2.3 C 0 km/h
2924 04-01-2021 00:00:00 2.225 C 5.36 g/m*3 2.23 C 0 km/h
2925 04-01-2021 01:00:00 2.06667 C 5.3 g/m*3 2.07 C 0 km/h
Sensor: Nr:Datum:Temp:Abs-Feuchte:Windchill:Wind:
Aussen-T/F 2926 04-01-2021 02:00:00 1.85833 C 5.23 g/m*3 1.86 C 0.13333 km/h
2927 04-01-2021 03:00:00 1.78333 C 5.2 g/m*3 1.78 C 0.13333 km/h
2928 04-01-2021 04:00:00 1.63333 C 5.19 g/m*3 1.63 C 0 km/h
2929 04-01-2021 05:00:00 1.39167 C 5.1 g/m*3 1.39 C 0 km/h
2930 04-01-2021 06:00:00 1.06667 C 4.99 g/m*3 1.07 C 0 km/h
2931 04-01-2021 07:00:00 0.90833 C 4.95 g/m*3 0.91 C 0 km/h
2932 04-01-2021 08:00:00 0.96667 C 4.97 g/m*3 0.97 C 0 km/h
2933 04-01-2021 09:00:00 1.14167 C 5.03 g/m*3 1.14 C 0 km/h
2934 04-01-2021 10:00:00 1.31667 C 5.09 g/m*3 1.32 C 0.13333 km/h
2935 04-01-2021 11:00:00 1.60833 C 5.23 g/m*3 1.61 C 0 km/h
2936 04-01-2021 12:00:00 1.81667 C 5.32 g/m*3 1.82 C 0.13333 km/h
2937 04-01-2021 13:00:00 1.975 C 5.38 g/m*3 1.98 C 0.53333 km/h
2938 04-01-2021 14:00:00 2.025 C 5.4 g/m*3 2.03 C 0.26667 km/h
2939 04-01-2021 15:00:00 2 C 5.39 g/m*3 2 C 0.26667 km/h
2940 04-01-2021 16:00:00 1.93333 C 5.37 g/m*3 1.93 C 0 km/h
2941 04-01-2021 17:00:00 1.80833 C 5.32 g/m*3 1.81 C 0 km/h
2942 04-01-2021 18:00:00 1.8 C 5.32 g/m*3 1.8 C 0.66667 km/h
2943 04-01-2021 19:00:00 1.8 C 5.32 g/m*3 1.8 C 1.06667 km/h
2944 04-01-2021 20:00:00 1.75 C 5.3 g/m*3 1.75 C 0 km/h
2945 04-01-2021 21:00:00 1.70833 C 5.28 g/m*3 1.71 C 0 km/h
2946 04-01-2021 22:00:00 1.775 C 5.31 g/m*3 1.78 C 0 km/h
2947 04-01-2021 23:00:00 1.8 C 5.32 g/m*3 1.8 C 0.53333 km/h
2948 05-01-2021 00:00:00 1.84167 C 5.33 g/m*3 1.84 C 0.4 km/h
2949 05-01-2021 01:00:00 1.9 C 5.35 g/m*3 1.9 C 0.4 km/h
2950 05-01-2021 02:00:00 1.9 C 5.35 g/m*3 1.9 C 0.53333 km/h
Sensor: Nr:Datum:Temp:Abs-Feuchte:Windchill:Wind:
Aussen-T/F 2951 05-01-2021 03:00:00 1.99167 C 5.38 g/m*3 1.99 C 0.13333 km/h
2952 05-01-2021 04:00:00 2.1 C 5.37 g/m*3 2.1 C 0 km/h
2953 05-01-2021 05:00:00 2.08333 C 5.36 g/m*3 2.08 C 0 km/h
2954 05-01-2021 06:00:00 2.1 C 5.37 g/m*3 2.1 C 0 km/h
2955 05-01-2021 07:00:00 2.08333 C 5.36 g/m*3 2.08 C 0.26667 km/h
2956 05-01-2021 08:00:00 2.05 C 5.35 g/m*3 2.05 C 0.13333 km/h
2957 05-01-2021 09:00:00 2.15 C 5.39 g/m*3 2.15 C 0.13333 km/h
2958 05-01-2021 10:00:00 2.34167 C 5.46 g/m*3 2.34 C 0.93333 km/h
2959 05-01-2021 11:00:00 2.65833 C 5.49 g/m*3 2.66 C 1.2 km/h
2960 05-01-2021 12:00:00 2.88333 C 5.48 g/m*3 2.88 C 4.54167 km/h
2961 05-01-2021 13:00:00 3.03333 C 5.54 g/m*3 3.03 C 0.26667 km/h
2962 05-01-2021 14:00:00 3.25 C 5.62 g/m*3 3.25 C 0 km/h
2963 05-01-2021 15:00:00 3.3 C 5.64 g/m*3 3.3 C 0 km/h
2964 05-01-2021 16:00:00 3.20833 C 5.61 g/m*3 3.21 C 0 km/h
2965 05-01-2021 17:00:00 3.05 C 5.59 g/m*3 3.05 C 0 km/h
2966 05-01-2021 18:00:00 2.90833 C 5.56 g/m*3 2.91 C 0 km/h
2967 05-01-2021 19:00:00 2.9 C 5.61 g/m*3 2.9 C 0 km/h
2968 05-01-2021 20:00:00 2.9 C 5.61 g/m*3 2.9 C 0 km/h
2969 05-01-2021 21:00:00 2.9 C 5.61 g/m*3 2.9 C 0 km/h
2970 05-01-2021 22:00:00 2.68333 C 5.52 g/m*3 2.68 C 0 km/h
2971 05-01-2021 23:00:00 2.36667 C 5.43 g/m*3 2.37 C 0.26667 km/h
2972 06-01-2021 00:00:00 2.66667 C 5.54 g/m*3 2.67 C 0 km/h
2973 06-01-2021 01:00:00 2.69167 C 5.55 g/m*3 2.69 C 4.425 km/h
2974 06-01-2021 02:00:00 2.35 C 5.41 g/m*3 2.35 C 2.8 km/h
2975 06-01-2021 03:00:00 2.15 C 5.37 g/m*3 2.15 C 0.13333 km/h
Sensor: Nr:Datum:Temp:Abs-Feuchte:Windchill:Wind:
Aussen-T/F 2976 06-01-2021 04:00:00 1.68333 C 5.2 g/m*3 1.68 C 0 km/h
2977 06-01-2021 05:00:00 1.95833 C 5.32 g/m*3 1.96 C 0.26667 km/h
2978 06-01-2021 06:00:00 2.14167 C 5.39 g/m*3 2.14 C 0 km/h
2979 06-01-2021 07:00:00 2.2 C 5.44 g/m*3 2.2 C 1.2 km/h
2980 06-01-2021 08:00:00 2.15 C 5.41 g/m*3 2.15 C 0 km/h
2981 06-01-2021 09:00:00 2.24167 C 5.47 g/m*3 2.24 C 0 km/h
2982 06-01-2021 10:00:00 2.65833 C 5.64 g/m*3 2.66 C 0.13333 km/h
2983 06-01-2021 11:00:00 3.175 C 5.83 g/m*3 3.18 C 0.4 km/h
2984 06-01-2021 12:00:00 3.525 C 5.9 g/m*3 3.53 C 1.86667 km/h
2985 06-01-2021 13:00:00 3.76667 C 5.85 g/m*3 2.25 C 6.15 km/h
2986 06-01-2021 14:00:00 3.8 C 5.72 g/m*3 2.38 C 5.9 km/h
2987 06-01-2021 15:00:00 3.875 C 5.74 g/m*3 3.88 C 2.93333 km/h
2988 06-01-2021 16:00:00 3.65833 C 5.67 g/m*3 3.66 C 4.66667 km/h
2989 06-01-2021 17:00:00 3.325 C 5.59 g/m*3 3.33 C 4.00833 km/h
2990 06-01-2021 18:00:00 2.99167 C 5.47 g/m*3 2.99 C 4.26667 km/h
2991 06-01-2021 19:00:00 2.8 C 5.45 g/m*3 2.8 C 4.4 km/h
2992 06-01-2021 20:00:00 2.75 C 5.38 g/m*3 1.44 C 5.225 km/h
2993 06-01-2021 21:00:00 2.5 C 5.28 g/m*3 2.5 C 4.55 km/h
2994 06-01-2021 22:00:00 2.35 C 5.16 g/m*3 0.98 C 5.23333 km/h
2995 06-01-2021 23:00:00 2.19167 C 5.07 g/m*3 2.19 C 3.475 km/h
2996 07-01-2021 00:00:00 2.09167 C 4.99 g/m*3 -0.05 C 7.24167 km/h
2997 07-01-2021 01:00:00 1.83333 C 4.98 g/m*3 1.83 C 1.33333 km/h
2998 07-01-2021 02:00:00 1.45833 C 4.94 g/m*3 1.46 C 0.66667 km/h
2999 07-01-2021 03:00:00 1.25833 C 4.91 g/m*3 1.26 C 0 km/h
3000 07-01-2021 04:00:00 1.21667 C 4.93 g/m*3 1.22 C 0 km/h
Sensor: Nr:Datum:Temp:Abs-Feuchte:Windchill:Wind:
Aussen-T/F 3001 07-01-2021 05:00:00 1.34167 C 4.98 g/m*3 1.34 C 1.06667 km/h
3002 07-01-2021 06:00:00 1.5 C 4.97 g/m*3 1.5 C 3.06667 km/h
3003 07-01-2021 07:00:00 1.73333 C 4.98 g/m*3 0.17 C 5.475 km/h
3004 07-01-2021 08:00:00 1.73333 C 4.94 g/m*3 -0.14 C 6.29167 km/h
3005 07-01-2021 09:00:00 1.9 C 4.95 g/m*3 0.3 C 5.625 km/h
3006 07-01-2021 10:00:00 2.18333 C 5.04 g/m*3 2.18 C 4.00833 km/h
3007 07-01-2021 11:00:00 2.7 C 5.13 g/m*3 0.79 C 6.83333 km/h
3008 07-01-2021 12:00:00 2.71667 C 5.17 g/m*3 0.07 C 9.41667 km/h
3009 07-01-2021 13:00:00 2.68333 C 5.38 g/m*3 0.51 C 7.65833 km/h
3010 07-01-2021 14:00:00 2.84167 C 5.42 g/m*3 0.83 C 7.24167 km/h
3011 07-01-2021 15:00:00 2.45 C 5.33 g/m*3 0.45 C 6.975 km/h
3012 07-01-2021 16:00:00 2.4 C 5.31 g/m*3 0.1 C 7.91667 km/h
3013 07-01-2021 17:00:00 2.36667 C 5.33 g/m*3 0.49 C 6.575 km/h
3014 07-01-2021 18:00:00 2.375 C 5.35 g/m*3 0.03 C 8.05833 km/h
3015 07-01-2021 19:00:00 2.2 C 5.33 g/m*3 0.08 C 7.23333 km/h
3016 07-01-2021 20:00:00 2.1 C 5.31 g/m*3 0.19 C 6.56667 km/h
3017 07-01-2021 21:00:00 1.89167 C 5.19 g/m*3 -0.58 C 8.2 km/h
3018 07-01-2021 22:00:00 1.9 C 5.16 g/m*3 -0.72 C 8.73333 km/h
3019 07-01-2021 23:00:00 1.93333 C 5.14 g/m*3 -0.75 C 9.00833 km/h
3020 08-01-2021 00:00:00 1.73333 C 5.12 g/m*3 -1.26 C 10.08333 km/h
3021 08-01-2021 01:00:00 1.63333 C 5.13 g/m*3 -0.72 C 7.65833 km/h
3022 08-01-2021 02:00:00 1.76667 C 5.15 g/m*3 -0.39 C 7.125 km/h
3023 08-01-2021 03:00:00 1.8 C 5.15 g/m*3 -1.02 C 9.425 km/h
3024 08-01-2021 04:00:00 1.84167 C 5.17 g/m*3 -0.93 C 9.28333 km/h
3025 08-01-2021 05:00:00 1.84167 C 5.21 g/m*3 -0.79 C 8.75833 km/h
Sensor: Nr:Datum:Temp:Abs-Feuchte:Windchill:Wind:
Aussen-T/F 3026 08-01-2021 06:00:00 1.79167 C 5.2 g/m*3 -0.22 C 6.69167 km/h
3027 08-01-2021 07:00:00 1.71667 C 5.19 g/m*3 1.72 C 4.54167 km/h
3028 08-01-2021 08:00:00 1.6 C 5.19 g/m*3 1.6 C 4.94167 km/h
3029 08-01-2021 09:00:00 1.63333 C 5.2 g/m*3 1.63 C 4.26667 km/h
3030 08-01-2021 10:00:00 1.89167 C 5.3 g/m*3 1.89 C 2.66667 km/h
3031 08-01-2021 11:00:00 2.2 C 5.4 g/m*3 2.2 C 2.66667 km/h
3032 08-01-2021 12:00:00 2.525 C 5.47 g/m*3 2.53 C 2.66667 km/h
3033 08-01-2021 13:00:00 2.50833 C 5.46 g/m*3 2.51 C 0.53333 km/h
3034 08-01-2021 14:00:00 2.54167 C 5.47 g/m*3 2.54 C 2.53333 km/h
3035 08-01-2021 15:00:00 2.475 C 5.41 g/m*3 2.48 C 2.26667 km/h
3036 08-01-2021 16:00:00 2.33333 C 5.36 g/m*3 2.33 C 1.86667 km/h
3037 08-01-2021 17:00:00 2.14167 C 5.33 g/m*3 2.14 C 0.8 km/h
3038 08-01-2021 18:00:00 2.1 C 5.34 g/m*3 2.1 C 1.06667 km/h
3039 08-01-2021 19:00:00 2.15833 C 5.39 g/m*3 2.16 C 0 km/h
3040 08-01-2021 20:00:00 2.15833 C 5.39 g/m*3 2.16 C 0 km/h
3041 08-01-2021 21:00:00 2.08333 C 5.36 g/m*3 2.08 C 1.73333 km/h
3042 08-01-2021 22:00:00 1.64167 C 5.18 g/m*3 1.64 C 1.86667 km/h
3043 08-01-2021 23:00:00 0.81667 C 4.89 g/m*3 0.82 C 0.66667 km/h
3044 09-01-2021 00:00:00 0.69167 C 4.88 g/m*3 0.69 C 1.86667 km/h
3045 09-01-2021 01:00:00 0.89167 C 4.95 g/m*3 0.89 C 0.8 km/h
3046 09-01-2021 02:00:00 1 C 4.98 g/m*3 1 C 0.13333 km/h
3047 09-01-2021 03:00:00 1.10833 C 5.02 g/m*3 1.11 C 0.66667 km/h
3048 09-01-2021 04:00:00 0.85 C 4.95 g/m*3 0.85 C 0.93333 km/h
3049 09-01-2021 05:00:00 0.9 C 5 g/m*3 0.9 C 0.26667 km/h
3050 09-01-2021 06:00:00 0.94167 C 5.01 g/m*3 0.94 C 0.66667 km/h
Sensor: Nr:Datum:Temp:Abs-Feuchte:Windchill:Wind:
Aussen-T/F 3051 09-01-2021 07:00:00 1.025 C 5.04 g/m*3 1.02 C 0.53333 km/h
3052 09-01-2021 08:00:00 1.06667 C 5.05 g/m*3 1.07 C 0.8 km/h
3053 09-01-2021 09:00:00 1.01667 C 4.99 g/m*3 1.02 C 0.26667 km/h
3054 09-01-2021 10:00:00 0.91667 C 4.98 g/m*3 0.92 C 0.4 km/h
3055 09-01-2021 11:00:00 1.10833 C 5.03 g/m*3 1.11 C 1.60833 km/h
3056 09-01-2021 12:00:00 1.34167 C 5.07 g/m*3 1.34 C 2.41667 km/h
3057 09-01-2021 13:00:00 2.15833 C 5.1 g/m*3 2.16 C 3.35 km/h
3058 09-01-2021 14:00:00 2.875 C 5.14 g/m*3 2.88 C 3.2 km/h
3059 09-01-2021 15:00:00 2.925 C 5.03 g/m*3 2.93 C 4.13333 km/h
3060 09-01-2021 16:00:00 2.5 C 5.05 g/m*3 2.5 C 1.33333 km/h
3061 09-01-2021 17:00:00 1.64167 C 4.93 g/m*3 1.64 C 0.4 km/h
3062 09-01-2021 18:00:00 1.3 C 4.91 g/m*3 1.3 C 0 km/h
3063 09-01-2021 19:00:00 1.26667 C 4.96 g/m*3 1.27 C 0 km/h
3064 09-01-2021 20:00:00 1.16667 C 4.93 g/m*3 1.17 C 0 km/h
3065 09-01-2021 21:00:00 1.09167 C 4.94 g/m*3 1.09 C 0 km/h
3066 09-01-2021 22:00:00 1.19167 C 5 g/m*3 1.19 C 0 km/h
3067 09-01-2021 23:00:00 1.25 C 5.02 g/m*3 1.25 C 0 km/h
3068 10-01-2021 00:00:00 0.96667 C 4.92 g/m*3 0.97 C 0 km/h
3069 10-01-2021 01:00:00 0.83333 C 4.9 g/m*3 0.83 C 0 km/h
3070 10-01-2021 02:00:00 0.9 C 4.95 g/m*3 0.9 C 0 km/h
3071 10-01-2021 03:00:00 0.95833 C 4.97 g/m*3 0.96 C 0 km/h
3072 10-01-2021 04:00:00 0.88333 C 4.94 g/m*3 0.88 C 0 km/h
3073 10-01-2021 05:00:00 0.7 C 4.88 g/m*3 0.7 C 0 km/h
3074 10-01-2021 06:00:00 0.71667 C 4.89 g/m*3 0.72 C 0 km/h
3075 10-01-2021 07:00:00 0.84167 C 4.93 g/m*3 0.84 C 0 km/h
Sensor: Nr:Datum:Temp:Abs-Feuchte:Windchill:Wind:
Aussen-T/F 3076 10-01-2021 08:00:00 0.70833 C 4.88 g/m*3 0.71 C 0 km/h
3077 10-01-2021 09:00:00 0.775 C 4.91 g/m*3 0.78 C 0 km/h
3078 10-01-2021 10:00:00 1.24167 C 5.08 g/m*3 1.24 C 0 km/h
3079 10-01-2021 11:00:00 1.775 C 5.22 g/m*3 1.78 C 0.8 km/h
3080 10-01-2021 12:00:00 2.325 C 5.21 g/m*3 2.33 C 1.86667 km/h
3081 10-01-2021 13:00:00 2.88333 C 5.12 g/m*3 2.88 C 1.33333 km/h
3082 10-01-2021 14:00:00 3.21667 C 4.99 g/m*3 3.22 C 1.46667 km/h
3083 10-01-2021 15:00:00 3.325 C 4.9 g/m*3 3.33 C 0.4 km/h
3084 10-01-2021 16:00:00 2.80833 C 5.01 g/m*3 2.81 C 0.93333 km/h
3085 10-01-2021 17:00:00 0.91667 C 4.55 g/m*3 0.92 C 4.26667 km/h
3086 10-01-2021 18:00:00 -0.45833 C 4.28 g/m*3 -0.46 C 1.2 km/h
3087 10-01-2021 19:00:00 -1.075 C 4.17 g/m*3 -1.08 C 0 km/h
3088 10-01-2021 20:00:00 -1.65833 C 4.04 g/m*3 -1.66 C 0 km/h
3089 10-01-2021 21:00:00 -2.08333 C 3.94 g/m*3 -2.08 C 0 km/h
3090 10-01-2021 22:00:00 -2.35833 C 3.9 g/m*3 -2.36 C 0 km/h
3091 10-01-2021 23:00:00 -2.70833 C 3.81 g/m*3 -2.71 C 0.13333 km/h
3092 11-01-2021 00:00:00 -2.975 C 3.74 g/m*3 -2.98 C 0.13333 km/h
3093 11-01-2021 01:00:00 -3.30833 C 3.65 g/m*3 -3.31 C 0.13333 km/h
3094 11-01-2021 02:00:00 -2.94167 C 3.77 g/m*3 -2.94 C 0.13333 km/h
3095 11-01-2021 03:00:00 -3.30833 C 3.65 g/m*3 -3.31 C 0 km/h
3096 11-01-2021 04:00:00 -3.59167 C 3.58 g/m*3 -3.59 C 0 km/h
3097 11-01-2021 05:00:00 -3.86667 C 3.51 g/m*3 -3.87 C 0 km/h
3098 11-01-2021 06:00:00 -4.125 C 3.46 g/m*3 -4.13 C 0 km/h
3099 11-01-2021 07:00:00 -3.925 C 3.53 g/m*3 -3.93 C 0.66667 km/h
3100 11-01-2021 08:00:00 -3.36667 C 3.67 g/m*3 -3.37 C 1.2 km/h
Sensor: Nr:Datum:Temp:Abs-Feuchte:Windchill:Wind:
Aussen-T/F 3101 11-01-2021 09:00:00 -2.6 C 3.88 g/m*3 -2.6 C 0.93333 km/h
3102 11-01-2021 10:00:00 -1.30833 C 4.18 g/m*3 -3.24 C 5.35 km/h
3103 11-01-2021 11:00:00 0.08333 C 4.32 g/m*3 -2.66 C 8.05 km/h
3104 11-01-2021 12:00:00 1.01667 C 4.35 g/m*3 -2.32 C 10.88333 km/h
3105 11-01-2021 13:00:00 1.825 C 4.43 g/m*3 -1.22 C 10.35 km/h
3106 11-01-2021 14:00:00 2.26667 C 4.55 g/m*3 0.07 C 7.525 km/h
3107 11-01-2021 15:00:00 2.375 C 4.68 g/m*3 2.38 C 3.74167 km/h
3108 11-01-2021 16:00:00 2.33333 C 4.86 g/m*3 2.33 C 0.53333 km/h
3109 11-01-2021 17:00:00 1.79167 C 4.85 g/m*3 1.79 C 2 km/h
3110 11-01-2021 18:00:00 1.66667 C 4.82 g/m*3 1.67 C 1.86667 km/h
3111 11-01-2021 19:00:00 1.76667 C 4.82 g/m*3 1.77 C 3.34167 km/h
3112 11-01-2021 20:00:00 2 C 4.88 g/m*3 2 C 4.14167 km/h
3113 11-01-2021 21:00:00 2.325 C 4.93 g/m*3 0.9 C 5.35833 km/h
3114 11-01-2021 22:00:00 2.49167 C 5.01 g/m*3 0.73 C 6.3 km/h
3115 11-01-2021 23:00:00 2.8 C 5.11 g/m*3 0.07 C 9.81667 km/h
3116 12-01-2021 00:00:00 3 C 5.24 g/m*3 -0.24 C 12.35833 km/h
3117 12-01-2021 01:00:00 3.26667 C 5.38 g/m*3 -0.65 C 16.63333 km/h
3118 12-01-2021 02:00:00 3.34167 C 5.42 g/m*3 -0.23 C 14.63333 km/h
3119 12-01-2021 03:00:00 3.51667 C 5.54 g/m*3 -0.02 C 14.63333 km/h
3120 12-01-2021 04:00:00 3.725 C 5.59 g/m*3 -0.47 C 19.45 km/h
3121 12-01-2021 05:00:00 3.875 C 5.63 g/m*3 -0.78 C 23.6 km/h
3122 12-01-2021 06:00:00 3.85833 C 5.67 g/m*3 -0.74 C 23.04167 km/h
3123 12-01-2021 07:00:00 3.79167 C 5.66 g/m*3 -0.78 C 22.64167 km/h
3124 12-01-2021 08:00:00 3.95833 C 5.66 g/m*3 -0.91 C 25.86667 km/h
3125 12-01-2021 09:00:00 4.14167 C 5.69 g/m*3 -0.76 C 26.69167 km/h
Sensor: Nr:Datum:Temp:Abs-Feuchte:Windchill:Wind:
Aussen-T/F 3126 12-01-2021 10:00:00 4.41667 C 5.8 g/m*3 -0.2 C 24.66667 km/h
3127 12-01-2021 11:00:00 4.68333 C 5.96 g/m*3 0.69 C 19.83333 km/h
3128 12-01-2021 12:00:00 5.05 C 6.15 g/m*3 1.35 C 18.23333 km/h
3129 12-01-2021 13:00:00 5.225 C 6.3 g/m*3 1.82 C 16.36667 km/h
3130 12-01-2021 14:00:00 5.18333 C 6.47 g/m*3 2.75 C 10.61667 km/h
3131 12-01-2021 15:00:00 5.40833 C 6.63 g/m*3 2.86 C 11.41667 km/h
3132 12-01-2021 16:00:00 5.45 C 6.58 g/m*3 3.42 C 9.00833 km/h
3133 12-01-2021 17:00:00 4.56667 C 6.12 g/m*3 2.88 C 7.10833 km/h
3134 12-01-2021 18:00:00 3.25833 C 5.65 g/m*3 3.26 C 4.95 km/h
3135 12-01-2021 19:00:00 2.45833 C 5.41 g/m*3 2.46 C 4.80833 km/h
3136 12-01-2021 20:00:00 2.75 C 5.47 g/m*3 1.5 C 5.075 km/h
3137 12-01-2021 21:00:00 3.05 C 5.45 g/m*3 1.61 C 5.64167 km/h
3138 12-01-2021 22:00:00 2.96667 C 5.38 g/m*3 2.97 C 3.46667 km/h
3139 12-01-2021 23:00:00 2.14167 C 5.21 g/m*3 2.14 C 2.8 km/h
3140 13-01-2021 00:00:00 1.93333 C 5.2 g/m*3 1.93 C 2.8 km/h
3141 13-01-2021 01:00:00 1.59167 C 5.1 g/m*3 1.59 C 4.275 km/h
3142 13-01-2021 02:00:00 1.7 C 5.1 g/m*3 -0.8 C 8.2 km/h
3143 13-01-2021 03:00:00 1.73333 C 5 g/m*3 -0.92 C 8.75833 km/h
3144 13-01-2021 04:00:00 1.63333 C 4.91 g/m*3 -0.96 C 8.475 km/h
3145 13-01-2021 05:00:00 1.66667 C 4.89 g/m*3 -1.07 C 9.01667 km/h
3146 13-01-2021 06:00:00 1.775 C 4.92 g/m*3 -1.04 C 9.39167 km/h
3147 13-01-2021 07:00:00 1.91667 C 4.92 g/m*3 -0.92 C 9.56667 km/h
3148 13-01-2021 08:00:00 1.75833 C 4.93 g/m*3 -0.61 C 7.78333 km/h
<